GFSSGP_prec_cloud_003.txt.gz
Cloud_Cover
0 0 0 0 0 0 1 59 100 100 100 100 95 100 28 5 46 61 21 63 5 1 32 0 0 6 25 100 77 5 5 4 1 3 5 4 27 0 3 0 8 0 0 0 0 0 0 0 0
0 0 0 0 0 0 0 0 98 100 100 100 100 67 60 93 95 79 44 98 100 24 32 0 0 0 3 66 100 5 5 76 100 65 18 100 37 100 100 94 8 0 0 0 0 0 0 0 0
0 0 0 0 0 0 0 0 0 6 100 100 100 100 78 93 99 98 79 66 100 100 33 5 0 0 5 35 100 83 100 100 23 5 99 73 100 100 89 41 0 0 0 0 0 0 0 0 0
0 0 0 0 0 0 0 0 0 71 100 100 100 100 100 100 100 100 100 100 20 93 100 63 5 5 7 5 18 100 100 100 5 6 22 12 88 100 99 96 0 0 0 0 0 0 0 0 0
0 0 0 0 0 0 0 0 0 0 17 100 100 100 100 100 100 100 58 87 100 99 99 100 90 5 5 5 95 83 96 100 100 100 100 100 87 72 75 11 0 0 0 0 0 0 0 0 0
0 0 0 0 0 0 0 0 0 0 0 98 100 100 100 100 100 100 100 98 100 100 100 98 97 26 58 83 98 98 53 100 100 100 100 22 7 5 50 7 1 0 0 0 0 0 0 0 1
0 0 0 0 0 0 0 0 0 0 0 21 100 100 100 100 100 100 97 87 100 100 100 100 100 6 10 100 100 99 90 100 100 100 72 10 5 6 1 3 3 0 0 0 0 0 0 0 0
0 0 0 0 0 0 0 0 0 0 0 0 46 100 100 100 100 100 100 96 100 97 100 100 100 100 72 40 86 54 37 100 100 100 68 41 4 3 0 0 0 0 0 0 0 0 0 0 0
0 0 2 0 0 0 0 0 0 0 0 0 0 4 95 100 100 100 100 100 100 100 100 75 96 100 100 100 100 100 100 100 100 100 41 6 0 0 0 0 0 0 3 5 3 5 5 1 15
1 16 0 0 0 0 0 0 0 0 0 0 0 0 1 100 100 100 100 100 100 100 100 100 70 96 97 100 100 99 78 93 100 100 99 5 24 5 5 0 0 0 0 5 5 10 26 0 4
0 8 0 0 0 0 0 0 0 0 0 0 0 0 0 16 100 100 100 100 100 69 36 80 82 92 77 69 71 84 54 75 22 11 5 5 41 6 4 0 0 0 7 94 12 0 0 5 5
0 0 0 0 0 0 0 0 0 0 0 0 0 0 0 0 50 100 100 100 100 100 100 100 100 59 90 72 62 73 43 22 21 5 11 5 4 5 5 6 32 22 10 57 94 11 4 1 5
0 0 0 0 0 0 0 0 0 0 0 0 0 0 0 0 0 0 54 100 100 93 79 100 63 8 49 7 19 44 7 10 5 5 5 24 10 9 23 77 100 38 98 3 0 2 5 3 5
3 0 0 0 0 0 0 0 0 0 0 0 0 0 0 0 0 0 0 23 100 100 100 100 100 74 63 31 72 29 5 48 11 5 5 64 100 52 44 42 47 89 18 0 0 4 5 5 12
4 1 3 18 2 0 0 0 0 0 0 0 0 0 0 0 0 0 0 0 36 100 100 100 100 100 11 42 33 81 63 72 97 99 99 100 100 100 100 96 82 5 4 5 5 5 5 5 5
70 19 5 0 0 0 0 0 0 0 0 0 0 0 0 0 0 0 0 0 0 27 100 100 100 100 100 100 100 100 100 100 100 100 100 100 100 100 79 10 5 5 5 5 8 5 5 5 5
14 7 4 18 0 0 1 0 0 0 0 0 0 0 0 0 0 0 0 0 0 0 31 100 100 96 100 92 100 100 100 100 100 100 100 90 89 90 82 89 68 5 54 59 56 71 22 5 4
93 93 62 41 3 4 0 1 1 0 0 0 0 0 0 0 0 0 0 0 0 0 0 0 39 77 88 100 100 100 100 100 100 100 100 54 9 5 5 14 21 5 5 5 5 1 2 1 0
12 65 69 100 93 5 4 3 0 2 0 0 0 0 0 0 0 0 0 0 0 0 0 1 0 2 20 49 100 100 100 100 100 100 87 99 15 16 3 5 5 2 0 0 4 0 0 0 0
5 41 73 100 100 93 5 4 1 3 0 0 0 0 0 0 0 0 0 0 0 0 0 0 0 32 82 27 53 98 100 100 100 53 49 96 68 2 0 0 0 0 0 0 0 0 0 0 0
12 24 10 91 58 5 15 1 0 0 0 2 2 0 0 0 0 0 0 0 0 0 0 0 1 72 83 37 61 54 100 99 33 40 41 29 2 0 0 0 0 0 0 0 0 0 0 0 0
80 5 5 5 5 21 0 17 0 2 0 4 5 0 0 0 0 0 0 0 0 0 0 0 13 78 64 64 100 99 40 15 5 5 16 8 0 0 0 0 0 0 0 0 0 0 0 0 0
62 5 5 5 6 12 4 5 1 0 0 0 0 0 0 0 0 0 0 0 0 0 0 0 61 55 58 88 71 77 39 0 5 5 5 5 4 0 0 0 0 0 0 0 0 0 0 0 0
25 75 72 68 32 94 5 22 0 0 0 0 0 0 0 0 0 0 0 0 0 0 0 8 41 57 46 11 35 1 0 5 5 5 5 5 5 0 0 0 0 0 0 0 3 0 0 0 0
91 94 100 100 100 100 68 16 6 5 0 0 0 0 0 0 0 0 0 0 0 0 0 8 20 8 2 0 0 0 5 75 64 83 54 5 2 0 0 5 0 0 0 5 4 0 0 0 0
98 100 100 100 74 11 5 1 35 84 96 29 5 4 0 0 0 0 0 0 0 1 0 0 0 0 5 0 0 4 5 33 60 66 35 4 0 0 0 0 0 5 5 3 0 0 0 0 3
98 96 48 100 100 100 5 0 0 7 100 100 5 5 0 0 0 0 0 0 2 5 5 0 0 1 2 5 4 2 5 5 5 5 5 5 0 0 0 1 5 1 0 0 0 3 5 5 5
100 73 98 100 97 100 3 24 4 1 76 84 5 5 0 0 0 0 0 0 2 14 43 1 0 4 3 5 5 5 7 50 5 5 5 0 0 0 5 5 0 4 0 2 5 5 5 5 5
91 100 56 47 23 11 13 0 0 0 36 6 5 5 5 15 5 0 0 4 5 23 1 0 0 3 5 5 5 5 25 5 5 5 4 0 4 5 5 3 1 2 5 5 5 5 5 5 5
87 54 83 98 26 45 82 92 98 53 4 5 40 7 21 100 2 0 3 2 0 0 0 0 0 3 5 5 5 5 66 27 5 5 2 5 5 57 1 1 4 5 5 5 5 5 5 5 5

GFSSGP_prec_cloud_006.txt.gz
Cloud_Cover
0 0 0 0 0 0 0 0 0 0 3 100 100 100 90 48 23 53 99 100 23 3 0 0 15 1 9 20 0 3 23 31 79 5 25 14 25 88 6 0 8 0 0 0 0 0 0 0 0
0 0 0 0 0 0 0 0 0 0 0 28 100 100 99 98 100 98 90 100 100 80 15 5 2 1 12 15 12 0 5 5 77 7 3 100 39 100 100 66 19 0 0 0 0 0 0 0 0
0 0 0 0 0 0 0 0 0 0 0 0 4 99 100 100 100 100 100 100 100 100 56 1 30 0 1 21 6 7 5 5 9 38 19 100 100 99 10 4 0 1 0 0 0 0 0 0 0
0 0 0 0 0 0 0 0 0 0 0 0 0 5 89 100 100 100 100 100 100 100 100 26 2 3 0 4 18 14 5 5 24 6 30 100 100 100 100 81 100 6 0 0 0 0 0 0 0
0 0 0 0 0 0 0 0 0 0 0 0 0 4 97 100 100 100 100 100 100 100 100 100 81 6 5 5 14 5 3 5 5 1 5 88 100 100 100 100 97 0 0 0 0 0 6 2 0
0 0 0 0 0 0 0 0 0 0 0 0 0 0 41 100 100 100 100 100 100 100 100 100 100 100 60 13 5 5 5 28 5 4 12 98 100 100 100 88 5 4 0 1 0 8 1 2 2
0 0 0 0 0 0 0 0 0 0 0 0 0 0 1 30 100 100 100 100 100 100 100 100 100 100 100 100 79 92 43 6 33 85 95 100 100 100 100 99 99 93 6 1 0 2 1 0 0
0 0 0 0 0 0 0 0 0 0 0 0 0 0 0 86 100 100 100 100 100 100 100 100 100 100 100 100 100 100 100 95 6 40 98 100 100 100 100 100 96 51 3 0 0 0 0 0 0
0 0 2 0 0 0 0 0 0 0 0 0 0 0 0 0 3 83 100 100 100 100 100 100 100 99 100 100 100 100 100 100 100 100 100 100 92 97 100 49 13 5 2 0 0 0 0 0 1
0 22 0 0 0 0 0 0 0 0 0 0 0 0 0 0 0 6 100 100 100 100 100 100 100 100 71 100 100 95 100 100 98 100 100 100 55 52 56 5 67 5 5 5 0 0 0 0 5
0 1 0 0 0 0 0 0 0 0 0 0 0 0 0 0 0 0 7 100 100 100 100 100 100 100 55 77 97 100 96 28 74 51 100 100 96 63 77 11 5 2 1 96 26 0 0 0 0
0 0 0 0 0 0 0 0 0 0 0 0 0 0 0 0 0 0 0 21 90 100 100 100 100 100 98 72 80 68 94 88 46 68 86 78 60 14 23 32 30 5 100 8 0 0 0 0 0
0 0 0 0 0 0 0 0 0 0 0 0 0 0 0 0 0 0 0 0 0 80 86 100 100 100 92 95 99 76 22 27 25 10 64 70 9 7 13 100 100 94 40 4 1 1 0 0 0
22 0 0 0 0 0 0 0 0 0 0 0 0 0 0 0 0 0 0 0 0 0 1 23 100 100 100 100 77 87 61 10 12 23 65 64 100 93 98 100 94 64 39 3 4 3 0 5 0
0 0 0 1 0 0 0 0 0 0 0 0 0 0 0 0 0 0 0 0 0 0 0 0 38 94 100 100 98 86 99 77 96 100 96 100 100 100 100 70 89 34 5 5 8 5 5 5 2
43 42 7 0 0 0 0 1 0 0 0 0 0 0 0 0 0 0 0 0 0 0 0 0 0 2 44 43 83 100 100 100 100 100 100 100 100 100 100 82 44 34 5 42 6 0 0 0 3
8 17 46 5 5 1 1 0 0 0 0 0 0 0 0 0 0 0 0 0 0 0 0 1 1 3 4 84 100 100 100 100 100 100 100 100 100 98 90 14 40 13 6 8 0 5 4 0 0
6 30 5 8 40 0 4 4 1 0 0 0 0 0 0 0 0 0 0 0 0 0 0 20 23 36 0 8 100 100 100 100 100 100 100 100 100 99 52 25 11 6 28 3 5 3 0 0 0
5 7 68 29 5 9 5 5 2 2 0 0 0 0 0 0 0 0 0 0 0 0 9 56 51 10 0 50 88 100 100 100 100 100 100 100 100 37 5 58 64 5 4 5 0 0 0 0 0
98 95 24 6 5 8 4 0 0 0 0 0 0 0 0 0 0 0 0 0 0 0 7 47 5 4 24 76 85 100 100 100 100 100 100 98 8 5 61 13 5 2 5 0 0 0 0 0 0
44 82 60 17 3 0 3 0 0 0 0 0 0 0 0 2 0 0 0 0 0 0 14 11 10 38 85 100 100 83 100 96 100 100 97 5 5 5 24 5 5 5 0 0 0 0 0 0 0
66 7 15 5 18 28 0 12 0 0 0 0 0 0 0 1 0 0 0 0 0 0 0 0 0 48 74 100 100 54 0 52 100 65 51 4 1 5 5 5 5 2 0 0 0 0 0 0 0
38 5 6 5 39 65 15 49 0 0 0 0 2 0 0 4 36 2 0 0 0 8 0 0 0 27 95 100 100 100 100 98 67 0 1 0 6 5 5 5 5 5 0 0 0 0 0 0 0
72 84 100 94 100 100 63 16 0 5 0 0 5 0 0 5 38 8 0 0 3 2 0 0 0 14 99 100 100 100 99 96 5 0 0 7 97 78 6 5 8 2 0 0 0 0 0 0 0
99 100 99 100 100 55 61 32 0 0 73 2 7 5 0 0 8 46 4 0 0 0 0 0 1 89 100 100 100 100 88 12 0 0 3 64 98 88 35 34 3 0 0 0 0 0 0 0 0
100 100 98 89 100 46 96 2 0 0 6 89 80 7 5 5 22 68 5 0 0 0 0 0 100 100 100 98 46 20 5 0 0 2 5 5 72 64 7 0 0 0 0 0 1 0 0 0 2
100 100 72 100 91 99 7 1 0 0 3 31 100 6 11 5 5 4 0 2 5 5 5 3 96 98 78 16 5 5 5 5 5 3 5 5 5 5 4 0 0 0 3 5 0 0 0 5 5
100 97 100 100 100 91 3 1 1 0 0 5 100 39 5 5 5 0 5 4 9 10 5 34 41 31 8 2 5 5 5 5 5 5 5 5 5 5 0 0 0 5 3 0 0 5 5 5 64
100 100 100 100 100 34 5 0 0 0 0 4 31 68 5 5 5 0 5 5 5 4 35 85 72 38 1 5 5 24 87 72 23 5 20 5 5 5 5 5 3 5 0 0 4 5 12 99 57
100 100 100 89 7 7 5 1 0 4 1 5 53 45 5 5 5 22 5 5 0 1 70 95 83 44 5 5 16 74 100 94 92 74 5 5 5 5 5 5 5 2 0 5 5 97 32 6 4

GFSSGP_prec_cloud_009.txt.gz
Cloud_Cover
0 0 0 0 0 0 0 0 0 0 0 0 0 3 40 35 57 5 7 9 8 5 5 5 6 10 1 0 0 0 0 0 0 4 99 9 20 5 6 100 9 5 2 0 0 0 0 0 5
0 0 0 0 0 0 0 0 0 0 0 0 0 14 63 93 24 40 61 97 79 72 13 5 56 28 9 7 0 0 0 0 0 0 7 2 96 94 61 86 4 3 0 0 0 0 0 0 0
0 0 0 0 0 0 0 0 0 0 0 0 0 0 78 10 82 97 86 81 100 100 100 45 7 15 28 20 26 0 0 0 0 0 96 98 99 6 17 56 86 27 5 11 9 23 5 0 0
0 0 0 0 0 0 0 0 0 0 0 0 0 1 5 75 88 71 100 100 100 100 100 100 91 69 58 73 18 25 2 0 0 0 22 100 100 32 60 5 8 100 74 60 100 20 5 2 1
0 0 0 0 0 0 0 0 0 0 0 0 0 0 3 32 41 94 98 100 100 100 100 100 100 100 96 68 30 41 15 8 0 0 0 99 99 87 50 0 5 99 100 98 20 11 61 10 2
0 0 0 0 0 0 0 0 0 0 0 0 0 0 0 5 4 5 3 93 100 100 100 100 100 100 100 100 100 100 26 5 2 0 1 2 4 4 0 3 6 8 82 100 100 100 19 5 5
0 0 0 0 0 0 0 0 0 0 0 0 0 0 0 0 1 3 5 3 100 96 100 100 100 100 100 100 100 100 100 92 37 5 5 5 85 95 4 8 85 100 100 100 99 100 5 9 16
0 0 0 0 0 0 0 0 0 0 0 0 0 0 0 0 0 0 0 0 98 100 100 100 100 100 100 100 100 100 100 100 100 36 15 22 24 23 88 100 67 81 99 79 6 9 5 5 0
0 0 0 0 0 0 0 0 0 0 0 0 0 0 0 0 0 0 0 4 24 79 79 100 100 100 100 100 100 100 100 100 100 100 100 100 100 98 100 100 90 14 21 9 5 6 36 5 5
0 6 0 0 0 0 0 0 0 0 0 0 0 0 0 0 0 0 0 0 16 26 85 98 100 98 100 100 100 100 100 100 100 100 100 100 100 43 46 70 74 68 89 78 70 59 10 5 2
0 0 0 0 0 0 0 0 0 0 0 0 0 0 0 0 0 0 0 0 1 4 57 82 100 100 100 96 100 100 100 100 100 100 100 100 100 35 43 64 86 100 99 99 79 14 22 5 4
0 0 0 0 0 0 0 0 0 0 0 0 0 0 0 0 0 0 0 0 1 53 83 68 100 100 100 82 77 93 100 64 68 6 52 70 100 100 51 71 73 60 88 46 5 5 5 5 5
0 0 0 0 0 0 0 0 0 0 0 0 0 0 0 0 0 0 0 0 0 4 77 100 100 100 100 100 69 59 72 70 48 5 5 67 79 91 87 100 97 76 40 5 5 5 5 5 5
34 0 0 0 0 0 0 0 0 0 0 0 0 0 0 0 0 0 0 0 0 0 1 9 66 100 100 91 100 99 90 85 60 77 5 12 94 100 99 100 100 46 56 7 5 9 5 8 6
99 8 0 0 0 0 0 0 0 0 0 0 0 0 0 0 0 0 0 0 0 0 0 0 0 56 67 54 38 20 16 58 24 31 95 99 100 100 100 72 41 98 59 76 5 8 5 5 5
100 97 5 0 0 0 0 0 0 0 0 0 0 0 0 0 0 0 0 0 0 0 0 0 0 15 54 39 33 27 47 94 100 100 100 100 100 100 100 100 100 100 100 74 40 42 5 4 0
100 100 98 5 5 0 0 0 0 0 0 0 0 0 0 0 0 0 0 0 0 1 1 0 0 15 63 45 32 27 100 100 100 100 100 100 100 100 100 100 100 100 100 100 100 56 32 5 5
74 100 100 84 30 5 0 0 0 0 0 0 0 0 0 0 0 0 0 0 0 0 0 0 11 64 48 25 46 100 100 100 100 100 100 100 100 100 100 100 100 100 100 100 64 44 43 60 5
25 18 61 100 58 46 3 0 0 0 0 0 0 0 0 0 0 0 0 0 0 0 0 8 100 61 18 48 46 85 100 100 100 100 100 100 100 99 100 100 100 100 100 95 53 62 88 5 0
28 36 67 96 76 5 3 0 0 1 0 0 0 0 0 0 0 0 0 0 0 0 2 100 89 26 4 6 0 1 72 100 100 100 100 100 100 73 66 100 100 100 99 85 5 5 2 0 0
100 100 98 96 80 5 4 4 2 4 4 0 0 0 0 0 0 0 0 0 0 0 13 100 48 24 28 39 1 4 100 100 100 100 100 100 85 75 62 76 97 65 95 68 5 5 5 5 0
100 24 19 5 63 79 3 3 0 0 3 1 0 0 0 0 0 0 0 0 0 0 10 100 51 27 60 74 5 11 83 46 99 100 100 92 5 34 61 92 5 66 68 5 5 16 5 5 0
35 5 5 5 57 92 60 97 0 25 70 18 0 0 0 0 0 0 0 0 0 0 0 43 60 64 65 82 66 17 100 97 93 100 100 0 4 5 5 5 9 85 30 5 5 5 5 0 0
58 67 81 37 74 97 5 66 0 1 66 55 5 4 0 0 0 0 0 0 1 3 4 0 49 98 100 96 100 83 100 100 100 100 36 0 0 4 1 5 79 67 25 5 25 5 0 0 0
23 100 97 100 100 49 34 51 0 0 0 40 20 5 5 0 0 0 0 0 5 6 5 0 0 41 99 25 95 100 100 99 88 25 0 0 1 1 4 6 70 11 5 19 19 0 0 0 0
61 67 98 100 85 39 65 30 0 0 3 1 100 63 5 0 0 0 0 0 5 18 5 0 5 0 88 16 99 100 100 44 100 2 0 5 1 2 5 5 6 5 4 3 0 0 0 0 0
96 99 7 100 100 100 20 0 0 0 0 0 94 100 48 2 5 0 0 0 6 5 10 5 5 0 4 100 100 100 100 100 58 5 5 5 4 5 5 5 5 5 5 5 0 0 0 0 0
17 94 95 100 100 100 14 1 0 0 0 0 91 100 100 5 5 5 5 0 5 5 5 5 5 4 96 100 100 100 99 46 22 63 10 5 5 5 5 5 5 5 5 5 5 0 0 0 1
95 100 100 100 100 100 45 2 0 0 0 0 9 100 100 1 6 5 5 3 24 7 5 5 16 93 100 100 88 22 5 72 94 92 77 76 34 5 57 5 5 5 5 5 5 1 5 5 5
100 100 100 100 100 100 80 9 3 1 0 4 72 100 100 5 0 5 5 5 5 5 5 79 100 100 100 86 5 5 49 91 66 76 88 100 41 70 56 15 5 5 5 5 5 5 5 5 5

GFSSGP_prec_cloud_012.txt.gz
Cloud_Cover
0 2 0 3 5 5 4 0 0 0 0 0 0 0 0 0 5 43 3 5 6 9 5 8 4 0 1 5 0 0 0 0 0 49 0 0 0 0 0 0 3 5 5 5 5 3 1 6 81
4 0 0 0 1 1 1 0 0 0 0 0 0 0 0 5 5 6 5 5 33 81 66 8 44 51 3 1 5 1 1 0 1 38 13 0 0 5 0 0 0 0 5 17 7 5 15 12 6
5 0 0 0 0 0 0 0 0 0 0 0 0 0 3 5 5 17 21 5 53 6 20 13 87 100 4 28 13 5 6 2 0 5 0 1 0 0 0 2 0 0 0 5 4 62 98 32 5
0 0 0 0 0 0 0 0 0 0 0 0 0 0 3 18 8 75 100 82 79 98 70 10 99 6 5 5 25 16 6 5 5 5 1 20 61 1 0 0 5 5 0 0 1 0 5 5 5
0 0 0 0 0 0 0 0 0 0 0 0 0 0 0 5 5 7 13 11 19 85 99 88 96 79 76 13 99 73 66 40 5 5 5 18 30 47 0 4 2 5 3 5 3 5 23 43 100
0 0 0 0 0 0 0 0 0 0 0 0 0 0 0 0 5 6 10 48 100 59 41 100 100 100 100 100 100 100 100 100 60 22 5 4 3 3 5 1 1 4 4 54 3 89 100 61 99
0 0 0 0 0 0 0 0 0 0 0 0 0 0 0 0 0 5 52 59 45 6 4 8 79 100 100 100 100 100 100 100 100 71 18 5 5 5 48 77 78 47 95 20 96 100 98 96 43
1 0 0 1 0 0 0 0 0 0 0 0 0 0 0 0 0 2 5 5 5 5 0 5 60 94 100 100 100 100 100 100 100 100 100 100 56 44 12 5 6 94 100 100 100 100 100 100 7
2 0 4 0 0 0 0 0 0 0 0 0 0 0 0 0 0 0 0 0 4 1 0 56 98 78 85 100 100 100 100 100 100 100 100 100 100 100 93 84 100 100 48 52 99 82 84 57 69
4 3 0 0 0 0 0 0 0 0 0 0 0 0 0 0 0 0 0 0 0 0 0 6 72 76 78 88 97 100 100 100 100 100 100 100 96 99 100 100 100 100 100 100 8 5 51 7 32
0 0 0 0 0 0 0 0 0 0 0 0 0 0 0 0 0 0 0 0 0 0 0 5 78 68 94 86 99 90 100 100 100 100 100 100 100 100 100 100 100 100 100 100 99 100 14 46 42
5 0 0 0 0 0 0 0 0 0 0 0 0 0 0 0 0 0 0 0 0 0 0 0 44 100 63 100 98 99 60 99 100 100 100 100 100 100 100 100 61 26 56 99 100 98 80 60 25
5 4 0 0 0 0 0 0 0 0 0 0 0 0 0 0 0 0 0 0 0 0 0 1 6 94 76 98 76 92 91 100 76 50 58 58 78 45 62 8 5 5 98 94 76 61 67 17 35
61 5 5 1 5 5 2 0 0 0 0 0 0 0 0 0 0 0 0 0 0 0 0 2 6 29 97 100 94 56 76 39 82 59 5 6 31 42 7 40 94 72 26 78 70 58 70 5 14
68 22 5 5 5 35 5 0 0 0 0 0 0 0 0 0 0 0 0 0 0 0 0 0 5 5 100 100 95 56 43 51 99 68 62 50 5 12 91 100 100 38 8 26 81 84 72 57 71
26 89 57 5 4 5 10 5 0 0 0 0 0 0 0 0 0 0 0 0 0 0 0 0 0 4 32 88 100 78 55 64 74 64 39 41 68 100 100 100 8 61 100 100 100 100 100 100 100
100 9 20 10 5 14 25 56 9 0 0 0 0 0 0 0 0 0 0 0 0 0 0 0 0 0 0 14 100 94 82 56 66 100 100 100 100 100 100 92 25 31 100 100 100 100 100 100 100
100 89 98 72 15 5 20 87 100 6 4 0 0 0 0 0 0 0 0 0 0 0 0 0 0 0 0 89 100 100 79 28 96 100 100 100 100 100 5 5 5 41 72 100 100 100 100 100 100
100 100 90 100 100 5 6 32 100 100 69 100 21 0 0 0 0 0 0 0 0 0 0 0 0 0 0 100 86 40 68 68 100 100 100 100 100 100 5 5 100 86 5 20 33 62 100 100 45
100 100 100 100 94 6 5 5 8 99 100 100 85 5 1 0 0 0 0 0 0 0 0 0 0 0 0 49 82 53 98 80 99 27 100 100 100 100 24 10 78 79 66 53 62 99 100 100 56
100 78 69 29 6 6 5 2 6 5 87 100 100 65 30 6 0 0 0 0 0 0 0 0 0 0 4 96 70 50 32 43 90 94 100 100 100 100 6 78 97 100 82 85 84 46 92 100 80
16 32 7 42 99 50 30 10 5 6 76 61 92 100 71 5 5 2 0 0 0 0 0 0 0 0 31 56 0 0 0 20 76 100 100 100 100 95 4 97 100 100 46 100 100 7 90 82 13
94 100 100 100 100 97 28 98 0 5 5 48 5 5 5 5 4 0 0 0 0 0 0 0 0 3 13 0 0 3 5 0 100 100 100 100 100 15 0 2 5 5 55 5 5 60 86 59 5
95 80 95 100 100 95 0 20 1 4 5 5 5 0 3 4 1 0 0 0 0 0 0 0 0 22 0 24 81 23 24 13 93 100 100 100 87 0 0 0 0 0 4 5 5 9 5 5 5
89 92 46 85 100 4 8 4 0 2 0 0 2 5 2 0 4 4 0 0 0 0 0 0 0 1 53 100 97 13 100 91 99 100 100 100 14 0 0 2 5 5 5 5 5 5 5 2 0
75 52 15 2 2 17 89 29 0 0 0 0 2 0 0 0 0 4 5 5 5 2 0 0 0 0 46 100 77 86 70 100 100 100 100 83 4 4 5 5 5 5 5 5 4 2 0 0 0
97 93 24 98 6 90 34 6 1 0 0 0 11 7 0 0 0 0 5 5 5 5 5 0 0 0 63 32 100 100 97 100 100 84 100 5 5 5 5 6 17 56 5 5 5 3 1 5 0
36 87 90 91 89 100 100 47 5 0 2 98 99 54 4 0 0 2 5 7 15 7 5 0 0 2 36 21 96 83 100 76 100 100 68 76 82 88 94 100 97 75 68 5 5 3 5 5 1
99 100 94 100 95 100 99 84 85 5 91 100 100 95 4 0 0 1 38 100 99 22 1 1 1 5 74 50 56 97 100 96 100 100 98 80 94 100 100 98 76 82 27 5 5 5 5 5 2
15 76 100 100 100 100 100 82 100 78 100 100 100 93 2 3 0 0 3 100 100 6 5 1 5 28 7 79 97 100 100 100 100 100 95 100 100 100 93 85 66 85 70 5 5 5 5 5 0

GFSSGP_prec_cloud_015.txt.gz
Cloud_Cover
4 5 4 6 7 26 14 6 0 0 2 4 0 0 0 3 88 72 6 4 3 5 15 5 4 5 0 14 0 0 0 0 0 8 0 3 0 0 0 0 0 0 0 0 0 3 24 4 18
5 4 0 5 5 5 4 5 0 0 0 0 0 0 0 0 0 0 5 5 5 5 11 7 3 1 2 13 0 0 0 0 1 0 0 0 0 0 0 0 0 0 0 0 0 0 0 0 3
40 5 7 5 8 5 5 5 0 0 0 0 0 0 0 0 0 2 5 5 5 40 61 7 5 5 4 15 0 2 0 0 0 0 0 0 0 0 0 0 0 0 0 0 1 0 0 0 4
60 5 22 89 8 0 0 4 0 0 0 0 0 0 0 0 0 5 5 14 5 5 8 20 40 100 5 5 5 15 5 4 0 0 1 5 5 0 5 0 0 0 0 0 0 0 1 0 0
12 43 49 100 28 0 0 0 0 0 0 0 0 0 1 0 0 5 5 75 99 16 16 11 27 16 6 96 16 23 30 5 5 3 2 10 5 93 22 5 5 4 0 0 0 8 1 6 3
9 15 8 65 1 1 0 0 0 0 0 0 0 0 0 0 0 2 5 5 5 14 6 15 12 97 100 100 100 77 100 70 90 21 30 49 45 34 81 75 88 51 4 0 4 6 18 70 74
6 4 5 5 0 0 0 0 0 0 0 0 0 0 0 0 0 0 4 5 6 29 17 27 31 34 14 60 100 100 100 100 100 100 100 94 100 93 49 74 32 8 5 5 60 100 18 7 62
22 5 5 8 0 0 0 0 0 0 0 0 0 0 1 0 0 0 0 3 5 5 5 5 26 59 52 28 61 100 100 100 100 100 100 100 100 97 100 100 100 100 97 71 99 82 46 100 17
79 17 70 11 0 0 0 0 0 0 0 0 0 0 0 0 0 0 0 0 4 5 5 5 8 7 90 83 20 6 45 100 100 100 100 100 96 100 100 100 100 100 100 100 99 7 100 100 95
7 42 70 5 0 4 5 0 0 0 0 0 0 0 0 0 0 0 0 0 0 0 0 0 4 19 92 42 25 16 11 58 100 100 99 100 100 100 100 100 100 100 100 100 100 100 100 100 100
5 30 7 5 1 0 1 0 0 2 0 0 0 0 0 0 0 0 0 0 0 0 0 2 7 10 52 88 98 53 52 54 17 95 90 100 100 100 100 100 100 100 100 100 100 100 100 100 95
34 37 5 5 5 5 1 0 0 0 0 0 0 0 1 0 0 0 0 0 0 0 0 2 6 26 50 83 95 87 10 7 29 40 44 64 90 85 100 100 100 100 100 100 100 100 100 34 6
5 50 19 5 5 1 1 0 0 2 0 0 0 0 0 0 0 0 0 0 0 0 0 0 0 76 45 100 82 58 51 46 64 55 54 95 81 56 66 100 100 100 100 100 95 66 94 39 71
33 8 5 29 21 1 0 0 0 0 0 0 0 0 0 0 0 0 0 0 0 0 0 0 0 4 97 100 98 68 59 32 59 82 96 7 31 82 68 37 48 5 15 12 47 49 56 60 44
61 7 10 5 26 6 3 3 5 0 0 0 0 0 0 0 0 0 0 0 0 0 0 0 0 0 2 100 90 98 58 36 69 100 93 37 96 97 7 9 5 5 5 4 3 5 6 6 6
52 18 5 5 14 60 5 19 5 2 4 5 2 1 0 0 0 0 0 0 0 0 0 0 0 0 6 100 88 8 100 100 100 100 100 100 44 5 1 6 30 5 14 7 5 5 5 44 100
69 100 70 29 6 71 8 6 5 5 5 22 7 5 0 0 0 0 0 0 0 0 0 0 0 0 0 41 94 99 100 100 100 97 100 57 5 8 12 88 12 5 5 5 5 5 16 78 94
100 100 100 100 100 92 6 18 32 5 5 5 13 65 5 0 0 0 0 0 0 0 0 0 0 0 0 0 20 98 100 100 100 82 62 100 72 59 97 17 5 4 5 5 20 70 7 5 5
100 100 100 100 100 99 47 10 76 11 5 5 5 5 73 5 1 0 0 0 0 0 0 0 0 0 0 0 3 24 100 100 100 18 81 100 80 100 100 5 1 3 5 32 99 100 93 34 5
100 100 100 100 100 95 100 94 83 64 7 6 16 10 100 100 99 40 8 0 0 0 0 0 0 0 0 0 44 30 100 99 67 23 2 100 98 100 100 30 0 0 5 68 93 99 88 70 62
17 50 34 54 96 100 100 63 100 27 99 96 75 7 6 97 100 99 47 29 7 0 0 0 0 0 0 1 77 97 100 97 100 59 1 14 91 100 100 87 0 0 0 20 29 64 61 28 92
28 15 17 5 22 13 52 5 5 28 87 14 73 75 5 8 6 36 100 85 100 58 2 0 0 0 0 6 48 94 3 42 81 10 2 59 99 100 100 88 0 0 0 5 21 63 64 5 5
99 99 39 56 75 68 30 43 58 52 96 98 8 5 5 2 4 6 62 74 14 5 4 1 0 0 0 0 25 76 0 18 47 19 64 100 100 100 100 55 0 0 0 0 0 1 1 4 4
100 99 100 98 100 63 82 5 0 100 12 5 5 5 4 20 5 5 14 5 10 5 5 5 2 0 0 12 50 0 0 0 2 23 92 100 100 100 100 5 5 0 0 0 4 5 5 5 5
100 100 69 81 99 8 6 3 0 88 0 0 0 0 0 4 53 32 20 5 5 5 5 40 5 0 2 49 2 8 31 0 0 0 28 100 100 100 99 9 5 5 4 1 5 5 5 5 5
100 100 90 6 4 1 0 7 2 2 0 0 0 0 0 0 0 5 3 0 3 8 5 5 5 0 8 6 42 96 6 4 3 91 39 100 100 100 33 5 52 48 5 5 5 5 5 5 5
99 90 15 99 41 70 0 0 0 0 2 2 0 0 0 0 0 0 0 0 0 3 5 5 51 15 5 47 100 71 40 39 34 99 99 100 100 100 15 5 5 5 5 9 54 5 7 14 5
14 54 82 91 74 83 4 13 21 59 46 98 5 3 48 7 2 1 0 0 0 0 0 1 7 78 48 97 98 98 43 100 99 58 100 100 100 87 60 65 72 74 85 62 11 5 39 5 5
95 91 90 93 88 100 93 33 100 15 7 27 8 11 61 75 70 22 25 0 0 0 0 15 61 97 100 100 99 97 95 100 72 100 100 100 100 59 73 68 75 96 5 42 5 67 11 5 5
76 57 63 100 97 100 100 89 98 24 96 95 96 65 15 48 100 100 98 0 0 0 24 48 92 100 95 73 45 100 100 82 99 100 100 100 85 98 56 37 7 21 84 26 75 85 5 5 5

GFSSGP_prec_cloud_018.txt.gz
Cloud_Cover
100 100 83 50 26 89 48 6 5 0 0 0 5 0 0 0 12 22 7 5 4 0 6 5 5 0 5 6 5 5 5 2 4 34 4 7 59 24 0 0 0 0 0 0 0 0 0 0 1
94 100 100 82 99 87 92 9 5 5 6 13 5 4 2 0 3 4 4 5 5 5 0 4 0 0 1 1 0 0 0 3 0 0 0 0 0 0 0 0 0 0 0 0 0 0 0 0 0
25 27 98 100 100 100 14 20 85 3 5 5 2 5 3 0 0 0 1 4 5 5 5 5 2 0 2 0 0 0 0 0 4 0 0 0 0 0 0 0 0 0 5 2 0 0 0 0 0
35 5 18 81 100 28 5 5 7 5 5 5 5 5 0 0 0 0 0 0 3 1 5 5 5 3 0 0 4 7 5 4 2 5 5 2 0 1 4 0 0 2 3 5 4 4 5 0 0
69 6 28 97 64 5 5 1 5 2 5 2 1 2 0 0 0 0 0 5 0 3 5 5 5 5 5 0 3 5 42 28 5 6 19 5 5 52 17 2 2 2 16 13 5 5 5 5 4
36 21 8 100 11 3 2 5 0 5 5 2 1 0 1 0 0 0 0 5 5 5 34 5 5 5 5 4 0 5 21 94 99 100 83 32 5 55 31 26 8 27 10 29 14 12 18 35 12
22 18 72 73 72 5 5 0 5 5 5 5 1 2 0 0 0 0 0 5 5 3 8 5 5 5 6 5 1 2 0 71 100 100 100 100 92 62 92 97 87 97 86 100 100 93 63 34 6
21 8 9 100 57 5 5 2 5 0 0 0 5 4 2 13 1 0 0 0 0 1 4 5 0 1 6 0 1 5 5 0 2 40 100 100 100 100 100 100 100 100 100 100 100 100 100 100 100
71 5 60 43 5 5 2 4 5 5 5 3 5 0 0 0 0 0 0 0 0 0 2 0 3 5 38 0 0 5 5 3 3 0 8 100 75 100 100 100 100 100 100 97 100 100 100 100 100
54 23 96 6 3 3 1 4 4 2 0 0 0 0 0 0 0 0 0 0 0 0 0 7 5 0 44 96 0 5 5 5 5 5 5 5 46 92 100 100 100 100 100 100 100 99 100 100 100
100 98 100 70 5 1 5 5 0 4 5 1 0 0 0 0 0 0 0 0 0 0 0 0 42 50 20 100 87 1 5 21 5 42 5 0 4 14 55 49 99 61 70 100 100 100 100 100 100
100 100 100 96 6 8 3 1 5 2 0 0 4 0 0 5 0 0 0 0 0 0 0 0 26 100 99 100 100 5 5 5 5 5 10 11 5 1 5 5 8 39 63 87 100 100 100 100 100
100 100 100 76 46 77 4 2 3 4 12 2 0 0 0 4 0 0 0 0 0 0 0 0 0 20 99 100 100 58 8 18 17 5 5 73 5 5 5 12 27 34 10 30 15 91 69 100 100
100 100 100 100 100 9 5 5 5 9 5 5 1 0 0 0 0 0 0 0 0 0 0 0 0 0 0 92 100 69 67 78 5 45 39 8 5 9 5 6 3 3 66 29 31 15 4 13 97
100 100 100 100 100 65 1 5 5 0 5 5 3 0 0 0 0 0 0 0 0 0 0 0 0 0 0 25 100 100 13 74 73 100 100 81 25 98 6 5 5 5 0 0 1 2 5 5 5
100 100 100 100 100 100 9 5 5 5 4 5 0 0 0 0 0 0 0 0 0 0 0 0 0 0 0 16 98 100 56 99 93 98 72 100 99 83 0 5 5 5 1 2 1 0 0 0 5
100 100 100 100 100 100 80 4 5 10 27 5 0 3 3 5 4 2 0 0 0 0 0 0 0 0 0 0 28 98 37 36 63 75 58 100 100 28 0 2 5 5 5 5 5 0 0 5 5
100 100 100 100 100 100 94 5 5 5 5 6 5 5 18 5 18 5 5 4 2 2 0 0 0 0 0 0 0 45 0 100 100 73 96 92 68 21 0 4 17 3 4 5 5 0 0 5 5
5 78 100 100 100 100 63 5 5 5 5 10 5 10 56 92 23 37 5 5 12 5 4 0 0 0 0 0 0 0 0 92 100 100 100 51 9 10 0 39 39 0 0 0 0 0 0 5 51
14 5 11 5 87 13 50 42 5 10 5 5 69 44 10 5 5 5 5 7 8 100 100 20 4 0 0 0 0 0 0 19 100 100 100 91 21 5 6 77 61 5 1 0 0 0 0 4 5
82 66 5 5 5 87 100 100 100 88 80 96 99 100 100 99 10 5 5 26 30 67 100 100 13 3 4 0 0 20 24 22 78 100 100 63 11 5 14 97 98 45 5 4 0 0 0 1 5
57 94 34 5 5 6 5 6 100 100 100 100 100 100 100 100 77 11 5 4 2 9 64 100 100 55 5 0 3 1 2 0 12 69 100 76 51 16 11 100 98 16 5 5 5 0 0 0 1
100 100 98 23 5 5 8 5 86 100 100 100 47 5 5 5 4 32 5 0 0 1 5 48 94 97 100 38 24 16 0 6 13 100 100 100 93 100 43 100 100 51 5 5 5 52 5 2 0
100 100 100 54 15 45 37 5 71 100 100 100 9 1 0 1 4 3 0 0 0 0 0 5 11 33 5 5 11 10 2 70 61 98 100 100 100 100 60 37 94 76 5 20 5 41 59 5 5
100 100 100 88 96 50 28 7 98 100 100 43 4 5 5 0 0 0 0 5 3 0 0 0 0 71 76 6 20 22 5 4 0 70 100 100 100 100 95 55 100 55 5 5 5 5 48 23 16
100 100 100 60 98 100 100 71 97 100 55 8 0 0 0 0 0 0 0 0 1 5 0 0 0 40 100 63 16 62 90 5 4 31 98 72 83 74 100 100 100 10 5 5 5 5 5 7 37
100 100 100 100 100 100 98 100 99 55 9 3 0 0 0 0 4 2 0 0 0 0 0 0 0 6 98 99 76 100 77 5 5 24 94 100 91 60 100 100 93 5 5 5 20 68 67 8 5
100 100 100 100 100 100 94 32 1 0 5 0 0 4 4 1 0 0 0 0 0 0 0 0 0 0 13 74 100 96 5 81 44 59 39 100 100 100 67 100 46 5 5 5 11 62 45 62 44
92 80 76 84 39 24 5 3 8 3 1 3 7 18 9 91 100 7 6 0 5 0 0 0 0 4 0 100 100 91 99 100 97 99 100 100 100 100 100 100 8 28 55 58 72 88 64 5 5
93 60 42 97 6 42 19 38 61 5 88 99 100 93 82 100 95 8 3 0 5 5 1 0 0 3 77 100 100 100 100 100 100 73 69 100 100 100 100 96 61 100 97 95 59 80 5 5 33

GFSSGP_prec_cloud_021.txt.gz
Cloud_Cover
100 100 100 100 100 57 57 14 5 25 0 0 0 0 0 0 0 2 2 5 5 20 14 2 4 5 0 1 0 3 5 5 5 1 8 12 56 0 0 0 0 0 0 0 4 0 0 0 0
55 100 100 100 100 100 80 6 5 5 7 5 0 0 0 0 0 0 0 5 5 5 6 1 0 0 0 0 0 0 2 2 0 0 10 2 14 0 0 0 0 0 0 0 0 0 0 0 0
5 35 90 100 100 100 100 18 5 5 28 5 4 5 1 0 0 0 0 0 5 5 5 1 2 0 0 0 0 0 0 0 0 0 0 0 0 2 5 1 0 0 0 0 0 0 0 1 4
4 5 6 99 100 100 100 100 50 100 93 4 5 5 5 5 5 5 1 0 0 0 5 0 5 3 4 0 0 0 0 0 0 0 0 0 0 4 2 5 5 5 5 5 1 0 0 0 5
6 2 11 100 100 100 100 100 100 100 100 8 5 5 5 5 5 8 5 5 0 0 1 1 5 5 5 5 1 0 0 0 0 4 5 5 5 2 5 5 5 8 23 6 57 64 2 5 5
8 5 6 98 7 62 100 13 19 54 5 17 5 5 5 8 80 8 12 5 5 0 5 3 5 5 5 5 4 0 0 0 0 0 0 1 5 19 14 11 38 9 27 82 16 12 11 54 40
99 9 96 57 36 5 24 5 4 5 5 5 5 5 5 9 11 19 5 5 5 4 4 12 5 5 5 5 0 0 0 0 0 0 1 0 4 21 61 98 100 100 100 100 89 88 100 84 100
100 5 63 99 100 63 5 0 0 5 5 5 13 5 5 6 4 0 0 1 3 0 0 0 5 0 5 0 3 0 0 0 5 0 0 0 0 4 87 90 100 100 100 100 100 100 100 100 100
98 13 96 100 100 96 3 0 3 13 45 13 12 5 0 5 5 5 4 0 4 1 1 0 0 3 0 6 0 0 0 5 1 5 4 0 0 0 0 33 43 99 95 100 100 100 100 87 100
44 100 100 100 100 100 9 4 0 5 6 5 5 0 0 0 2 0 0 0 1 0 0 0 0 0 0 1 2 0 0 0 5 5 5 5 2 0 0 0 5 5 70 99 93 100 97 99 100
87 100 100 100 92 50 99 9 5 1 23 12 5 4 5 5 0 5 0 0 0 1 0 0 0 0 2 4 0 0 0 0 5 5 5 5 5 5 0 18 1 2 5 16 96 75 93 100 100
100 100 100 100 92 6 100 46 5 0 1 5 5 0 0 0 5 5 0 0 0 0 0 0 0 0 0 3 2 0 0 0 2 5 5 5 5 5 5 11 2 1 0 5 5 5 48 75 60
100 86 100 100 100 79 77 36 5 5 4 1 0 2 0 4 3 0 0 0 0 0 0 0 0 0 0 0 82 59 0 0 2 5 5 5 5 5 5 5 5 0 0 0 2 5 5 5 5
100 100 100 100 100 100 100 98 5 16 9 5 4 5 5 5 6 0 5 0 0 0 0 0 0 0 0 0 11 12 0 0 0 0 1 5 5 5 12 5 81 5 1 0 0 1 3 4 0
100 100 100 100 100 100 100 82 21 87 5 21 14 5 5 5 5 1 0 0 0 0 0 0 0 0 0 0 2 77 18 9 8 4 43 5 1 5 5 5 5 1 3 5 2 0 0 0 0
100 100 100 100 100 100 100 100 100 5 5 5 5 11 48 10 5 8 0 0 0 0 0 0 0 0 0 0 0 69 100 40 9 100 100 98 4 4 6 5 5 5 0 2 4 0 1 2 0
100 100 100 100 100 100 100 100 100 78 15 20 5 5 5 5 5 4 1 0 0 0 0 0 0 0 0 0 0 11 100 90 34 98 100 100 41 68 18 5 4 0 0 0 0 0 5 5 0
82 100 100 100 100 100 100 100 100 100 92 98 18 4 5 7 6 5 2 0 0 0 0 0 0 2 0 0 0 0 100 22 48 99 100 21 22 93 12 3 0 0 0 0 0 0 0 0 0
82 38 100 100 100 100 100 100 100 100 100 100 100 54 5 12 35 5 5 0 1 3 0 0 0 0 5 16 5 0 12 66 100 100 100 79 47 59 47 0 0 0 0 0 0 0 0 0 0
83 5 3 5 100 100 100 100 100 100 100 100 100 100 100 28 5 5 5 5 25 7 5 5 5 1 0 14 85 4 5 2 91 100 100 100 100 72 31 0 0 4 1 2 1 2 4 1 0
7 5 4 2 2 54 100 100 100 100 100 100 100 84 22 5 5 5 5 5 5 5 5 5 4 5 5 5 12 80 89 19 80 92 99 100 97 100 62 0 0 5 39 0 0 2 5 5 4
88 5 5 4 0 2 1 7 99 100 100 98 100 97 30 72 88 95 83 61 5 5 54 29 15 5 0 5 5 6 38 21 5 4 5 72 100 100 100 20 10 79 99 8 0 4 5 5 5
100 68 5 5 5 5 2 1 5 5 62 79 33 88 100 98 98 99 76 48 19 5 6 81 25 5 3 0 5 5 10 99 75 6 5 22 100 100 100 40 20 32 100 94 2 5 5 5 56
99 99 8 5 5 39 3 0 0 92 100 91 5 5 18 5 5 3 0 5 5 4 2 0 5 3 3 2 5 5 5 27 78 13 36 7 90 100 100 100 71 98 99 91 47 5 5 5 5
100 97 34 5 81 26 19 94 20 100 100 100 100 76 10 3 3 5 5 5 5 4 3 1 0 5 0 2 4 5 5 5 5 5 32 5 68 100 100 100 73 76 22 100 10 0 0 5 5
12 5 6 24 54 67 86 67 100 100 100 99 39 34 40 20 5 4 3 5 34 41 33 5 4 0 0 0 0 2 5 4 6 5 94 79 100 100 100 100 100 51 81 100 38 0 5 5 5
5 7 9 53 100 100 100 100 100 100 100 55 8 5 5 5 5 0 0 0 0 0 0 2 5 0 0 0 12 5 5 5 5 31 98 100 100 100 100 100 100 74 100 100 8 44 5 5 5
63 98 100 100 100 100 100 100 100 100 100 58 5 3 4 0 3 3 0 0 0 0 0 0 0 0 0 2 0 3 5 5 5 42 91 100 100 100 100 100 100 98 100 100 76 33 5 5 5
100 100 100 100 100 100 100 100 35 9 5 1 4 5 21 73 99 58 38 4 9 44 0 0 0 0 0 0 1 11 17 5 62 100 77 100 100 100 100 100 100 100 76 100 72 20 19 14 6
100 100 100 85 35 5 13 19 2 1 5 65 99 79 95 100 100 97 100 90 36 5 1 0 0 16 1 2 0 14 92 59 100 100 100 100 100 100 100 100 100 100 100 94 99 75 97 61 72

GFSSGP_prec_cloud_024.txt.gz
Cloud_Cover
100 100 100 96 62 66 96 48 5 5 5 2 0 5 5 5 2 3 4 5 8 20 3 6 5 4 14 5 5 5 5 3 4 6 5 6 5 9 0 0 0 0 0 0 26 17 24 2 0
99 100 100 100 100 100 100 46 26 5 5 5 3 3 3 20 4 0 0 21 5 5 5 5 16 3 2 5 5 4 2 0 0 5 4 34 1 0 0 0 0 0 0 0 5 2 0 0 0
5 97 100 100 100 100 100 100 79 78 5 5 5 5 1 25 0 0 0 12 2 12 5 5 16 2 0 2 4 1 0 0 0 8 2 12 1 0 0 0 0 0 2 5 3 0 0 0 0
5 8 100 100 100 100 100 100 100 100 100 94 38 1 5 4 5 3 0 2 6 15 1 5 5 5 0 1 5 0 0 0 0 0 0 0 0 0 0 0 0 0 2 0 1 5 5 5 1
5 4 5 99 100 86 93 84 100 100 100 64 5 4 5 9 4 4 0 0 2 2 0 1 1 5 5 5 4 0 0 0 0 0 0 0 0 0 0 0 0 1 10 11 8 0 4 5 18
5 5 4 51 72 5 5 6 46 100 100 100 6 5 28 18 72 42 5 4 1 5 1 5 5 4 5 5 5 3 0 0 0 0 0 0 0 11 4 0 0 0 0 7 7 13 62 37 5
7 5 48 100 100 6 47 1 5 15 100 100 77 51 100 100 100 100 79 5 5 5 5 25 12 5 5 5 4 3 0 0 0 0 0 0 0 1 14 0 6 0 4 6 12 63 56 74 95
86 6 81 100 100 100 74 1 3 5 10 99 100 100 100 97 7 93 22 5 5 5 5 20 27 5 5 5 5 0 0 0 0 0 0 5 0 0 0 0 0 0 7 4 0 5 5 5 71
14 6 94 100 100 100 73 4 0 2 5 5 72 99 23 62 37 5 46 21 34 35 33 54 47 22 5 5 4 0 0 0 0 5 4 1 4 0 0 0 0 0 11 2 4 5 50 60 94
17 49 100 100 100 100 28 5 2 0 15 44 5 6 5 5 38 16 20 30 40 30 65 63 45 40 14 4 2 2 3 0 0 2 5 0 5 5 1 0 0 0 0 0 0 1 41 5 27
72 97 100 100 100 100 96 48 5 5 5 70 5 0 2 5 5 5 5 5 59 40 9 33 38 27 11 17 13 19 19 8 2 0 5 5 5 6 15 16 10 6 0 0 0 0 8 10 34
100 100 100 100 100 100 100 98 88 11 8 5 4 0 2 0 5 40 5 5 5 5 5 4 4 19 5 5 18 57 3 6 5 0 1 5 5 8 15 28 15 12 0 0 0 5 10 39 95
100 82 100 100 100 96 100 100 100 99 79 42 41 4 5 3 4 6 7 5 5 5 5 5 2 1 4 4 5 11 5 2 0 0 0 5 2 5 5 11 12 6 5 4 0 0 3 4 5
100 100 98 100 100 100 100 100 100 99 5 5 6 8 3 5 5 2 3 2 5 5 4 2 0 0 0 0 0 0 5 1 0 0 0 0 0 0 5 36 5 5 5 3 0 0 3 0 3
100 100 100 100 100 98 100 100 100 100 98 87 5 6 5 5 5 5 3 4 3 0 0 1 0 5 5 0 0 0 0 0 0 0 0 0 0 4 0 3 5 5 5 5 4 0 0 0 0
100 100 100 100 100 100 37 100 100 100 69 96 93 28 5 26 5 5 5 5 5 5 11 8 41 11 3 5 0 0 0 0 0 0 0 0 0 0 2 3 5 5 5 3 0 0 0 0 0
100 100 100 100 100 100 81 100 100 100 100 100 100 100 81 6 6 7 5 5 2 2 5 29 5 53 10 4 2 5 1 0 0 0 0 0 20 0 3 5 4 4 2 0 0 0 0 0 0
100 100 100 100 100 100 100 100 100 100 100 100 100 100 100 100 74 25 68 16 5 0 0 0 4 5 4 5 9 8 75 54 5 6 15 94 98 66 38 36 33 21 0 0 0 0 0 0 0
84 96 100 100 100 100 100 100 100 100 100 100 100 100 100 100 100 98 83 22 5 5 0 0 0 4 0 2 17 5 5 5 22 42 98 100 100 100 99 94 90 24 0 0 0 0 0 0 0
91 5 66 100 100 100 100 100 100 100 100 100 100 100 100 100 100 100 100 100 7 5 1 0 4 5 5 1 0 4 70 91 29 44 78 100 100 100 100 46 98 6 0 0 0 0 0 0 0
11 10 5 29 86 100 100 100 100 100 100 100 100 100 100 100 100 100 100 100 100 100 97 38 5 5 5 5 11 52 6 99 100 100 89 100 100 100 100 100 81 30 0 0 3 0 0 0 0
8 56 5 5 3 5 19 93 100 100 100 100 100 100 100 100 100 100 100 83 100 100 86 5 4 4 5 5 34 5 13 8 14 6 16 8 83 100 100 100 100 53 19 14 89 16 0 0 0
42 75 71 6 5 5 5 3 87 5 50 100 77 96 100 100 100 100 100 100 75 65 79 100 100 93 42 5 5 53 65 40 17 5 5 5 5 38 97 100 100 100 51 19 73 89 1 0 0
100 100 15 11 7 30 31 2 8 12 36 6 5 5 7 38 41 32 28 10 5 5 5 5 6 26 31 5 12 5 22 84 47 5 12 19 13 5 31 99 100 100 100 60 92 100 74 40 0
100 100 100 35 76 59 46 3 33 9 86 16 5 0 1 2 2 5 5 5 5 5 5 5 5 4 0 0 24 4 5 32 6 5 5 67 80 71 19 30 99 100 100 95 29 51 100 100 0
100 100 91 100 98 11 91 20 95 93 99 47 5 4 3 3 5 5 9 49 93 99 53 5 4 0 0 0 2 9 0 2 15 5 5 5 44 36 45 100 90 100 100 84 67 100 24 100 14
99 87 100 100 75 58 100 100 100 94 7 5 5 5 4 5 5 6 38 85 94 69 56 28 9 5 5 5 2 30 2 0 7 5 5 5 8 90 100 100 85 100 100 100 100 41 100 100 5
99 100 100 100 100 52 98 97 86 2 0 0 10 18 5 10 6 4 5 2 3 4 5 2 0 3 2 4 17 13 0 0 4 5 5 5 16 86 100 100 100 100 100 100 100 74 100 100 31
100 100 99 18 5 58 75 16 11 54 37 19 26 16 5 5 7 8 7 3 5 1 2 11 31 8 0 15 67 6 0 1 0 4 5 8 61 72 100 100 100 100 100 100 100 99 84 100 75
5 5 30 54 27 10 91 94 81 23 18 97 85 6 38 10 8 7 64 97 92 99 18 93 100 100 71 37 6 1 0 0 10 0 47 22 100 100 100 100 100 100 100 100 100 100 100 100 95

GFSSGP_prec_cloud_027.txt.gz
Cloud_Cover
100 98 8 31 100 99 100 48 5 39 71 37 2 1 1 4 5 90 100 6 5 8 13 5 99 100 53 23 16 11 7 2 9 8 9 13 51 6 5 5 1 0 0 94 100 100 82 0 0
100 100 100 72 42 81 81 99 43 33 49 39 11 0 0 0 5 8 24 19 5 5 5 5 100 100 73 19 3 9 4 2 10 12 7 11 2 5 0 1 3 4 3 100 92 48 13 0 0
100 100 100 100 100 100 100 40 9 18 100 100 63 9 6 5 2 5 24 64 98 26 5 5 21 77 9 0 1 5 4 0 15 6 10 17 0 0 0 0 0 0 1 0 0 0 0 0 0
71 100 100 100 100 100 100 57 7 60 37 74 100 53 11 0 0 4 30 46 36 86 7 4 5 5 3 0 5 4 61 6 33 8 18 1 0 0 0 0 0 0 1 0 0 0 0 0 0
5 8 100 100 100 100 100 68 100 99 100 100 66 8 66 95 12 14 40 42 52 22 5 5 2 4 5 0 5 5 0 0 12 0 10 10 0 0 0 0 0 0 2 6 5 0 2 4 0
5 4 19 100 100 99 100 100 100 100 100 100 100 47 99 100 100 49 45 46 36 21 6 4 4 2 5 5 5 5 0 12 1 0 0 0 0 0 0 0 0 0 9 0 6 17 16 9 1
42 27 5 5 100 5 5 22 100 100 100 100 99 75 100 100 100 97 23 3 18 12 18 9 4 5 5 5 5 5 5 0 0 0 0 0 0 0 1 0 0 0 12 0 0 8 1 0 0
100 39 11 33 100 99 4 0 0 93 100 100 100 100 99 100 100 100 89 6 11 19 22 13 6 7 5 5 5 5 5 0 0 0 5 4 0 0 0 0 1 0 0 5 0 2 0 0 0
100 76 86 100 100 100 41 0 0 0 86 100 100 98 66 96 84 96 100 100 68 63 36 57 54 36 29 37 6 36 5 3 0 0 0 5 2 0 0 0 0 0 0 0 0 0 0 0 0
99 26 100 100 100 100 27 2 0 0 2 5 5 5 4 8 70 67 97 100 100 100 74 100 100 56 27 5 5 5 5 5 5 3 0 2 5 2 0 2 2 0 0 0 0 0 0 0 0
100 100 100 100 100 100 10 0 0 0 0 39 67 4 0 0 5 5 5 25 55 87 100 100 100 77 26 26 18 32 48 12 8 1 0 0 12 16 15 23 14 6 1 0 0 0 0 0 0
100 100 100 100 100 100 27 5 5 1 5 5 10 48 1 5 5 5 18 32 45 56 62 100 100 100 45 6 32 8 12 34 24 13 1 1 24 36 31 35 38 24 6 0 5 1 0 0 0
100 100 100 100 100 100 100 85 6 8 5 5 51 42 5 5 27 5 5 5 28 71 58 49 85 86 65 32 48 15 8 94 76 15 5 5 0 31 29 24 25 66 39 5 2 0 0 0 0
100 100 100 100 100 100 100 100 72 99 15 5 5 5 28 5 66 12 9 5 5 3 14 14 49 57 48 45 53 31 4 7 4 4 0 0 0 2 20 23 20 26 5 6 5 2 2 0 0
100 100 100 100 100 100 100 100 100 99 46 5 20 70 100 100 100 100 11 9 5 5 5 6 34 46 38 32 43 5 0 0 0 2 0 0 0 0 4 9 15 5 5 5 5 3 5 0 0
100 100 100 100 100 100 100 100 100 100 80 13 6 88 100 100 100 100 99 9 5 5 33 16 5 34 38 25 38 5 6 5 2 0 0 0 0 0 2 0 4 67 4 3 5 0 4 0 0
100 100 100 100 100 100 100 100 100 100 100 85 100 100 100 100 100 100 100 93 5 5 28 43 12 18 14 11 11 20 20 7 5 2 0 0 1 0 0 3 4 2 4 4 4 0 0 0 0
100 100 100 100 100 100 100 100 100 100 100 100 100 100 100 100 100 100 100 100 36 5 5 5 8 5 5 2 24 12 4 60 14 5 5 5 5 5 5 24 5 5 5 16 3 0 0 0 0
100 100 100 100 100 100 100 100 100 100 100 100 100 100 100 100 100 100 100 100 100 53 5 5 5 5 15 40 94 93 26 1 5 3 22 6 7 94 100 100 100 100 100 99 1 0 4 0 0
100 100 100 100 100 100 100 100 100 100 100 100 100 100 100 100 100 100 100 100 100 100 35 11 5 24 91 44 20 5 5 5 4 3 41 100 97 92 95 100 100 99 100 91 5 6 5 5 0
98 98 100 100 100 99 100 100 100 100 100 100 100 100 100 100 100 100 100 100 100 100 100 100 56 21 14 28 25 74 77 61 76 25 43 100 10 45 100 100 100 96 74 65 25 5 8 4 3
94 31 8 99 100 100 100 100 100 100 100 100 100 100 100 100 100 100 91 76 94 100 100 100 100 100 94 78 99 100 78 19 5 5 6 51 41 79 94 100 100 100 100 100 54 24 6 5 2
100 100 37 11 5 9 78 48 100 100 100 100 100 100 100 100 100 100 100 99 67 60 48 50 88 95 98 43 83 72 23 5 22 26 5 6 78 55 47 100 100 100 100 86 100 100 7 5 5
100 100 87 5 12 20 5 4 66 100 11 55 100 99 100 98 89 59 94 100 91 96 86 54 71 66 25 5 12 25 5 7 29 46 17 45 42 52 91 95 94 100 100 100 96 100 92 28 67
100 100 59 47 8 87 83 10 100 99 100 90 6 2 0 2 5 5 5 5 5 4 4 4 4 5 12 12 24 41 6 24 65 75 56 12 5 5 5 26 99 43 49 94 95 100 100 100 86
100 97 67 97 99 54 35 37 100 100 85 98 51 11 2 0 0 0 0 0 0 2 0 0 0 0 4 5 14 20 36 6 21 5 5 5 13 11 5 5 5 5 83 100 82 100 100 100 100
100 100 100 100 100 100 100 100 100 100 14 2 3 4 5 14 15 11 5 1 1 13 27 18 10 5 5 5 5 7 50 81 63 100 90 70 15 33 18 4 5 59 100 100 100 100 100 100 100
89 100 100 89 100 97 97 100 100 40 4 4 2 4 6 4 4 12 0 0 0 1 3 18 62 95 100 61 18 6 71 33 38 99 100 100 100 92 43 5 5 77 100 100 100 100 100 100 100
98 100 100 72 35 85 100 99 13 8 63 67 42 12 4 1 0 0 4 4 0 3 4 5 17 5 4 8 19 43 57 38 15 5 5 9 92 100 96 5 15 79 100 100 100 100 100 100 100
100 100 100 100 91 100 100 100 80 45 52 67 56 6 92 98 78 3 5 3 1 5 24 76 100 97 50 8 26 100 55 33 43 47 6 7 63 99 99 100 96 100 100 100 100 100 100 100 100

GFSSGP_prec_cloud_030.txt.gz
Cloud_Cover
100 99 27 22 52 45 67 28 42 86 37 10 0 4 5 3 5 11 4 0 5 5 5 22 93 86 100 72 93 19 0 41 38 14 72 28 5 5 5 5 5 5 5 100 100 100 58 0 0
100 100 85 6 55 100 58 50 48 10 72 100 14 4 5 7 5 37 21 22 0 2 5 59 100 100 100 48 2 3 3 69 8 13 15 9 5 5 5 4 3 5 88 100 97 73 6 0 0
100 100 100 80 83 100 59 37 96 32 6 23 66 5 5 6 7 5 5 6 9 5 5 5 100 100 100 9 2 0 0 23 26 12 13 7 0 0 0 0 0 1 13 17 2 0 0 0 0
99 100 100 100 100 100 25 5 6 21 5 5 32 41 53 75 37 5 14 24 10 10 5 19 100 100 78 70 5 5 2 2 87 12 13 0 0 0 0 0 0 0 3 0 0 0 0 0 0
5 91 100 100 100 100 100 25 28 51 60 11 9 5 5 8 24 100 100 94 70 29 5 20 30 56 5 53 30 5 45 4 20 22 21 20 18 0 0 0 0 4 0 0 0 0 2 5 16
5 3 99 100 100 100 100 98 100 57 76 57 7 5 3 5 37 100 100 100 92 21 6 4 6 5 5 5 5 4 41 61 10 8 14 15 0 0 0 0 0 15 10 0 6 4 3 7 0
5 5 10 100 100 100 100 100 100 100 100 100 78 70 66 5 28 100 100 76 39 21 22 5 5 5 5 5 5 5 5 5 1 0 0 5 1 1 0 0 0 0 0 0 0 26 1 0 0
5 10 9 30 100 100 100 100 100 100 100 100 100 100 100 100 100 100 95 74 47 39 26 13 11 5 4 4 5 5 5 5 0 0 0 5 4 1 0 0 0 0 0 4 36 0 0 0 0
5 5 56 100 100 100 40 68 100 100 100 100 100 100 100 100 100 100 100 100 99 91 69 45 35 23 8 5 5 38 18 64 5 3 0 5 4 39 0 1 0 1 1 0 0 0 0 0 0
62 29 92 100 100 100 34 5 9 78 100 100 100 100 100 100 100 100 100 100 100 100 100 83 84 48 26 36 38 99 80 51 5 5 5 0 2 5 5 5 5 5 10 0 0 0 0 0 0
100 100 100 100 100 100 30 5 0 2 5 27 80 64 27 8 100 100 100 100 100 100 100 100 100 97 42 37 34 40 100 80 11 32 40 0 25 19 15 19 16 6 5 5 0 0 0 0 0
100 100 100 100 100 100 42 5 5 0 5 5 25 5 5 0 0 41 88 100 100 100 100 100 100 100 82 50 33 19 17 23 82 100 97 10 39 34 31 35 26 24 13 22 5 5 0 0 0
100 100 100 100 100 100 98 30 5 14 6 5 13 5 11 4 0 0 5 7 60 100 100 100 100 100 100 51 63 26 8 9 63 64 74 94 34 44 37 33 30 26 7 5 14 5 5 0 0
100 100 100 100 100 100 100 89 11 90 5 5 5 5 4 31 6 16 59 37 12 43 73 100 100 100 100 100 100 47 4 10 15 20 7 9 4 30 40 38 34 44 7 1 5 5 5 2 3
100 100 100 100 100 100 100 100 100 91 5 5 5 5 36 68 83 100 100 100 98 90 8 21 61 100 100 100 100 66 21 6 5 5 10 5 0 1 22 29 32 26 5 5 5 5 5 5 0
100 100 100 100 100 100 100 100 100 100 100 87 10 38 48 100 100 100 100 100 100 71 26 8 20 89 100 100 98 91 24 5 5 5 5 5 4 5 6 19 19 2 5 4 5 5 5 3 0
100 100 100 100 100 75 75 100 100 100 100 100 100 67 100 100 100 100 100 100 100 100 100 75 8 21 73 100 74 74 38 35 7 9 19 5 5 5 34 9 6 2 2 5 6 5 0 0 0
100 100 100 100 100 84 6 36 100 100 100 100 100 100 100 100 100 100 100 100 100 100 100 100 96 23 33 60 97 100 79 39 9 6 38 8 5 36 5 5 1 1 4 1 0 6 5 5 5
100 100 100 100 100 100 100 100 100 100 100 100 100 100 100 100 100 100 100 100 100 100 100 100 100 100 100 100 100 100 100 96 44 60 75 53 12 5 5 5 5 27 16 18 100 99 8 5 5
100 100 100 100 100 100 100 100 100 100 100 100 100 100 100 100 100 100 93 67 100 100 100 100 100 98 100 100 100 84 82 98 44 49 52 5 5 20 5 5 12 100 100 100 100 100 5 5 5
100 100 100 100 100 100 100 100 100 100 100 100 100 100 100 100 100 93 100 100 100 100 100 100 100 100 100 100 100 100 100 79 96 74 100 21 5 41 5 5 48 67 100 71 99 100 48 5 9
100 100 100 100 100 100 100 100 100 100 100 100 100 100 100 100 100 98 81 22 24 100 100 100 100 100 100 100 100 100 100 100 98 100 47 49 26 28 13 13 88 61 99 98 100 100 98 27 64
100 100 51 91 100 100 100 100 100 100 100 100 100 100 100 100 100 87 6 6 8 8 75 93 100 100 100 98 49 53 84 100 100 100 100 99 94 100 92 76 84 99 100 100 100 100 100 100 96
100 100 100 63 100 100 100 100 100 100 100 100 100 100 95 71 60 95 100 48 13 22 91 100 100 100 100 95 82 78 66 90 94 100 100 70 27 97 100 95 60 53 96 100 100 100 100 100 100
100 99 100 94 30 63 100 100 100 100 100 91 36 49 55 93 70 55 89 94 68 28 5 5 6 62 58 61 53 17 46 61 71 48 62 75 89 100 100 100 100 100 100 100 100 100 100 100 100
100 100 76 66 100 90 100 92 64 46 5 5 6 7 9 8 9 6 5 4 0 1 2 2 5 5 1 0 0 2 41 51 27 5 3 10 10 57 10 19 64 100 100 100 100 100 100 100 100
100 100 34 95 62 19 86 100 100 5 9 8 6 5 8 5 1 0 0 0 0 0 0 0 3 0 0 0 0 0 12 96 40 4 0 5 13 22 100 100 100 100 100 100 100 100 100 100 100
100 100 62 42 92 81 100 100 19 5 5 14 86 11 5 21 43 16 3 3 5 3 0 0 0 0 0 0 0 0 0 66 43 32 13 12 93 100 100 100 100 87 100 100 100 100 100 100 100
100 100 90 100 100 100 100 100 33 5 34 47 20 7 33 24 5 16 5 3 4 1 0 0 0 0 0 0 0 0 18 98 99 64 43 53 100 100 100 100 100 100 100 100 100 100 100 100 100
100 100 99 100 100 100 98 93 89 81 7 5 98 12 5 19 26 5 5 1 4 0 0 0 0 5 2 5 67 99 100 100 100 100 100 99 88 77 100 100 100 100 100 100 100 100 100 100 100

GFSSGP_prec_cloud_033.txt.gz
Cloud_Cover
100 22 5 5 95 100 14 12 14 8 33 97 9 93 75 5 5 5 2 8 0 0 3 96 100 100 100 68 55 73 4 10 41 37 36 48 11 1 0 0 0 0 32 97 99 100 0 0 0
100 80 16 5 5 81 96 8 5 92 59 30 5 53 100 62 42 63 17 22 0 0 4 0 100 100 91 97 17 12 11 71 45 2 9 32 0 0 0 0 0 0 1 100 100 33 9 0 0
100 99 82 58 11 17 24 35 48 9 15 5 5 52 100 100 74 40 5 31 13 3 0 0 100 100 88 4 81 2 1 38 65 10 5 15 0 0 0 0 4 15 56 16 12 2 0 0 0
26 100 98 67 100 9 5 5 37 35 47 20 5 10 98 100 100 50 5 29 22 10 5 3 100 100 100 5 5 5 5 36 100 24 0 0 0 0 0 0 0 0 0 0 0 0 0 0 1
5 16 100 100 100 80 5 5 19 5 22 5 5 5 12 61 73 100 76 27 9 12 3 13 100 100 48 5 5 5 5 52 100 55 4 0 0 0 2 4 2 3 0 0 0 1 0 8 18
5 5 38 100 100 100 18 5 22 5 5 5 28 83 57 5 16 100 100 72 38 20 15 70 99 34 6 5 3 2 0 0 96 11 8 16 6 0 0 0 9 3 3 1 2 3 8 0 0
4 5 88 100 100 100 94 6 11 10 5 12 10 12 9 5 30 100 100 100 92 37 31 19 20 5 5 5 4 3 79 47 61 47 5 5 5 1 2 4 12 8 10 4 5 22 0 0 0
8 5 12 100 100 100 100 63 100 100 50 7 24 51 6 5 89 100 100 100 71 51 20 8 9 9 8 5 12 5 5 22 5 0 0 0 0 2 1 0 0 0 2 1 16 0 0 0 0
58 5 40 100 100 100 100 38 81 100 100 100 100 100 91 34 100 100 100 100 100 90 62 47 35 18 5 5 5 5 5 7 92 5 1 30 4 5 5 3 0 1 8 39 0 0 0 0 0
36 5 93 100 100 100 16 98 100 100 100 100 100 100 100 100 100 100 100 100 100 100 100 100 99 72 66 40 39 5 76 49 84 55 4 5 4 5 4 5 5 3 6 5 3 0 0 0 0
87 92 100 100 100 100 88 4 54 100 100 100 100 100 100 100 100 100 100 100 100 100 100 100 100 100 100 99 67 27 72 91 99 85 8 19 5 5 31 17 32 5 9 5 5 5 5 0 0
100 72 97 100 100 100 100 6 5 51 93 100 100 100 100 100 100 100 100 100 100 100 100 100 100 100 100 59 8 5 97 98 77 100 66 63 83 27 51 46 42 25 11 5 5 5 5 5 5
100 100 100 100 100 100 100 83 6 35 5 22 79 87 100 50 73 97 100 100 100 100 100 100 100 100 100 100 65 23 37 76 87 84 71 13 41 52 61 58 48 39 9 5 5 4 5 5 5
100 100 100 100 100 100 100 100 37 100 10 35 18 6 5 45 78 45 5 13 21 11 50 100 100 100 100 100 100 60 13 17 62 6 23 5 5 53 56 58 50 36 5 5 5 3 5 5 5
100 100 100 100 100 100 100 100 94 68 14 5 5 5 42 79 18 33 5 5 22 5 2 4 52 100 100 100 100 100 48 3 2 0 2 4 5 48 46 56 55 18 0 2 5 5 5 5 5
100 100 100 100 100 100 100 100 100 37 49 62 35 63 100 100 100 100 100 70 5 5 5 0 34 94 100 100 100 100 100 31 32 18 2 5 5 5 5 45 39 9 5 4 5 5 4 5 5
100 100 100 100 100 100 100 100 100 100 100 100 100 74 92 100 84 100 98 7 5 8 5 5 5 24 86 100 100 100 100 82 31 97 50 38 10 8 19 23 22 6 0 0 2 4 4 5 4
100 100 100 100 100 100 100 100 100 100 100 100 100 85 38 100 98 37 86 72 73 84 75 55 21 13 28 91 100 100 100 100 95 47 84 95 69 41 74 74 95 8 3 3 5 5 4 5 5
100 100 100 100 72 100 100 100 100 100 100 100 100 100 60 96 100 94 99 100 100 100 100 100 100 100 100 86 100 100 100 100 100 92 18 79 100 92 67 5 13 5 5 5 5 5 36 71 5
100 100 100 100 95 33 32 92 100 100 100 96 100 99 78 27 85 98 100 100 81 87 97 100 100 100 100 100 100 100 100 100 100 100 84 45 25 30 36 49 76 77 68 46 61 19 94 100 12
100 100 100 100 100 99 48 90 100 100 94 5 12 65 94 56 25 48 99 53 92 100 100 100 100 100 100 100 100 100 100 100 100 100 100 100 87 52 19 18 85 98 81 98 99 100 100 100 99
100 100 100 100 100 100 100 100 100 100 96 60 89 86 100 100 100 100 63 21 61 99 100 100 100 100 100 100 100 100 100 100 100 100 100 100 100 97 99 95 99 100 100 100 100 100 100 100 100
100 100 100 100 100 100 100 100 100 100 100 100 100 98 86 78 100 100 100 99 99 98 99 100 100 100 100 100 100 100 100 100 100 100 100 100 100 100 100 80 99 100 100 100 100 100 100 100 100
100 100 100 100 100 100 100 100 100 100 100 100 100 100 100 100 100 100 100 100 34 5 5 9 92 83 47 40 72 61 81 95 100 100 100 100 100 100 100 100 100 100 85 100 100 100 100 100 100
100 99 83 90 100 100 100 100 100 100 100 100 100 100 100 100 99 66 100 100 78 13 8 8 14 34 61 64 62 81 58 91 81 100 100 100 100 100 100 94 59 75 95 97 100 100 100 100 100
100 100 86 89 55 98 100 100 100 100 100 100 98 100 100 100 99 60 92 95 66 31 21 6 5 5 5 3 3 2 5 16 100 73 19 55 97 83 34 31 25 7 8 36 98 100 100 100 100
94 78 98 96 100 100 100 100 100 100 94 86 98 100 58 10 50 71 75 85 54 5 5 5 4 3 1 0 0 0 0 0 2 100 98 66 31 14 14 17 29 31 32 19 94 100 100 100 100
98 49 19 100 99 75 68 11 52 43 5 5 7 25 65 68 9 5 4 4 2 0 0 0 0 0 0 0 0 0 0 0 2 100 100 74 48 34 17 5 35 67 93 98 88 100 100 100 100
90 14 42 84 100 60 98 45 9 26 85 61 51 100 96 13 5 5 3 2 2 0 0 0 0 0 0 0 0 0 0 49 81 100 100 100 96 99 98 94 63 46 96 100 100 100 100 100 100
100 100 100 100 100 100 25 5 30 28 36 21 73 69 77 71 98 9 5 3 3 4 1 0 0 0 0 0 0 1 8 49 100 100 100 100 100 100 100 100 100 100 100 100 100 100 100 100 100

GFSSGP_prec_cloud_036.txt.gz
Cloud_Cover
5 5 5 5 53 56 100 12 0 0 5 5 5 61 22 14 4 5 0 0 0 0 0 0 86 84 17 0 99 5 0 0 84 12 78 92 23 0 0 0 0 22 30 92 63 22 0 0 0
36 5 5 4 2 89 61 72 2 1 0 5 13 89 57 24 5 5 0 0 0 0 3 5 80 37 3 8 82 0 28 72 90 50 0 4 2 0 0 0 2 30 66 99 100 3 0 0 0
56 40 9 4 5 54 100 16 81 5 2 0 6 100 100 76 5 5 4 0 0 0 0 4 99 100 100 85 17 0 74 100 64 2 6 0 0 0 0 2 2 24 26 78 43 0 2 0 0
85 67 64 66 42 5 6 5 32 5 5 5 24 53 100 100 42 5 5 5 0 0 0 2 100 100 100 100 96 46 97 100 100 7 2 0 3 0 4 15 0 0 0 0 0 0 0 0 4
99 69 96 94 100 5 5 5 40 14 63 56 5 85 100 100 100 77 9 24 7 5 1 4 100 100 91 91 5 81 52 49 99 0 0 0 1 5 5 5 5 3 1 2 5 5 5 6 4
59 77 92 100 100 50 5 1 10 6 48 34 13 53 100 100 77 76 100 95 94 27 5 5 100 100 93 0 5 0 1 41 98 79 0 0 0 0 0 0 3 4 4 5 6 6 4 3 0
48 100 99 100 100 99 8 0 4 5 6 86 53 18 37 35 40 88 100 88 59 39 69 35 93 77 64 9 5 4 0 1 100 100 4 0 0 0 0 0 1 2 1 1 25 8 0 0 0
5 81 96 100 100 100 100 51 5 5 5 5 11 7 7 5 18 100 100 92 21 18 5 5 7 29 5 5 5 5 87 2 89 100 56 8 4 3 1 0 0 0 4 2 20 5 0 0 0
52 21 100 100 100 100 100 100 100 67 45 5 5 5 5 5 89 100 100 100 34 41 68 55 10 20 5 5 8 5 10 12 66 5 23 70 0 0 0 0 0 0 0 11 0 0 0 0 0
70 5 100 100 100 100 100 100 100 100 100 94 31 5 5 5 100 100 100 100 100 100 72 7 5 5 5 5 5 5 5 5 5 6 20 11 2 5 5 0 0 0 0 5 5 5 3 2 0
89 56 83 100 100 100 44 9 100 100 100 100 100 100 45 11 65 100 100 100 100 100 100 91 23 27 47 49 83 64 100 100 100 100 94 88 18 15 20 5 1 3 21 23 3 5 5 5 5
100 100 82 100 100 100 99 34 43 99 100 100 100 100 100 100 100 92 100 100 100 100 100 100 100 44 77 96 100 97 51 63 99 77 100 94 40 99 59 74 67 11 3 4 5 1 5 5 5
100 100 100 100 100 100 51 14 5 19 56 100 100 100 100 100 100 90 76 72 31 79 100 100 100 74 91 71 60 87 65 73 91 62 78 25 12 46 41 100 100 99 13 0 5 2 4 0 2
100 100 100 100 100 100 81 25 38 18 5 17 60 100 100 100 100 100 100 95 100 99 58 94 100 100 100 100 95 22 30 6 3 78 22 84 5 5 14 74 100 100 37 0 0 5 5 5 4
100 100 100 100 100 100 100 97 100 28 5 5 44 44 58 100 100 100 100 100 87 72 93 88 56 50 97 96 100 99 41 13 3 2 29 57 23 5 6 41 100 100 73 10 2 0 1 5 5
100 100 100 100 100 100 100 100 92 39 14 5 69 50 27 17 6 5 5 5 5 6 52 80 92 58 39 100 100 100 100 49 36 18 5 6 6 5 5 14 97 78 63 7 5 5 5 5 5
100 100 100 100 100 100 100 100 96 63 81 62 98 100 100 100 98 68 5 3 5 5 5 5 4 3 5 26 100 100 100 100 27 36 15 5 25 5 5 10 39 99 72 5 6 5 6 58 43
100 100 100 100 100 100 100 100 100 100 100 100 100 77 100 100 99 22 76 100 99 22 5 3 3 4 5 4 100 100 100 100 100 61 58 31 35 39 18 65 36 31 51 6 31 70 52 29 72
100 100 100 100 100 100 100 100 100 100 100 100 100 100 100 94 98 74 100 100 95 5 78 100 16 5 5 5 97 100 100 100 100 100 55 67 81 99 100 41 5 5 27 21 47 97 97 98 100
100 100 100 100 100 100 100 100 100 100 100 100 100 100 100 99 61 49 54 100 99 100 100 100 100 100 100 90 21 7 70 100 100 100 100 100 100 99 47 98 83 48 76 57 86 95 72 98 90
100 100 100 100 100 100 100 100 100 100 100 100 100 100 45 15 11 11 32 45 19 76 100 100 100 100 100 100 100 97 60 100 100 100 100 94 60 94 100 96 99 80 66 90 98 100 99 56 84
100 100 100 100 100 100 81 81 100 100 100 100 100 100 97 30 5 6 13 42 19 15 82 100 100 100 100 100 100 100 100 100 98 50 62 74 100 97 96 98 100 100 100 100 100 100 88 56 100
89 100 100 100 100 100 100 100 100 94 100 100 100 88 99 100 62 5 5 7 21 48 8 85 100 100 100 100 100 100 100 100 100 100 100 100 99 100 100 100 100 100 100 100 100 100 100 100 100
97 100 100 100 100 100 100 100 100 64 20 57 18 28 20 9 10 17 24 19 14 6 23 47 98 100 100 98 70 62 79 74 85 100 100 100 100 100 100 100 100 82 100 100 100 100 100 100 100
99 100 100 100 100 100 100 100 100 91 88 66 24 13 33 95 100 100 99 61 5 5 5 20 57 92 87 53 11 5 14 38 66 55 71 94 100 100 100 100 100 100 83 82 99 94 99 100 100
100 99 100 100 100 100 100 100 100 100 100 100 100 100 100 100 100 100 100 97 55 50 46 53 45 31 8 5 5 5 5 6 23 34 10 10 8 28 72 100 100 100 98 84 75 50 99 100 100
100 100 100 100 100 100 100 100 100 100 100 100 100 100 100 100 100 100 100 49 38 77 35 5 5 7 5 5 0 3 0 1 0 2 0 15 0 5 21 100 100 100 100 100 100 88 100 100 100
100 100 100 100 98 100 100 100 100 100 100 100 100 100 100 100 100 100 61 26 45 24 33 23 7 5 3 2 0 0 0 0 0 0 2 52 3 43 100 100 100 98 100 100 100 100 100 100 100
100 100 100 100 100 100 100 93 100 100 100 100 100 100 100 100 100 98 14 5 22 58 13 5 1 0 0 0 0 0 0 0 0 14 100 100 100 100 100 100 100 100 100 100 100 100 100 100 100
100 100 100 100 100 100 100 99 100 100 100 100 100 100 100 99 44 38 17 8 28 21 6 0 0 0 0 0 0 0 0 0 2 99 100 100 100 100 100 100 100 100 100 100 100 100 100 100 100

GFSSGP_prec_cloud_039.txt.gz
Cloud_Cover
5 5 5 44 85 98 5 5 0 1 10 15 3 0 0 0 3 4 2 0 0 0 0 0 27 28 6 0 42 0 0 2 100 54 81 15 7 0 0 0 8 7 8 30 37 0 0 0 0
65 5 5 5 83 100 13 5 0 1 6 5 5 5 3 1 0 0 0 3 0 0 0 0 2 74 0 0 44 0 6 74 92 66 1 0 0 0 0 0 18 72 52 98 85 0 0 0 0
100 95 5 5 40 100 83 6 5 8 2 5 5 5 4 5 3 0 0 4 5 4 1 0 79 0 0 0 4 32 100 100 97 54 0 0 0 0 0 0 36 27 92 100 32 0 0 0 1
100 100 37 5 87 100 100 100 51 93 5 5 5 5 5 5 1 4 1 0 0 4 4 2 2 12 20 100 15 81 100 100 100 9 0 0 0 0 0 0 0 0 0 0 0 0 0 0 7
100 100 32 10 7 34 5 91 100 14 100 55 40 5 5 5 4 6 5 0 0 0 0 8 96 100 100 100 87 74 56 100 100 1 0 0 0 1 0 0 0 0 0 0 0 0 0 3 0
98 100 98 82 96 5 5 5 5 5 7 93 54 37 14 5 5 36 91 76 4 0 7 20 100 100 89 100 66 14 28 88 100 78 0 0 0 0 0 0 0 0 0 0 2 13 0 0 4
100 100 100 100 100 97 5 3 5 5 6 14 14 66 40 14 5 5 70 100 100 29 5 10 52 100 100 6 11 5 5 9 100 100 12 0 0 0 0 1 0 0 4 8 20 0 0 0 0
96 100 100 100 100 100 88 3 0 2 4 6 24 5 33 73 37 5 5 16 11 79 99 91 92 97 96 62 11 5 5 5 100 100 21 1 0 0 0 0 0 0 0 2 1 0 0 0 0
59 96 100 100 100 100 93 5 2 5 4 5 9 9 89 7 6 92 86 81 50 22 13 10 14 5 5 5 8 5 16 5 52 100 100 7 0 0 0 0 1 2 1 17 0 0 1 4 0
98 100 98 100 100 100 100 97 5 5 31 2 0 3 6 5 5 100 100 76 41 17 31 31 6 5 18 22 40 5 5 24 23 100 36 10 5 5 42 27 5 3 4 9 13 5 3 3 5
100 78 100 100 100 100 100 82 62 76 89 43 5 5 5 5 5 5 79 39 100 100 48 58 88 53 6 5 6 5 5 5 11 10 14 44 95 100 72 25 35 25 47 26 15 4 2 2 5
100 100 100 100 100 100 100 96 99 100 100 65 36 51 5 5 5 5 5 5 5 85 100 100 51 18 10 2 5 5 15 42 70 99 100 84 47 66 53 23 7 5 5 19 0 0 0 0 2
100 100 100 100 100 100 97 99 100 100 100 100 100 100 100 54 11 6 5 13 5 8 85 100 93 22 24 12 60 80 99 100 100 97 98 88 29 51 76 59 61 20 21 4 1 0 3 5 4
100 100 100 100 100 100 100 57 99 100 100 100 100 100 100 100 100 100 100 100 92 83 87 86 100 88 60 97 96 83 84 88 73 70 48 40 11 15 24 59 100 100 10 24 5 2 0 5 4
100 100 100 100 100 100 100 100 30 33 100 100 100 100 100 100 100 100 100 100 100 100 100 100 76 98 92 99 99 72 61 46 33 30 5 44 9 12 21 62 70 100 100 25 7 5 3 0 1
100 100 100 100 100 100 100 100 100 18 73 100 100 100 100 100 99 100 77 40 94 95 97 100 100 100 100 100 77 100 61 56 25 23 45 14 1 5 5 13 5 87 100 86 38 5 5 5 5
88 100 100 100 100 100 100 100 100 98 26 55 18 20 73 63 49 10 5 44 61 99 100 100 100 100 100 96 70 100 100 91 13 51 26 31 34 5 5 5 5 9 77 100 23 5 5 58 42
100 100 100 100 100 100 100 100 100 100 100 67 14 51 94 100 63 6 5 5 5 4 10 36 38 93 35 5 15 52 100 100 100 16 25 29 14 15 24 27 5 65 29 91 41 5 5 13 7
100 100 100 100 100 100 100 100 100 100 100 100 85 45 92 100 99 36 33 42 39 3 5 5 5 5 48 5 1 5 5 75 100 100 5 85 78 58 40 31 12 11 81 100 98 78 53 90 39
90 100 100 100 100 100 100 100 100 100 100 100 100 100 82 47 94 98 12 37 21 26 25 41 94 6 5 5 72 50 25 52 100 100 100 13 5 33 67 100 98 100 100 92 89 50 80 91 66
100 100 100 100 100 100 100 100 100 100 100 100 100 100 100 100 100 100 100 100 100 100 100 100 96 55 7 8 22 12 5 1 5 42 100 100 66 38 97 84 68 78 93 73 35 73 58 18 44
100 100 100 100 100 100 100 100 100 100 100 100 100 100 100 100 100 100 100 100 100 100 100 100 100 99 61 24 5 5 5 5 60 86 46 13 26 10 80 100 100 100 99 100 100 100 100 100 100
100 100 100 100 100 100 100 100 100 100 100 100 86 98 90 88 86 18 99 100 98 91 86 89 100 100 100 72 100 82 62 96 100 97 91 76 51 35 54 100 100 100 100 100 100 100 100 100 100
43 100 100 100 100 100 100 100 48 96 94 100 100 71 42 34 5 33 83 96 99 100 100 100 98 95 70 56 98 100 93 100 100 100 99 75 35 53 90 100 100 100 100 100 75 74 93 100 100
100 100 100 100 100 100 100 100 100 92 80 75 53 51 86 92 67 99 88 51 85 96 67 28 8 11 16 88 100 100 100 100 87 47 47 40 46 34 89 84 100 100 100 100 100 100 73 24 74
100 100 100 100 100 100 100 100 100 100 100 74 17 16 10 26 62 59 37 26 58 43 8 28 83 92 48 27 80 30 6 5 3 5 89 90 22 59 68 12 62 100 100 100 100 100 100 100 52
74 99 86 100 100 100 100 100 100 100 100 93 49 25 86 60 58 71 14 66 83 100 100 85 43 33 15 10 6 5 5 5 22 98 87 52 12 0 0 57 36 100 100 100 100 100 100 100 100
100 97 98 100 76 100 100 100 100 100 100 100 100 99 96 95 98 98 100 100 100 100 96 100 90 56 8 27 8 5 85 67 2 1 0 0 0 5 37 64 94 100 100 100 100 100 100 100 100
100 100 100 100 87 97 100 100 100 100 100 100 100 100 100 100 100 100 100 100 100 100 93 39 10 5 5 5 5 5 5 5 2 0 6 69 92 93 86 100 100 100 100 100 100 100 100 100 100
100 100 100 100 100 100 100 100 100 100 100 100 100 100 100 100 100 100 100 100 100 100 74 11 10 5 5 72 11 1 0 3 33 34 58 100 100 100 100 100 100 99 100 100 100 100 100 100 100

GFSSGP_prec_cloud_042.txt.gz
Cloud_Cover
100 98 5 0 0 54 8 5 6 0 4 6 0 0 0 0 0 3 0 2 0 0 0 0 0 0 0 0 0 0 71 52 100 58 79 0 0 0 0 2 4 0 92 88 4 0 0 0 0
100 100 13 0 0 4 45 5 5 0 40 18 0 0 0 4 0 0 0 0 0 0 0 0 4 0 0 0 0 0 64 68 100 47 18 0 0 0 0 24 92 32 34 56 0 0 0 0 0
99 100 89 5 0 2 39 9 5 5 9 5 3 0 0 50 0 0 0 0 0 0 0 0 22 0 0 0 0 1 58 89 100 20 0 0 0 0 0 78 83 74 100 59 0 0 0 0 0
100 100 100 6 4 5 16 56 8 18 5 5 5 1 0 5 0 0 0 0 0 0 0 0 59 0 32 2 0 31 93 97 100 52 0 0 0 0 2 25 14 0 0 0 0 0 0 0 0
100 100 100 100 17 62 5 86 92 56 5 5 3 4 3 5 4 0 0 0 0 2 5 5 4 24 66 38 0 23 100 97 100 0 0 0 0 0 10 2 0 0 0 0 0 0 0 0 0
100 100 100 100 100 100 71 75 39 65 6 5 0 4 1 4 0 1 0 0 1 3 5 5 12 87 82 100 91 53 66 100 99 79 0 0 10 0 0 0 1 0 0 0 3 1 0 0 0
100 100 97 100 100 100 99 82 6 70 53 14 0 5 2 5 0 0 0 0 5 5 4 11 95 100 99 100 100 100 4 39 100 91 3 5 5 4 5 5 0 0 0 5 4 0 0 0 0
100 100 100 100 100 100 100 92 5 18 100 9 6 5 42 29 5 5 12 0 0 0 12 95 87 48 9 2 6 37 100 100 100 100 60 56 9 5 5 0 2 4 0 3 0 5 3 5 5
100 100 100 100 100 100 100 87 46 5 82 100 99 5 97 100 97 17 4 1 17 0 1 92 100 93 95 100 94 29 12 56 48 100 56 5 5 5 4 1 4 4 0 5 5 29 5 5 5
100 98 92 100 100 100 100 98 36 5 7 100 73 100 100 96 73 100 76 5 10 0 0 2 10 8 5 5 5 5 3 5 5 26 14 7 5 5 2 3 5 5 5 5 5 5 5 8 6
100 100 100 100 100 100 100 100 100 29 5 88 66 5 36 100 6 6 46 83 50 20 37 14 5 5 5 11 9 6 53 37 25 5 6 5 5 1 4 5 5 7 6 5 5 41 6 1 5
100 100 100 100 100 100 100 100 100 100 53 7 5 62 94 5 8 13 65 81 92 60 62 39 38 30 18 5 5 5 5 6 73 16 5 5 4 5 5 5 5 7 6 5 5 15 10 5 0
100 100 100 100 94 100 100 100 100 100 100 78 88 35 5 5 5 5 5 39 78 38 75 54 100 100 51 78 52 51 54 27 5 5 5 5 7 29 62 39 70 42 58 42 9 8 5 1 0
100 100 100 100 60 100 100 100 99 100 100 100 100 78 6 14 16 5 5 5 5 5 20 37 91 22 34 45 91 49 45 36 5 6 73 93 98 76 36 20 46 13 5 5 5 0 2 0 0
100 100 100 100 100 100 100 100 35 79 100 100 100 100 100 84 64 98 32 16 37 18 42 34 8 37 100 100 100 88 52 77 83 100 100 40 63 26 45 7 36 5 67 5 20 5 5 5 5
100 100 100 100 99 100 100 100 100 53 66 100 100 100 100 100 100 100 100 100 100 100 100 100 100 100 100 100 100 100 100 100 100 100 100 87 73 7 5 8 4 1 5 16 24 18 5 5 17
100 100 100 100 97 100 100 100 100 100 33 48 100 100 100 100 100 100 100 90 100 100 100 100 100 100 100 88 99 94 91 100 100 100 100 85 6 5 5 5 6 2 5 7 90 100 7 50 56
90 100 100 100 100 100 100 100 100 100 100 100 86 95 100 100 100 100 100 100 100 100 100 100 100 100 100 90 100 100 100 99 81 60 7 80 37 53 2 0 0 0 0 5 7 96 80 100 99
5 100 100 100 100 100 100 100 100 100 100 99 100 100 100 100 100 100 100 100 100 100 100 100 100 100 95 66 41 66 6 5 5 1 1 5 74 86 5 3 5 2 0 5 5 27 67 58 52
100 83 100 100 100 100 100 100 100 100 100 100 100 100 100 100 100 86 100 95 100 100 100 100 95 63 85 53 7 9 12 77 5 5 5 16 4 25 8 2 5 5 5 28 75 91 99 85 18
54 5 89 100 100 100 100 100 100 100 100 100 100 100 100 100 100 100 100 100 98 60 13 5 5 32 5 35 97 84 85 98 100 8 5 5 1 0 0 38 22 17 5 17 21 40 96 96 97
100 12 99 94 100 100 100 100 100 100 100 100 100 65 87 100 100 100 100 100 100 100 84 97 87 72 91 66 57 23 87 55 13 88 9 5 1 1 3 0 30 99 79 95 84 50 100 100 100
100 17 7 26 100 100 100 100 100 100 100 100 79 19 81 99 100 100 100 100 100 100 100 100 100 95 100 100 100 82 11 5 5 5 5 96 89 27 34 6 8 100 100 98 6 7 25 12 16
58 53 33 100 100 62 100 100 100 98 100 100 100 100 68 19 35 64 100 100 100 100 100 100 100 100 100 99 28 24 91 16 5 5 5 5 52 85 100 100 46 82 100 100 100 100 78 100 98
100 97 100 100 100 40 100 100 100 100 88 100 100 100 100 100 93 58 85 100 100 100 100 99 100 93 78 72 98 63 42 20 32 22 27 43 72 100 52 36 13 14 40 93 100 100 100 100 100
100 100 100 93 100 78 96 96 100 100 100 100 93 100 100 100 100 100 100 100 99 98 99 99 100 100 100 93 51 15 41 41 99 80 52 45 36 82 100 79 5 5 66 62 86 100 100 100 100
66 65 96 78 99 100 57 100 99 100 100 100 100 100 100 100 97 94 97 75 100 100 99 88 63 38 48 29 87 68 66 67 34 56 21 6 5 5 5 19 85 85 78 100 100 100 100 100 100
100 100 100 98 86 100 100 100 100 100 100 100 100 100 100 100 76 96 92 90 94 67 31 54 33 76 74 100 100 92 80 78 21 60 63 60 16 5 5 63 4 2 78 100 100 100 99 100 100
100 90 96 100 100 100 100 100 100 100 100 100 100 100 100 100 100 94 65 46 20 40 55 52 100 100 100 100 100 97 56 92 86 77 7 28 78 77 69 51 5 13 98 100 100 100 100 100 100
100 100 67 93 100 73 100 100 100 100 100 100 100 100 100 100 100 100 100 100 100 100 100 100 100 100 100 100 100 46 99 51 100 85 5 31 100 100 48 92 91 100 100 100 100 100 100 100 100

GFSSGP_prec_cloud_045.txt.gz
Cloud_Cover
97 53 100 100 25 4 5 1 33 52 5 3 1 0 0 0 0 0 0 1 4 0 0 3 2 0 0 0 0 0 0 0 0 83 0 0 0 0 0 11 1 74 20 0 0 0 0 0 0
100 57 86 100 100 7 4 1 57 49 45 4 0 0 0 1 0 0 0 0 0 0 0 0 0 0 0 0 0 0 1 51 84 15 0 0 0 0 55 70 3 36 19 0 0 0 0 0 0
100 62 100 100 100 86 2 0 5 48 20 4 0 0 5 5 0 0 0 0 0 0 0 0 0 0 0 0 0 0 84 46 8 1 0 0 0 2 82 69 90 98 14 0 0 0 0 0 0
100 96 100 100 100 100 0 5 72 87 5 5 0 1 5 1 0 0 0 0 0 0 0 24 52 0 0 0 0 65 66 100 11 0 0 0 0 2 93 74 30 16 13 0 0 0 0 0 0
100 100 100 100 100 100 26 14 55 50 5 5 5 5 5 3 5 5 0 0 0 0 0 0 21 0 6 21 0 100 100 91 97 0 0 0 5 5 20 26 0 1 1 1 0 0 0 0 0
100 100 75 100 100 100 98 77 5 5 4 23 5 4 5 5 2 2 0 0 0 0 0 0 0 1 100 88 15 95 78 81 58 0 0 0 1 1 0 2 4 5 5 3 0 0 0 0 0
100 100 99 100 100 100 100 64 93 30 5 5 5 0 5 5 2 5 5 5 0 0 0 0 0 21 100 100 100 97 87 17 61 5 5 5 5 5 5 2 3 2 1 3 0 0 0 0 0
100 100 100 100 100 100 98 100 6 26 5 2 0 5 5 5 5 5 23 5 5 5 3 0 0 86 98 89 84 41 10 5 0 2 24 98 97 79 5 5 4 5 5 10 5 0 2 2 5
100 100 100 100 100 100 100 90 10 5 35 4 3 5 0 2 5 4 4 5 5 1 5 5 5 5 5 13 83 100 100 100 96 37 92 5 5 5 5 5 5 2 0 0 0 1 5 5 5
100 100 100 100 100 100 83 83 98 71 4 4 5 6 5 5 1 0 0 1 5 5 5 5 2 4 5 18 98 100 100 100 60 44 32 5 5 3 3 5 5 5 2 0 1 5 4 5 5
100 100 100 100 100 100 100 74 100 100 55 5 5 66 99 7 5 2 0 0 0 5 5 5 5 1 0 0 2 11 90 88 64 29 18 28 5 5 5 10 5 6 5 1 5 5 5 5 5
100 100 100 100 100 100 100 100 100 100 97 5 1 13 100 100 100 6 5 5 5 15 23 6 5 7 8 5 5 5 5 5 19 22 5 5 5 5 5 5 9 22 20 6 5 5 5 5 7
100 100 100 100 100 100 100 100 100 100 100 68 5 5 79 40 100 100 93 16 37 32 70 100 83 20 12 6 8 9 34 16 5 5 5 5 5 5 5 5 6 5 16 21 5 34 73 12 1
100 100 100 100 100 100 100 100 100 100 100 100 62 99 7 22 34 100 100 100 100 100 89 38 98 100 90 48 72 59 42 69 45 20 5 5 5 26 78 93 96 95 53 82 84 39 8 5 5
100 100 100 100 100 100 100 94 95 100 21 100 100 100 87 7 32 28 13 59 100 88 100 100 100 88 100 100 100 96 49 8 5 10 68 50 76 100 100 100 100 100 57 16 8 5 5 5 62
100 100 99 100 100 100 100 100 100 94 49 92 100 100 100 100 37 43 7 5 5 55 69 78 100 100 100 33 19 88 100 100 100 76 100 100 100 100 100 100 100 89 62 8 3 2 3 5 70
77 100 100 100 100 100 100 8 87 89 82 100 100 100 100 100 100 100 100 78 91 100 100 99 100 100 100 100 99 100 100 100 100 100 100 100 100 100 100 95 38 5 0 2 7 2 5 10 56
3 97 100 100 100 100 100 57 100 80 79 100 100 100 100 100 100 100 100 100 100 100 100 100 100 100 97 100 100 100 100 100 100 100 100 100 96 98 8 5 5 72 21 5 0 1 5 5 35
0 8 100 100 100 100 100 100 100 19 45 72 100 100 100 100 100 100 100 100 100 100 100 100 100 100 100 91 63 100 100 100 100 100 100 100 100 34 95 100 99 13 5 5 5 5 5 8 57
5 5 60 100 100 100 100 89 96 5 5 13 88 97 100 100 100 100 100 100 100 100 100 100 100 100 100 100 100 100 100 100 100 100 100 100 66 97 56 73 93 6 0 1 0 2 6 24 62
5 5 2 86 100 100 100 74 100 87 70 71 99 42 98 100 100 100 100 100 100 100 100 100 100 100 100 100 100 100 100 100 100 87 11 17 5 5 5 5 3 17 46 26 4 5 65 100 100
5 5 75 5 98 100 100 67 88 89 54 35 50 39 80 100 100 100 100 100 100 99 100 100 100 100 100 100 100 100 100 98 18 61 91 100 47 5 0 0 3 5 0 7 34 60 78 70 97
5 7 100 6 5 100 100 53 100 100 63 97 100 26 52 99 100 100 100 100 100 100 100 100 100 100 100 100 100 99 38 5 6 96 88 97 55 5 0 0 0 12 5 5 5 15 100 50 18
22 5 10 93 91 57 100 81 100 99 100 100 93 99 24 8 52 83 100 100 100 100 100 100 100 100 100 100 81 44 25 100 98 9 5 5 6 6 5 2 5 4 9 20 85 100 100 100 96
6 36 92 98 43 24 7 84 100 100 100 97 60 100 100 67 6 6 20 79 100 100 100 100 100 100 100 98 100 100 100 59 13 13 71 10 5 5 5 5 88 21 34 5 23 27 45 67 94
10 97 85 52 50 5 98 19 65 100 100 100 100 100 100 69 66 68 56 5 11 80 93 100 100 100 100 100 100 99 64 80 100 26 8 5 5 5 5 49 89 89 92 94 54 100 25 50 75
99 94 71 100 14 18 100 8 0 71 100 100 100 100 100 100 100 100 79 40 24 37 30 50 60 93 100 100 100 100 100 89 98 37 44 21 12 94 30 95 48 6 82 100 22 5 88 94 41
100 100 97 88 95 92 91 82 5 32 100 100 100 100 100 100 100 100 99 77 84 83 88 100 100 100 100 100 85 96 100 60 44 77 73 66 61 87 89 62 5 5 36 6 27 82 98 99 100
100 100 98 98 96 100 96 50 100 100 100 100 100 100 100 100 100 100 100 100 100 100 100 100 100 100 100 100 100 100 95 76 100 94 58 100 100 100 74 44 52 19 13 6 1 10 12 92 98
100 100 100 100 94 100 100 99 100 100 100 100 100 100 100 100 100 100 100 100 100 100 100 100 100 100 100 100 100 99 49 100 100 100 100 100 100 90 87 47 76 0 7 99 97 100 100 100 93

GFSSGP_prec_cloud_048.txt.gz
Cloud_Cover
99 26 70 100 100 100 96 98 5 74 98 5 9 5 5 5 5 2 0 0 0 8 0 0 0 0 4 2 5 5 5 3 0 1 0 0 0 0 3 1 6 99 4 0 0 0 0 0 0
99 98 40 99 100 100 98 48 8 100 100 13 5 4 4 0 5 5 5 0 0 0 5 13 2 5 39 5 3 5 0 0 0 0 0 0 0 12 12 3 54 21 0 0 0 0 0 0 0
100 100 96 100 100 100 100 76 79 100 95 9 1 4 2 1 0 1 0 0 0 0 0 15 4 14 5 3 5 0 0 0 0 0 0 0 0 2 14 14 100 98 0 0 0 0 0 0 0
100 100 100 100 100 100 100 94 66 60 91 2 2 5 5 5 0 0 0 0 0 0 0 0 0 5 5 0 0 0 0 0 0 0 0 0 34 51 54 68 100 34 0 0 0 5 5 5 5
100 100 95 100 100 100 100 100 91 23 96 0 6 88 5 5 5 0 2 0 0 0 0 0 0 1 0 0 0 0 0 0 0 0 0 0 2 94 100 25 8 2 0 1 2 4 3 4 1
100 100 100 100 100 100 100 100 100 21 30 2 5 34 7 5 6 2 5 3 0 0 0 14 3 0 44 0 11 21 0 0 0 0 1 2 2 21 97 18 1 0 0 0 2 0 0 0 0
100 100 100 100 100 100 100 74 100 100 33 2 2 5 27 7 5 5 5 5 5 0 0 0 0 45 100 81 18 92 2 1 0 8 11 5 6 6 5 8 5 5 5 5 5 4 5 3 0
100 100 100 100 100 100 27 100 100 100 95 5 0 8 9 43 5 5 4 5 5 5 4 0 0 1 49 69 98 86 21 0 4 5 14 46 9 2 4 4 0 0 4 0 0 5 5 5 1
100 100 93 100 100 100 100 99 100 100 100 6 5 5 5 76 5 5 5 5 5 5 4 1 3 0 0 4 43 56 5 5 5 5 11 5 36 20 5 5 5 5 8 5 5 5 4 0 0
100 100 100 100 100 100 100 100 98 100 100 39 5 5 4 19 82 35 5 5 5 5 5 5 5 5 5 4 0 5 5 5 5 5 73 98 62 5 5 5 5 5 21 5 5 3 3 2 4
100 100 100 100 100 100 100 100 99 100 100 100 8 5 5 5 59 14 3 0 5 5 5 5 5 5 5 5 9 9 5 29 12 36 97 72 28 9 5 5 5 12 5 5 5 5 3 5 5
100 100 100 100 100 100 100 100 100 93 98 100 94 8 5 5 5 84 10 5 5 9 8 42 39 9 7 5 5 5 5 16 29 6 2 3 5 5 5 21 17 20 30 12 5 5 8 13 48
100 100 100 100 100 100 100 100 100 91 100 100 99 78 5 5 5 4 80 49 5 2 5 5 5 5 5 5 5 5 5 5 10 22 22 24 60 47 5 12 19 22 32 24 33 56 72 100 8
100 100 100 100 100 100 100 100 100 94 100 100 100 100 78 5 5 5 4 5 1 0 4 3 7 6 5 12 13 45 65 31 44 52 63 49 65 13 5 10 22 50 81 100 100 93 100 26 32
89 100 100 100 100 100 100 100 100 100 96 80 100 100 100 96 5 5 5 9 5 5 5 5 5 5 66 84 100 100 100 99 100 100 100 70 75 100 99 83 100 100 100 100 100 100 68 5 92
5 100 100 100 100 100 100 100 100 100 100 95 82 100 98 100 100 7 5 6 38 83 100 100 81 31 8 5 10 11 49 62 37 73 54 100 94 100 100 100 100 100 100 100 100 71 47 7 5
4 74 100 100 100 100 100 100 100 99 100 93 86 100 100 99 84 100 43 5 6 52 84 100 100 100 100 100 100 100 100 100 89 98 98 100 87 77 100 100 100 100 100 100 75 12 5 5 5
1 8 100 100 100 100 100 100 100 100 83 84 38 98 100 100 100 100 100 99 73 9 9 72 100 100 100 100 100 72 100 100 100 100 100 100 100 76 100 100 100 100 100 100 52 14 5 6 5
0 0 100 100 100 100 100 100 100 100 100 41 5 15 100 100 100 100 100 100 100 100 77 35 5 34 95 100 100 98 65 96 100 100 100 100 100 100 100 100 100 100 70 33 5 5 5 5 5
5 0 17 100 100 100 100 100 100 80 64 5 5 5 19 8 96 100 100 100 100 100 100 100 100 100 100 100 100 100 100 100 100 100 100 100 100 100 100 100 100 87 13 19 25 5 5 5 2
2 3 0 100 100 100 100 100 100 100 21 5 5 5 5 29 97 100 97 100 100 100 100 100 100 100 100 100 100 100 100 100 100 100 100 100 100 100 100 100 100 100 45 5 5 2 5 0 1
37 5 5 47 100 100 100 100 100 100 99 14 5 5 10 81 64 100 100 100 100 100 100 100 100 100 100 100 100 100 100 100 100 100 100 100 93 35 20 8 11 7 5 5 4 4 0 21 27
57 5 5 5 5 100 100 54 100 100 48 90 77 6 5 7 77 100 100 100 100 100 87 99 100 100 100 100 100 100 100 100 100 100 100 100 100 82 67 36 5 27 31 5 2 2 18 15 34
38 25 35 5 10 30 90 93 73 100 100 99 98 100 15 5 5 44 100 100 100 100 99 98 77 99 85 83 77 85 88 86 71 42 74 94 100 98 100 99 34 8 17 28 16 5 9 18 94
8 97 70 100 99 23 2 81 97 100 100 100 93 87 77 5 5 5 35 100 100 100 100 100 94 75 61 13 5 5 12 14 17 38 60 38 27 66 11 5 9 55 43 16 23 35 46 44 58
92 92 8 16 56 5 5 0 2 100 100 100 56 12 65 63 7 5 5 45 85 100 100 100 100 81 99 68 36 11 6 28 62 83 97 60 59 88 5 5 8 5 56 16 5 24 65 38 66
69 82 26 11 6 5 0 0 0 0 75 100 100 100 84 71 76 82 48 5 39 93 67 73 80 84 38 28 35 36 60 57 73 24 54 78 14 5 23 54 58 99 86 26 58 66 100 100 88
65 91 82 82 99 10 0 0 0 0 94 100 100 100 100 100 94 88 71 19 21 23 61 92 78 47 38 33 66 57 49 98 100 100 90 66 85 100 100 76 61 32 17 42 18 23 74 68 84
100 100 74 69 74 44 4 0 0 68 98 100 100 100 100 100 99 88 86 85 72 6 66 98 100 100 100 99 100 100 100 100 100 100 100 100 100 100 70 88 93 19 5 5 30 18 16 42 99
100 94 100 100 87 98 78 44 6 100 100 100 100 100 100 100 100 100 99 62 34 12 41 87 100 100 100 100 100 100 100 100 100 100 100 100 86 83 100 93 10 5 5 5 7 2 1 15 95

GFSSGP_prec_cloud_051.txt.gz
Cloud_Cover
100 11 5 87 8 100 100 100 100 6 5 5 5 13 24 42 16 5 0 0 28 52 6 0 0 0 0 0 2 5 5 15 9 11 5 0 0 0 0 16 60 4 0 0 0 0 0 0 0
100 100 34 20 10 100 100 100 100 90 14 5 5 8 75 67 5 5 6 46 6 21 6 6 0 5 5 5 5 3 44 12 5 5 4 0 0 1 0 12 15 0 0 0 0 0 0 0 0
100 100 98 9 42 100 100 100 100 98 13 5 4 52 84 100 5 5 5 41 18 25 27 10 3 4 5 5 5 14 2 4 18 5 0 0 0 2 2 58 26 0 0 0 0 0 0 0 0
100 100 100 26 100 100 100 100 100 100 54 5 5 7 97 100 5 5 5 5 21 32 13 4 5 5 5 5 8 6 5 2 2 3 0 0 66 15 82 42 50 0 0 0 0 0 0 0 0
100 100 100 100 100 100 99 100 100 100 81 7 6 5 50 100 5 5 3 3 13 28 8 1 8 99 36 5 5 5 5 0 5 0 0 6 62 68 97 97 85 0 0 0 0 0 0 0 0
100 100 79 100 100 100 99 100 100 100 81 99 53 50 87 96 14 5 0 5 0 3 3 0 4 15 6 5 5 5 5 4 0 0 0 0 73 91 100 28 17 0 0 0 4 2 0 0 0
100 99 57 100 100 100 100 100 100 100 100 100 74 69 63 74 21 5 1 5 4 0 0 2 0 0 0 0 5 14 6 3 0 0 0 0 6 69 100 53 29 15 4 4 6 2 0 0 0
100 100 100 100 100 100 100 100 97 100 100 97 78 98 100 96 8 5 4 5 5 5 0 0 0 19 92 3 24 100 0 0 0 0 0 0 0 0 36 5 5 16 6 5 2 2 0 0 0
100 100 84 45 100 100 100 86 100 100 100 100 100 78 100 77 5 6 7 4 5 4 1 0 0 0 16 0 55 100 3 0 0 0 0 0 0 1 5 14 14 5 5 5 5 5 5 3 2
100 100 99 100 100 100 100 100 100 100 100 100 100 94 100 100 17 5 5 2 5 5 5 3 4 2 1 4 11 73 4 0 0 0 0 0 0 5 5 5 32 93 34 43 5 5 5 5 0
98 100 100 100 100 100 100 100 99 100 100 100 100 99 63 100 95 5 5 5 5 5 5 5 5 5 5 5 6 16 30 28 11 3 0 0 1 5 5 24 51 20 6 5 4 5 5 5 5
54 100 100 100 100 100 100 100 79 100 100 100 100 100 100 100 84 15 3 0 2 5 5 5 5 5 5 5 12 11 21 38 31 5 5 5 14 9 11 18 12 26 30 27 5 4 5 5 5
40 98 100 100 100 100 100 100 100 100 100 100 100 100 100 100 100 74 7 2 2 5 5 5 15 44 6 5 5 5 14 23 26 15 5 5 5 5 5 7 16 25 25 32 20 14 64 36 32
63 99 100 100 100 100 100 100 100 100 100 100 100 100 100 100 97 99 59 9 5 5 5 5 19 59 7 5 5 5 5 5 24 27 5 5 5 9 6 8 12 22 32 27 33 83 100 99 98
58 55 100 100 100 100 100 100 100 100 100 100 100 100 100 100 84 99 72 11 12 61 8 5 6 46 18 15 5 5 5 15 23 9 7 5 12 35 6 8 17 91 100 100 79 89 100 89 88
4 39 60 100 100 100 100 100 100 100 98 100 100 100 100 66 100 100 100 72 42 11 53 5 13 8 5 5 32 38 46 38 8 5 5 45 97 94 21 97 97 81 86 83 99 100 100 95 5
19 1 6 100 100 100 100 100 100 100 93 100 42 94 100 100 100 100 100 100 99 14 5 5 5 5 5 5 5 5 14 45 71 86 72 50 100 92 100 100 100 100 100 100 100 100 94 10 5
0 0 0 84 100 100 100 100 100 100 100 100 100 100 98 84 100 100 100 100 100 100 78 31 11 5 5 5 5 5 70 88 80 64 84 100 100 100 100 100 100 99 97 100 100 100 62 24 5
4 0 0 4 100 100 100 100 100 100 100 100 100 100 67 98 60 66 100 100 100 100 100 39 10 27 5 5 5 5 52 87 100 100 100 98 39 16 37 89 100 100 100 100 100 77 39 9 5
45 0 0 4 100 100 100 100 100 100 100 100 100 83 83 6 50 47 100 100 100 100 100 100 100 85 83 75 76 61 18 36 40 83 100 100 89 98 100 100 100 100 100 100 76 25 5 12 23
100 4 0 0 31 100 100 100 100 100 100 100 100 71 4 3 56 100 82 96 100 100 100 100 100 89 100 100 100 100 100 100 100 100 100 100 100 100 100 100 100 100 100 100 100 82 46 24 76
100 6 1 0 1 100 100 100 100 100 100 100 100 51 48 4 6 59 84 26 77 100 100 100 100 100 96 99 100 100 100 100 100 100 100 100 100 100 100 100 100 100 100 100 99 78 60 69 62
92 5 5 5 5 9 100 100 100 80 100 100 100 100 72 6 5 5 5 42 63 84 100 100 100 100 100 100 100 100 100 100 100 100 94 100 67 39 5 18 38 41 45 47 82 96 92 30 46
99 87 57 100 22 12 70 100 100 100 100 100 100 100 100 38 5 5 5 22 92 49 23 79 100 100 100 100 100 100 100 100 100 100 100 100 100 59 62 71 20 79 86 69 42 48 15 35 47
90 100 100 100 96 30 1 93 100 100 100 100 100 100 99 62 5 0 3 11 71 100 97 59 71 95 100 100 100 100 100 100 100 100 100 100 100 100 100 100 100 100 100 100 100 90 68 91 75
61 86 18 13 56 33 5 1 99 100 100 100 100 100 100 27 5 5 5 5 24 98 97 79 48 75 97 71 65 64 99 100 100 100 100 100 100 90 78 96 86 91 58 90 51 65 81 94 100
100 94 97 21 5 5 2 0 0 100 100 100 100 100 100 100 100 37 5 5 5 5 5 5 18 45 65 98 100 100 100 51 54 50 65 75 80 98 74 70 99 91 100 100 94 100 100 100 100
6 63 74 53 26 5 0 0 0 0 90 100 100 100 100 100 88 90 92 5 5 5 5 5 5 5 44 66 86 94 100 91 81 69 56 46 57 100 100 95 96 95 93 29 46 46 66 99 99
51 98 63 50 6 47 11 1 0 0 0 14 100 100 100 100 100 99 62 5 5 39 42 5 5 52 83 89 83 82 92 78 71 94 100 100 100 100 100 95 88 87 69 51 5 23 37 91 100
100 66 45 98 57 18 5 3 3 2 0 0 0 15 100 100 100 96 100 100 84 57 74 63 6 48 37 25 65 98 93 92 95 98 100 86 100 100 90 100 100 71 27 14 5 48 67 68 59

GFSSGP_prec_cloud_054.txt.gz
Cloud_Cover
100 100 99 100 12 85 54 100 100 51 5 61 45 48 96 100 21 5 4 12 1 51 15 0 0 0 0 0 2 0 1 21 10 6 2 0 4 5 13 26 11 0 0 0 0 6 0 0 3
100 100 100 100 96 90 100 100 100 31 2 5 5 5 9 46 5 65 40 51 1 44 9 0 0 0 0 0 1 0 1 14 2 5 5 5 5 5 19 22 3 0 0 0 0 0 0 0 0
100 100 100 98 94 100 100 100 100 15 3 5 5 5 5 5 6 5 10 64 37 17 12 0 0 0 0 0 0 5 7 2 5 5 5 5 21 5 13 66 1 0 0 0 0 0 0 0 0
100 100 100 94 100 100 100 100 100 21 5 5 5 5 5 30 12 35 26 53 48 66 22 0 0 4 0 0 4 5 5 5 5 5 5 5 10 5 98 92 0 0 0 0 0 0 0 0 0
100 100 93 99 100 100 100 100 100 70 100 50 100 11 9 95 44 89 54 45 78 88 31 48 0 0 0 5 5 5 47 10 5 12 6 100 28 100 36 95 0 0 0 0 0 0 0 0 0
100 100 91 10 100 100 100 100 100 100 100 100 93 96 11 99 98 78 26 76 61 84 51 9 0 0 0 3 49 24 80 52 89 55 10 66 92 100 100 86 8 0 0 0 0 0 0 0 0
99 100 100 100 100 100 100 92 100 100 100 100 100 100 72 86 100 95 21 44 23 38 23 30 15 0 0 5 45 100 88 71 19 27 6 5 10 80 100 88 10 17 0 2 4 5 3 4 0
100 100 100 100 100 100 100 95 94 100 100 100 100 100 100 100 100 100 70 17 71 5 5 26 20 6 0 1 12 100 82 5 5 5 5 5 1 0 1 42 0 6 0 0 5 5 5 5 5
98 100 100 100 100 100 100 100 73 58 99 100 100 100 100 100 94 99 94 35 13 5 5 0 1 0 0 0 13 100 100 5 5 5 5 5 0 0 0 0 0 0 0 0 0 2 5 5 5
100 100 100 100 100 100 100 100 100 100 100 100 100 100 100 100 93 84 100 43 21 6 4 3 0 0 11 0 32 100 100 5 5 5 0 0 0 0 0 0 1 0 0 0 0 0 5 5 5
100 77 60 100 100 100 100 72 100 100 100 100 100 100 100 100 100 100 100 86 42 5 2 1 0 0 2 1 10 29 39 19 8 0 0 0 0 2 5 7 11 3 4 4 2 5 5 5 5
4 13 62 100 100 100 100 100 88 23 92 100 100 100 100 100 100 100 100 93 70 7 5 5 5 5 4 7 14 18 38 33 26 1 0 4 12 8 16 19 11 19 18 25 5 5 5 5 5
0 59 27 99 100 100 100 100 100 95 100 100 100 100 100 100 100 100 100 100 98 25 16 5 5 5 5 5 7 15 17 43 25 14 4 5 3 5 2 9 11 21 27 41 32 11 5 5 5
0 77 97 45 100 100 100 100 100 99 99 100 100 100 100 100 100 100 100 100 100 10 5 5 5 18 7 5 5 11 15 10 37 32 14 5 5 5 5 5 6 8 23 24 32 58 15 6 5
5 78 79 64 100 100 100 100 93 100 85 100 100 100 100 100 100 100 100 100 81 30 8 66 94 61 20 5 5 5 6 9 20 26 28 5 5 2 5 5 8 6 11 29 47 28 19 23 82
100 100 51 92 100 100 100 100 100 100 95 67 100 100 100 100 100 100 100 100 100 37 48 14 5 5 5 5 5 5 5 5 5 7 18 18 6 5 5 5 5 15 37 84 35 24 47 83 53
100 18 9 36 99 100 100 100 100 100 100 98 100 100 100 100 100 100 100 100 90 73 49 43 42 33 17 5 5 5 5 5 5 5 5 5 5 3 4 5 6 17 83 45 37 100 86 92 82
16 9 0 0 53 100 100 100 100 100 100 100 100 100 100 100 100 100 100 100 95 72 60 57 44 75 29 73 72 70 59 36 52 17 5 6 32 21 8 54 86 96 100 86 58 81 80 100 71
94 8 7 0 0 100 100 100 100 100 100 100 100 99 100 100 100 100 100 100 100 100 100 100 100 99 98 72 50 32 53 91 100 100 81 62 26 5 13 80 100 58 100 100 100 100 100 100 15
100 38 92 2 2 97 100 100 100 100 100 100 100 78 99 98 64 100 100 100 100 100 100 100 100 100 100 82 82 67 15 14 51 50 19 5 5 5 5 37 81 91 93 100 100 100 28 29 72
100 41 100 14 2 8 95 100 100 100 100 100 100 100 75 91 34 94 100 100 100 100 100 100 100 100 100 100 100 99 97 85 28 18 18 16 23 30 60 58 58 61 97 100 100 86 100 100 100
99 84 65 71 0 11 10 44 100 100 100 100 100 100 82 100 92 100 99 100 100 100 100 100 100 100 100 100 100 100 100 100 100 100 100 100 100 100 100 100 100 100 100 100 100 100 100 100 100
99 5 9 6 3 5 6 48 100 100 100 100 100 100 100 100 100 100 100 82 47 100 100 100 100 100 100 100 100 100 100 100 100 100 100 100 100 100 100 100 100 100 100 100 100 100 100 100 100
24 58 77 5 5 37 5 20 75 100 100 100 100 100 100 98 79 100 98 11 5 6 42 98 100 100 100 100 100 100 100 100 100 100 100 100 100 100 100 100 100 100 100 100 100 100 100 98 87
84 96 84 85 92 32 0 1 0 100 100 100 100 100 100 100 66 93 29 6 5 5 5 5 64 100 100 100 100 100 100 100 100 100 100 100 100 100 100 100 100 100 92 100 100 100 100 100 100
84 100 5 15 56 5 4 2 0 2 100 100 100 100 100 100 62 38 89 66 5 5 13 24 5 6 74 100 100 100 100 100 100 100 100 100 100 100 100 100 100 100 100 100 100 100 100 100 100
32 96 56 24 6 5 4 0 0 0 22 100 100 100 100 100 100 58 50 5 4 4 5 5 5 5 5 5 61 100 100 100 100 100 100 100 100 100 100 100 100 100 100 100 100 100 100 100 100
10 91 51 70 25 11 5 0 0 0 0 0 100 100 100 100 100 100 88 6 1 0 0 0 3 23 5 2 16 43 99 100 100 100 100 100 100 100 100 100 100 100 100 100 100 92 88 100 88
100 99 98 100 98 54 5 2 0 0 0 0 1 99 100 100 100 100 100 92 5 5 4 0 0 0 0 0 1 5 5 92 100 100 100 100 100 100 100 100 100 100 98 72 65 58 68 100 95
100 100 97 100 72 27 5 2 2 2 0 0 0 0 64 100 100 100 100 100 100 35 5 5 5 3 4 2 0 0 0 5 26 90 91 100 100 100 100 100 100 89 37 67 77 5 5 5 6

GFSSGP_prec_cloud_057.txt.gz
Cloud_Cover
100 100 100 100 96 89 32 100 75 94 95 6 6 48 11 5 2 5 6 24 5 7 18 0 0 0 0 0 0 0 0 0 7 14 0 0 7 11 5 3 6 5 5 10 7 45 17 6 8
100 100 100 100 58 100 98 100 100 6 31 99 31 39 42 7 5 84 35 83 4 18 28 11 0 0 0 0 0 0 0 1 0 0 0 0 8 19 20 13 0 5 0 4 0 0 7 4 0
100 100 100 100 93 100 100 100 100 53 63 80 88 25 74 88 44 48 44 60 39 29 22 3 0 0 0 0 0 5 3 0 0 0 0 2 5 18 56 12 5 5 5 0 0 0 0 0 0
100 100 100 100 100 100 100 100 100 27 16 29 91 9 24 100 70 69 71 98 69 37 5 0 0 0 0 0 0 2 0 2 2 5 5 7 5 45 6 34 5 5 5 0 0 0 0 0 0
100 100 100 100 100 100 100 100 100 93 32 32 84 16 81 82 76 67 87 77 46 79 5 2 0 0 0 0 0 0 0 5 5 7 5 32 5 100 99 30 5 5 0 0 0 0 0 0 0
100 96 78 100 100 100 100 100 100 100 97 29 78 54 87 99 100 100 100 43 18 80 57 28 46 0 0 0 3 0 0 9 23 89 79 100 99 100 100 13 5 5 0 3 0 0 0 0 0
74 100 89 100 100 100 100 100 100 100 100 99 64 96 60 100 100 100 100 75 95 93 61 39 24 0 2 0 31 0 4 15 33 90 71 8 85 75 100 91 8 5 0 0 0 0 0 0 0
60 89 100 100 100 100 100 100 100 100 55 77 34 65 100 100 100 100 92 79 70 63 37 30 26 4 20 24 7 58 12 31 78 100 74 42 42 66 97 88 5 5 0 0 0 0 0 0 0
59 100 93 100 100 100 100 100 100 100 100 64 37 95 91 100 100 100 100 100 98 75 46 43 30 16 1 12 10 100 100 5 23 66 92 76 54 29 6 5 5 0 0 0 0 0 0 0 0
100 98 34 100 100 100 100 100 100 100 100 98 24 100 100 100 100 100 100 100 100 76 63 60 12 28 1 2 68 100 100 8 5 6 14 17 6 22 5 5 5 0 0 0 0 0 0 5 5
59 10 14 92 100 100 100 100 100 100 100 100 100 73 100 100 100 100 100 100 100 97 86 93 25 11 5 0 16 100 100 4 4 5 5 4 5 5 5 0 0 0 1 25 0 1 5 5 5
67 94 100 100 100 91 100 100 100 100 100 100 100 92 100 100 100 100 100 100 100 100 92 91 31 91 32 9 0 0 0 0 0 0 0 0 0 0 0 0 0 0 0 8 9 4 5 5 5
34 100 100 100 100 93 100 100 100 100 99 100 100 100 100 100 100 100 100 100 100 100 100 100 100 64 80 5 0 0 0 0 0 0 0 0 0 0 0 0 4 4 1 3 4 5 5 5 5
1 64 100 100 100 100 100 100 100 100 98 54 100 100 100 100 100 100 100 100 100 100 100 80 98 34 86 48 5 4 0 1 21 12 0 0 1 1 5 0 4 5 5 5 5 5 5 5 5
76 0 62 100 100 100 100 100 100 100 100 100 100 100 100 100 100 100 100 100 100 100 100 100 100 100 88 84 12 5 5 0 0 12 26 5 5 5 5 5 5 5 5 5 4 5 5 5 5
100 25 0 100 100 36 100 100 100 100 88 100 100 100 100 100 100 100 100 100 100 100 100 100 100 99 82 100 85 13 6 5 1 0 5 16 11 11 5 5 5 5 5 5 5 5 30 9 6
100 21 3 51 27 32 100 100 100 100 88 98 100 100 100 100 100 100 100 100 100 100 100 100 100 100 57 6 88 80 46 34 48 21 10 5 14 7 5 5 5 5 13 8 11 6 5 6 25
52 33 53 10 62 82 100 100 100 100 100 96 100 100 100 100 100 96 100 100 100 100 100 100 100 100 98 99 91 99 99 88 74 58 38 60 57 23 7 5 5 20 40 52 62 23 40 81 30
96 100 73 28 14 100 100 100 100 100 100 78 100 100 100 100 100 100 100 100 100 100 100 100 100 60 70 93 100 100 100 100 100 100 100 89 50 24 34 96 75 59 92 21 5 13 5 37 84
88 100 100 7 6 6 58 100 100 100 100 100 70 97 100 100 100 100 100 100 100 100 100 100 98 77 42 67 100 100 100 100 100 71 82 80 67 89 100 100 100 100 51 30 58 73 41 96 100
100 100 100 100 10 26 2 46 83 99 100 100 98 19 100 100 100 100 100 100 100 100 100 100 100 98 69 74 100 100 100 100 100 100 100 100 100 100 100 100 100 100 99 100 97 82 100 100 100
100 100 100 100 58 11 0 4 2 100 100 100 100 100 100 100 100 100 100 100 100 100 100 100 100 100 100 100 100 100 100 100 100 100 100 100 100 100 100 92 85 100 100 100 100 100 100 100 100
100 100 100 100 13 5 4 5 0 15 98 100 100 100 100 99 99 100 100 100 96 100 100 100 100 100 100 84 99 100 100 100 100 100 100 100 92 56 63 60 100 100 100 100 100 100 100 100 100
100 100 100 14 16 30 5 4 0 0 4 99 100 100 100 100 89 100 100 99 85 100 100 100 100 100 100 100 53 99 100 100 100 100 100 100 96 100 100 100 100 100 100 100 100 100 100 100 100
100 92 96 86 84 26 3 2 0 0 2 97 100 100 100 100 100 100 79 100 100 88 66 100 100 100 100 100 98 89 100 100 100 100 100 100 100 100 100 100 100 100 100 100 100 100 100 100 100
100 100 26 21 48 5 5 3 2 0 0 10 100 100 100 100 100 100 100 100 100 100 48 6 14 56 50 100 100 100 100 100 100 100 100 100 100 100 100 100 100 100 100 100 100 100 100 100 100
93 91 26 5 5 5 5 0 5 0 0 0 0 96 100 100 100 100 100 100 100 100 96 5 6 47 99 69 46 86 75 98 100 100 100 100 100 100 100 100 100 100 100 100 100 100 100 100 100
94 100 90 5 5 5 0 0 5 4 0 0 0 0 79 100 100 100 100 100 100 100 98 72 5 5 5 10 52 98 100 100 100 100 100 100 100 100 100 100 100 100 100 100 100 100 100 100 100
64 90 6 37 5 5 4 34 99 16 3 0 0 0 0 3 100 100 100 100 100 100 99 80 6 5 3 0 0 5 16 42 37 58 100 100 100 100 100 100 100 100 100 100 100 100 100 100 100
92 57 26 62 33 24 20 100 100 100 100 51 5 0 0 0 15 100 100 74 100 100 100 94 10 6 5 5 0 0 5 5 5 8 78 100 100 100 100 100 100 100 100 97 95 87 96 90 70

GFSSGP_prec_cloud_060.txt.gz
Cloud_Cover
100 100 100 100 99 19 17 95 100 76 96 100 100 80 81 76 81 5 6 5 5 5 5 2 1 1 0 0 0 0 0 0 20 0 0 7 15 5 7 0 0 5 91 88 100 100 96 2 0
100 100 100 100 90 69 60 84 100 85 98 99 100 100 100 78 48 5 5 5 5 5 5 6 5 0 0 0 0 0 0 2 0 0 0 3 22 17 33 2 5 5 1 7 27 92 3 0 0
97 100 100 100 100 86 90 100 68 79 79 100 78 100 100 72 16 5 5 5 5 5 5 5 27 9 0 0 0 2 0 0 0 0 0 0 21 47 31 1 5 5 5 5 5 3 0 0 0
64 100 100 98 56 100 98 100 100 76 72 76 100 96 100 100 56 7 5 5 5 5 5 5 12 5 3 0 0 0 0 0 0 0 0 2 29 56 5 5 5 5 5 4 5 5 0 0 0
99 65 100 100 100 91 100 100 100 95 44 63 100 100 100 100 97 33 12 30 5 8 5 17 2 10 2 0 0 0 0 0 0 0 44 5 30 75 37 5 5 5 5 5 5 5 0 0 0
98 83 67 100 100 100 100 100 100 95 77 99 91 96 100 100 100 96 100 5 5 10 51 96 10 53 0 0 0 0 0 0 0 1 98 40 95 100 93 56 11 31 22 5 5 5 0 0 0
73 12 9 100 100 100 100 100 100 100 53 82 91 21 100 100 100 100 97 9 7 15 60 100 36 0 4 0 20 0 0 0 0 0 5 37 98 99 98 64 13 46 10 32 5 5 0 0 0
74 100 100 99 100 100 100 100 100 100 97 92 32 74 89 100 100 100 100 80 48 70 96 100 94 60 32 23 77 1 0 0 0 0 5 5 59 94 32 80 21 5 32 8 5 3 0 0 0
77 100 97 94 100 100 100 100 100 100 98 66 29 59 100 100 100 100 100 100 88 86 99 93 100 100 98 100 88 99 87 0 0 0 2 5 54 36 6 28 33 41 5 5 5 0 0 0 0
98 32 8 22 100 100 100 100 100 100 100 97 85 61 100 100 100 100 100 97 100 99 80 82 95 100 100 69 55 98 100 61 31 0 1 5 37 33 22 6 5 5 5 5 5 0 0 0 0
99 4 16 84 98 100 100 100 100 100 100 100 94 98 100 100 100 100 100 99 99 100 71 38 58 91 96 88 92 100 100 94 48 14 0 4 5 22 11 35 16 5 8 4 2 0 0 0 0
99 31 92 98 99 100 100 100 100 100 100 100 100 100 100 100 100 100 100 100 100 100 97 100 55 66 39 76 66 88 61 20 30 30 7 0 2 5 38 12 5 5 0 0 0 0 0 0 0
100 100 39 100 29 97 100 100 100 100 100 100 100 100 100 100 100 100 100 100 100 100 100 90 65 54 61 55 70 68 47 25 9 31 26 0 0 0 1 4 2 2 1 0 0 1 0 4 5
45 100 100 85 35 26 100 100 100 100 100 100 100 100 100 100 100 100 100 100 100 100 100 75 100 76 67 69 100 47 15 22 20 3 1 0 0 0 0 2 5 5 5 5 5 5 5 5 4
93 100 100 100 40 63 95 100 94 100 100 100 100 100 100 100 100 100 100 100 100 100 100 100 100 75 92 92 99 100 44 18 5 11 5 0 0 0 0 4 5 5 8 11 12 6 5 5 5
100 99 100 90 100 100 100 37 100 100 100 100 98 100 100 100 100 100 100 100 100 100 100 100 100 100 100 87 97 100 100 22 5 36 44 17 6 4 6 5 5 9 16 8 8 11 15 7 13
100 44 100 98 100 100 100 94 98 100 100 98 95 94 100 100 100 100 100 100 100 100 100 100 100 100 100 100 100 100 100 95 23 5 73 100 93 61 7 17 7 36 36 38 18 26 22 31 52
13 56 100 100 100 100 87 100 100 100 100 100 100 100 100 100 100 100 100 100 100 100 100 100 100 100 100 100 100 100 100 99 44 34 41 92 100 94 52 28 22 38 54 26 36 26 64 65 46
100 100 100 100 100 100 100 100 100 79 100 100 100 100 100 100 100 100 100 100 52 12 63 100 100 100 100 100 100 100 100 100 89 98 82 93 100 100 100 35 58 64 71 60 57 100 74 52 67
100 100 100 100 100 60 45 83 100 22 99 100 100 69 100 100 100 100 100 100 100 96 45 97 100 100 100 100 100 100 100 100 97 96 100 100 100 100 100 84 61 74 75 51 65 99 95 100 92
100 100 100 100 100 39 19 64 98 90 100 100 100 100 100 100 100 100 100 100 100 100 100 100 100 100 100 100 100 100 88 70 92 99 96 100 100 100 100 100 100 99 100 100 100 100 100 100 100
100 100 100 100 100 82 5 1 0 5 100 100 100 100 100 99 100 100 100 100 100 100 100 100 86 100 100 100 100 98 99 100 96 97 99 100 100 100 100 100 100 100 100 100 100 100 100 100 100
100 100 100 100 100 100 10 3 0 55 100 100 100 100 100 98 100 100 100 100 100 100 100 100 100 100 100 100 100 100 100 100 100 100 100 100 100 100 100 100 100 100 100 100 100 100 100 100 100
100 100 100 100 68 62 62 4 4 0 0 9 100 85 100 100 98 99 100 99 100 100 100 100 100 100 87 85 100 100 100 100 100 100 100 100 100 100 100 100 100 100 100 100 100 100 100 100 100
95 99 72 83 66 8 4 3 5 1 0 1 100 97 100 100 100 100 100 100 100 100 100 100 100 97 96 66 96 100 100 100 100 100 100 100 100 100 100 100 100 100 100 100 100 100 100 100 100
97 92 80 75 14 23 5 1 5 4 0 0 10 99 86 39 26 100 100 97 100 100 100 100 100 100 100 97 100 100 100 100 100 100 100 100 100 100 100 100 100 100 100 100 100 100 100 100 100
100 100 100 100 100 99 9 5 54 4 0 0 0 0 0 22 6 98 100 100 100 100 100 100 100 100 100 100 100 100 95 71 99 100 100 100 100 100 100 100 100 100 100 100 100 100 100 100 100
100 95 90 96 98 72 5 5 10 13 0 0 0 0 0 0 54 100 100 100 100 100 100 77 97 99 100 100 100 100 88 98 100 100 100 100 100 100 100 100 100 100 100 100 100 100 100 100 100
65 23 36 100 18 5 5 5 6 60 13 1 0 0 0 0 0 2 41 100 100 100 100 100 100 87 77 72 66 68 56 26 27 91 100 100 100 100 100 100 100 100 100 100 100 100 100 100 100
6 36 48 90 38 5 5 4 5 92 100 62 3 0 0 0 0 0 81 100 100 100 100 100 100 100 100 70 42 66 99 99 68 97 71 40 81 100 100 100 100 100 100 100 100 100 100 100 100

GFSSGP_prec_cloud_063.txt.gz
Cloud_Cover
18 100 100 100 100 38 36 100 100 86 98 100 100 78 81 100 96 85 86 5 5 5 12 5 0 0 0 0 0 0 0 0 2 0 10 0 0 4 0 1 1 100 100 85 99 98 81 0 0
9 100 100 100 100 54 86 100 100 100 99 100 100 99 100 99 97 56 80 6 5 5 6 41 0 0 0 0 0 0 2 0 0 0 13 32 5 42 0 0 0 1 5 99 100 83 5 2 5
35 92 100 100 100 94 100 87 100 96 99 100 100 100 100 100 70 100 22 5 5 5 5 10 0 0 0 0 0 12 0 0 0 0 0 33 17 51 0 0 0 5 7 13 16 5 5 5 5
100 69 93 94 99 100 100 44 100 100 100 97 100 100 100 100 100 100 66 43 5 5 5 5 5 0 5 0 0 0 0 0 0 0 0 10 20 13 0 3 5 5 6 5 5 11 5 5 5
100 77 86 99 100 100 100 12 100 100 100 100 100 100 100 100 100 100 100 58 5 5 20 2 5 12 5 3 0 0 0 0 0 0 0 1 44 13 0 5 5 8 5 5 5 5 5 5 5
76 98 98 55 100 100 94 91 100 100 100 100 100 100 100 100 100 90 100 84 5 5 51 11 7 5 5 2 0 0 0 0 0 0 1 98 91 83 5 5 5 50 12 5 8 5 5 5 5
85 99 54 10 100 100 68 100 100 97 100 100 66 100 99 100 100 100 82 99 71 5 30 76 21 25 5 19 0 0 0 0 0 0 4 56 100 86 5 5 5 5 5 14 6 5 5 5 5
94 85 44 90 100 98 100 100 100 100 33 98 100 51 100 100 100 100 100 86 100 73 85 100 97 38 16 18 58 0 0 0 0 0 0 0 0 0 5 5 26 6 5 5 5 5 5 5 5
98 98 74 86 98 100 100 100 100 100 100 99 100 88 100 100 100 100 100 89 84 98 95 100 98 100 82 99 100 60 1 0 0 0 0 20 1 0 6 7 6 11 5 5 26 5 5 5 5
77 98 92 1 46 99 100 100 100 100 100 73 100 100 100 92 100 100 100 95 84 100 100 100 100 100 100 97 23 92 45 22 9 0 0 0 0 0 6 5 5 8 5 5 5 5 6 5 5
100 30 9 5 100 92 100 100 100 100 100 100 87 99 100 100 100 100 100 100 99 100 91 100 100 100 100 100 54 36 100 96 64 25 1 0 0 0 0 5 5 5 5 6 8 56 11 5 0
99 78 100 99 100 44 90 100 100 100 100 100 100 100 100 100 100 100 100 100 100 100 100 89 100 100 100 100 100 19 100 46 32 13 19 0 0 0 0 0 2 4 5 14 41 6 5 0 0
100 62 98 100 52 81 46 100 100 100 100 100 100 100 100 100 100 100 100 100 100 100 100 100 100 100 100 100 100 100 38 30 33 17 12 17 5 5 0 0 0 0 2 5 4 1 2 1 4
97 100 80 100 94 63 58 83 100 100 100 100 100 100 100 100 100 100 100 100 100 100 100 100 97 100 100 100 100 100 84 25 14 57 7 5 6 5 5 4 0 0 0 0 0 0 16 16 14
100 100 100 100 100 100 91 80 55 100 100 100 100 100 100 100 100 100 100 100 100 100 100 100 100 100 100 100 100 100 81 83 56 24 60 61 82 42 6 5 5 5 4 0 0 5 5 6 6
100 100 100 100 100 89 80 60 100 100 100 100 100 100 100 100 100 100 100 100 100 100 100 100 100 100 100 100 100 100 100 100 81 61 19 100 100 67 22 63 61 26 29 24 19 24 28 31 23
100 82 100 100 94 100 100 92 100 100 100 100 100 100 100 100 100 100 100 100 100 100 100 100 100 100 100 100 100 100 100 100 100 100 98 100 91 100 99 74 59 88 48 35 33 33 22 16 63
21 76 100 100 100 90 100 69 92 99 100 100 100 100 100 100 100 100 100 100 100 100 100 100 100 100 100 100 100 100 100 100 100 100 100 99 67 94 100 94 36 100 100 100 100 100 100 100 100
99 100 100 100 100 100 100 94 84 98 5 48 100 100 100 100 100 100 100 100 100 100 100 100 100 100 100 100 100 100 100 100 100 100 100 100 96 98 94 100 100 100 100 100 100 100 100 100 67
57 100 100 100 100 100 100 100 100 64 54 5 63 100 100 100 100 100 100 100 100 100 100 100 100 100 100 100 100 100 100 100 100 100 100 100 100 100 100 99 100 100 100 100 100 100 100 100 100
96 100 100 82 100 100 100 100 94 100 100 100 59 72 100 100 99 100 100 100 100 100 100 100 100 100 100 100 100 100 100 100 100 100 100 100 100 100 100 100 100 100 100 100 100 100 100 100 100
100 100 100 100 100 100 100 95 100 52 98 71 98 99 92 100 100 93 100 100 100 100 100 100 100 100 100 100 100 100 100 100 100 100 100 100 100 99 60 96 100 100 100 100 100 100 100 100 100
100 100 100 100 100 100 100 74 100 100 100 100 100 70 94 100 100 99 70 100 100 100 100 100 100 100 100 100 100 100 100 100 100 100 100 100 100 100 100 100 100 100 100 100 100 100 100 100 100
100 100 100 100 100 100 100 100 100 100 100 100 100 100 100 100 100 100 100 100 100 100 100 100 100 100 100 100 100 100 100 100 100 100 100 100 100 100 100 100 100 100 100 100 100 100 100 100 100
100 100 99 100 100 72 100 100 100 41 25 2 12 98 72 21 100 100 100 100 100 100 100 100 100 100 100 100 100 100 100 99 100 100 100 100 100 100 100 100 100 100 100 100 100 100 100 100 100
100 100 100 99 100 53 7 78 100 96 7 2 0 0 0 98 35 93 100 100 100 100 100 100 100 100 100 100 100 100 91 62 73 87 85 100 100 100 100 100 100 100 100 100 100 100 100 100 100
100 100 93 76 47 84 100 100 100 100 99 2 0 0 1 100 100 100 100 100 100 100 100 100 100 100 100 100 100 99 82 68 74 98 97 100 96 100 100 100 100 100 100 100 100 100 100 100 100
99 100 100 96 100 100 100 100 100 99 20 5 0 0 0 0 1 2 21 76 76 100 100 100 100 100 100 100 100 100 100 100 98 90 100 74 68 64 99 97 100 100 100 100 100 100 100 100 100
14 92 100 71 97 100 100 100 100 100 14 2 0 0 0 0 0 0 0 97 99 92 100 100 100 100 100 100 100 98 100 100 100 98 95 85 85 83 88 100 100 100 100 100 100 100 100 100 100
99 96 100 100 100 100 100 100 100 76 10 2 0 0 0 0 0 0 0 1 49 62 7 100 100 100 100 100 100 100 100 100 100 100 100 100 98 86 78 59 94 100 100 100 100 100 100 100 100

GFSSGP_prec_cloud_066.txt.gz
Cloud_Cover
5 71 100 100 100 31 30 100 100 100 100 91 91 99 74 85 100 26 63 8 99 93 5 5 3 0 4 5 0 0 0 0 0 18 12 0 4 0 0 0 71 83 32 45 65 88 0 0 0
5 45 100 100 100 59 70 100 100 90 97 100 100 100 94 89 71 22 24 5 75 100 4 2 5 5 5 2 4 0 1 0 0 32 8 4 22 0 0 0 56 100 100 100 99 16 2 0 2
32 94 91 94 100 64 100 100 100 100 100 100 100 100 25 25 43 53 36 5 6 97 69 3 5 5 5 4 0 6 0 0 0 7 8 7 8 0 0 0 0 24 85 98 62 5 5 5 5
95 99 77 20 100 100 100 100 100 100 100 100 100 100 100 100 98 100 34 18 5 60 100 14 5 2 5 4 0 0 0 0 0 0 1 24 4 0 0 0 0 0 1 5 2 5 5 5 5
98 26 50 5 42 100 100 100 100 91 100 100 100 100 98 100 96 99 83 5 5 45 13 9 0 4 5 0 0 0 0 0 0 0 2 44 4 0 0 0 0 0 1 5 9 17 13 8 5
99 95 8 5 6 100 100 99 100 100 100 100 90 100 100 100 100 100 94 75 19 30 34 8 5 0 3 0 0 0 0 0 0 0 7 34 1 0 0 0 2 0 5 6 68 72 52 10 7
46 84 9 1 2 100 100 46 100 100 100 100 100 64 99 100 100 100 100 100 89 56 100 100 5 5 4 3 0 0 0 0 2 0 59 4 0 0 0 0 0 0 31 24 5 7 5 5 27
100 28 46 5 5 100 100 84 100 100 100 100 100 52 100 100 100 97 100 100 100 100 100 100 5 5 3 8 2 2 0 0 0 0 0 0 0 0 0 0 0 0 5 5 5 5 5 5 11
100 98 51 32 10 100 93 39 100 100 100 100 92 94 100 100 100 100 100 100 100 100 89 100 27 22 7 5 55 5 2 0 0 0 0 0 0 0 0 0 0 0 0 5 5 5 5 6 36
100 92 45 4 45 83 91 100 100 100 100 100 100 100 100 100 100 100 100 100 86 100 60 94 92 100 100 21 41 13 5 5 0 0 5 0 0 0 0 0 0 0 0 1 5 51 33 26 28
100 97 13 61 100 92 55 100 100 100 100 100 100 100 100 100 100 100 100 100 100 83 100 100 100 100 100 85 88 5 5 6 48 5 5 5 1 0 0 1 0 0 4 0 1 5 5 8 16
100 100 94 100 100 72 5 79 100 100 99 100 100 100 100 100 100 100 100 92 63 98 100 100 100 100 87 93 98 48 5 54 85 81 10 5 5 5 3 2 0 0 0 0 0 0 0 0 0
100 100 100 100 82 100 87 94 100 100 77 100 100 100 100 100 100 100 100 100 100 100 100 100 87 100 100 100 100 100 72 47 75 100 27 14 31 48 25 5 5 2 0 0 0 0 0 0 0
100 100 100 100 97 100 79 5 99 100 100 100 100 100 100 100 100 100 100 100 100 100 100 100 99 100 100 100 98 85 86 76 74 83 86 47 66 39 27 22 5 5 5 5 4 5 5 5 5
100 100 100 100 100 85 98 83 7 100 100 100 100 100 100 100 100 100 100 100 100 100 100 100 100 99 100 100 84 100 100 100 96 94 100 88 60 55 96 55 9 24 5 5 5 5 5 5 5
100 100 100 100 100 100 82 35 96 94 100 100 100 100 100 100 100 100 100 100 100 100 100 100 100 100 100 100 99 100 100 100 99 100 100 100 100 98 84 36 43 99 52 36 51 76 81 71 29
100 100 100 95 100 100 100 79 100 99 63 100 100 100 100 100 100 100 100 100 100 100 100 100 100 100 100 100 100 100 100 100 100 100 100 100 100 100 97 76 90 92 100 100 99 100 100 100 100
74 100 100 100 97 100 100 90 95 81 6 99 100 100 100 100 100 100 100 100 100 100 100 100 100 100 100 100 100 100 100 100 100 100 100 100 100 100 100 72 52 96 100 100 100 100 100 100 100
7 100 100 100 100 100 100 99 54 91 27 63 95 100 100 100 100 100 96 100 100 100 100 100 100 100 100 100 100 100 100 100 100 100 100 100 100 100 100 98 100 100 100 100 100 100 100 100 100
100 98 100 100 100 100 100 100 100 100 50 100 100 98 100 100 100 95 100 100 100 100 100 100 100 100 100 100 100 100 100 100 100 100 100 100 100 100 100 100 100 100 100 100 100 100 100 100 100
100 82 100 100 100 100 100 96 81 79 9 74 100 100 86 100 100 97 100 99 97 94 100 100 100 100 100 100 100 100 100 100 100 100 100 100 100 100 100 100 100 100 100 100 100 100 100 100 100
100 92 100 100 100 100 100 100 100 100 69 79 100 99 100 100 100 91 100 100 100 100 100 100 100 100 100 100 100 100 100 100 100 100 100 100 100 100 100 88 100 100 98 98 100 100 100 100 100
99 73 100 100 100 100 97 69 98 55 79 70 100 5 38 81 82 100 100 100 100 100 100 100 100 100 100 100 100 100 100 100 100 100 100 100 100 100 100 100 100 100 100 100 100 100 100 100 100
93 92 88 100 100 100 100 42 100 100 100 92 100 45 67 75 5 68 100 100 100 80 100 100 100 100 100 100 100 100 100 100 100 100 100 100 100 100 100 100 100 100 100 100 100 100 100 100 100
57 73 74 58 5 5 40 24 100 7 86 100 99 100 100 95 81 18 29 100 100 100 100 94 100 100 100 100 100 100 100 100 100 100 100 100 100 100 100 100 100 100 100 100 100 100 100 100 100
94 98 100 99 5 80 65 20 100 100 100 99 100 99 37 37 15 88 76 100 96 100 100 100 100 100 100 100 100 100 100 100 100 100 99 79 100 92 100 100 100 100 100 100 100 100 100 100 100
93 97 18 100 98 76 100 100 100 100 100 100 100 100 99 38 98 11 61 100 91 100 100 100 100 99 100 100 100 100 100 100 100 100 100 100 100 100 83 100 100 100 100 100 100 100 100 100 100
100 100 100 100 100 100 100 100 100 100 100 100 100 100 100 100 70 5 0 12 14 21 100 100 100 100 100 100 100 95 100 100 100 100 74 100 98 99 48 45 70 80 80 100 100 100 100 100 100
100 100 100 100 100 100 100 100 100 100 100 79 86 23 1 1 0 0 0 0 0 1 100 100 85 100 100 100 100 100 100 99 100 100 100 100 100 72 87 82 100 93 100 99 52 99 82 100 100
96 100 100 100 100 100 100 100 100 100 100 100 100 81 5 5 5 0 0 0 0 4 100 100 100 100 95 100 100 100 100 100 100 100 100 100 87 98 100 80 91 100 100 100 100 39 80 100 100

GFSSGP_prec_cloud_069.txt.gz
Cloud_Cover
100 78 95 100 100 37 100 100 100 100 97 80 96 46 98 99 69 5 69 30 7 13 5 5 5 4 3 0 0 0 0 0 23 8 0 0 0 6 2 2 2 51 4 0 9 0 0 0 1
100 100 99 94 100 9 79 100 100 100 100 100 98 78 90 100 95 62 31 25 41 44 9 12 24 19 5 0 0 0 4 1 0 0 4 5 5 5 99 99 100 61 0 8 0 0 0 5 5
100 97 93 100 88 83 100 100 100 100 100 100 94 100 81 100 89 84 76 6 5 11 5 5 31 100 5 5 6 0 0 0 2 0 0 1 1 5 1 3 100 89 94 60 5 5 5 5 5
100 36 75 12 3 100 100 100 100 100 100 45 100 100 90 100 100 99 72 64 5 25 11 5 28 100 5 5 5 0 0 0 18 0 3 0 0 0 0 0 0 28 78 0 0 5 5 5 5
100 100 98 5 0 100 100 100 100 100 100 100 100 100 100 100 100 100 97 6 6 5 5 5 6 93 94 5 5 5 0 0 15 25 19 0 0 0 0 0 0 3 0 0 0 5 5 7 35
100 100 74 3 0 100 100 100 100 100 100 100 100 99 100 100 100 97 100 95 5 25 63 30 6 5 86 69 5 1 0 0 0 8 1 0 0 0 0 0 0 2 2 0 0 5 5 29 5
100 100 86 2 0 100 100 100 100 100 100 100 100 100 100 100 100 100 87 61 67 5 29 47 10 81 5 5 5 2 4 0 0 0 0 0 0 0 0 0 0 0 0 0 0 4 5 5 5
100 100 94 5 5 9 100 95 100 100 100 100 100 100 96 100 100 100 99 100 84 100 38 28 48 37 21 39 5 5 1 2 0 0 2 0 0 0 0 0 0 0 0 0 0 0 5 5 5
100 100 100 7 5 89 60 100 47 100 100 100 100 100 100 100 100 100 100 73 100 99 100 59 24 59 82 40 30 5 5 5 0 1 1 0 0 0 0 0 0 0 0 0 0 0 5 4 5
100 100 100 90 28 98 14 94 90 62 100 100 100 100 100 100 100 100 100 100 100 100 98 100 78 57 89 100 99 5 5 5 4 4 4 0 0 0 0 0 1 0 0 0 0 0 0 0 0
100 77 75 100 100 100 47 16 100 92 100 100 100 100 100 100 100 100 100 100 100 100 100 100 89 92 70 88 100 6 5 5 5 5 13 11 5 0 1 14 4 4 0 0 0 0 0 0 3
99 100 100 100 100 87 72 98 95 100 100 100 100 100 100 100 100 100 100 100 100 100 99 100 100 100 91 99 97 99 47 5 5 5 5 5 5 13 5 12 5 4 5 5 5 2 0 5 1
31 100 100 100 100 100 74 88 99 100 100 100 100 100 100 100 100 100 100 100 100 100 100 87 99 100 84 78 99 71 52 100 97 100 95 50 6 11 13 8 5 5 5 5 5 3 2 1 5
12 100 100 100 100 100 61 54 92 16 100 100 100 100 100 100 100 100 100 100 100 100 100 100 100 100 98 91 100 98 54 50 10 30 55 93 96 90 57 13 17 10 5 5 5 5 5 5 5
99 100 100 100 100 100 100 76 5 73 83 100 100 100 100 100 100 100 100 100 100 100 100 100 100 100 100 100 100 100 100 73 41 48 93 83 94 100 100 99 100 51 9 6 5 5 6 16 57
97 100 100 100 100 100 100 70 94 37 18 100 100 100 100 100 100 100 100 100 100 100 100 100 95 100 100 100 100 71 100 100 100 100 76 100 100 100 100 100 100 100 100 32 7 42 98 60 22
100 100 100 100 100 100 100 74 100 99 38 81 100 100 100 100 100 100 100 100 100 100 100 100 98 100 100 100 100 96 100 100 100 100 100 100 100 100 100 100 100 100 100 88 30 56 65 100 99
99 100 100 100 100 100 100 100 100 97 75 5 100 100 100 100 100 100 100 100 100 100 100 100 100 100 100 100 84 97 100 100 98 100 100 100 100 100 100 100 100 100 91 100 100 100 100 100 100
97 100 100 100 100 100 100 100 100 71 72 78 94 100 100 100 100 100 100 100 100 100 100 100 100 100 100 100 99 89 64 100 100 100 100 100 100 100 100 100 100 100 100 100 100 100 100 100 100
100 100 100 100 100 100 100 100 63 85 100 92 5 57 100 100 100 97 100 100 100 100 100 100 100 100 100 100 100 100 100 99 100 100 100 100 100 100 100 100 100 100 100 100 100 100 100 100 100
100 72 100 100 100 100 100 100 100 42 92 99 87 2 70 100 100 100 100 100 100 100 100 100 100 100 100 100 100 100 100 100 100 100 100 100 100 100 100 100 100 100 100 100 100 100 100 100 99
98 71 100 100 100 100 100 100 100 99 100 98 95 35 33 92 100 100 100 100 100 100 100 100 100 100 100 100 100 100 100 100 100 100 100 100 100 100 100 100 100 100 100 100 100 100 100 91 94
45 74 100 100 100 100 100 100 100 87 47 34 75 77 13 12 78 100 100 100 100 100 100 100 100 100 100 100 100 100 100 100 100 100 100 100 100 100 100 100 100 100 100 100 100 100 99 99 91
86 99 100 100 100 100 100 100 100 100 88 14 56 83 18 39 42 89 100 100 100 100 100 100 99 98 100 100 100 100 100 100 100 100 100 100 100 100 100 100 98 100 100 100 100 100 100 100 100
53 85 100 100 100 100 100 100 100 100 52 50 96 6 4 5 37 47 100 100 100 100 100 86 64 32 62 35 97 100 100 100 100 100 100 100 100 100 100 100 100 100 100 100 100 100 100 100 100
84 100 100 100 100 100 100 100 100 100 100 45 88 16 39 24 5 4 0 0 7 90 100 100 12 38 83 80 74 82 100 100 100 100 100 100 100 100 100 100 100 100 100 100 100 100 100 100 100
60 5 8 23 100 100 100 100 100 97 72 30 11 100 100 100 97 5 24 99 4 0 2 59 100 100 63 100 100 100 100 100 100 100 100 100 100 100 100 100 100 99 98 94 95 98 100 100 100
69 5 5 5 73 98 100 100 100 93 69 42 7 100 100 7 13 5 4 2 4 52 100 100 12 65 100 100 100 100 100 100 100 100 100 93 82 96 94 100 100 99 100 94 40 32 78 9 60
86 96 7 93 92 60 93 27 30 52 90 63 34 59 90 24 95 5 0 0 0 10 95 60 3 30 100 61 100 100 100 100 100 99 100 100 100 100 100 76 93 99 100 86 63 81 31 53 34
99 100 96 100 100 100 100 70 100 97 95 97 5 5 16 8 5 5 5 5 5 5 6 26 6 0 94 100 55 21 100 100 100 100 97 100 100 99 100 100 100 96 83 66 54 97 80 90 92

GFSSGP_prec_cloud_072.txt.gz
Cloud_Cover
100 100 100 100 22 84 56 100 100 100 100 64 96 66 55 99 81 22 24 5 8 70 100 100 8 5 3 4 0 0 0 12 3 1 0 2 5 1 20 38 11 93 21 0 0 0 0 0 0
100 100 100 100 31 9 99 100 100 100 99 97 100 25 99 100 63 76 69 54 5 32 100 100 50 50 5 5 3 1 13 0 0 6 0 0 5 4 5 32 47 12 0 0 0 0 1 5 5
100 66 97 100 40 0 100 100 100 100 100 100 92 21 79 100 50 81 26 67 20 25 16 100 20 5 10 5 5 0 27 0 0 0 0 1 9 10 88 100 95 0 0 0 0 0 2 5 5
100 100 87 68 6 0 100 100 100 100 100 100 100 67 74 97 91 47 42 43 13 14 5 5 6 5 5 6 5 20 23 5 9 0 4 0 5 0 61 34 0 0 0 0 0 0 0 0 5
100 100 95 51 0 0 100 100 100 100 100 100 100 100 93 100 99 93 91 66 53 49 29 5 91 5 5 5 52 40 29 28 15 15 5 0 0 0 2 6 1 44 0 0 0 0 0 0 1
99 100 100 46 1 0 89 100 51 100 100 100 100 100 100 100 100 99 100 99 71 48 34 26 26 71 28 32 11 54 14 97 12 2 0 0 0 0 0 2 53 2 3 4 0 0 0 0 0
44 99 82 11 5 1 89 100 100 100 100 100 100 100 97 100 100 100 100 100 100 100 79 9 19 88 100 29 34 12 78 6 55 5 0 0 0 0 0 0 0 0 1 0 0 0 0 0 0
62 100 100 44 44 7 52 100 100 100 100 100 100 99 99 100 100 100 100 100 100 100 100 100 95 26 59 31 68 14 36 6 45 5 4 0 0 0 0 0 0 0 0 0 0 0 0 0 0
45 100 100 76 8 66 100 100 100 85 100 100 100 100 100 100 100 100 100 100 100 100 100 100 100 100 84 41 7 65 19 40 5 56 5 1 1 0 0 0 0 0 0 0 0 0 0 0 0
98 100 100 58 77 100 86 54 100 100 100 100 100 100 99 100 100 100 100 100 100 100 100 100 100 100 100 50 30 47 70 70 5 11 5 5 4 0 0 1 0 0 0 0 5 5 1 2 0
11 96 100 77 100 100 99 52 100 100 100 100 100 100 100 100 100 100 100 100 100 100 100 100 100 100 100 92 88 99 100 100 93 5 5 5 5 5 11 18 9 5 5 2 5 5 5 5 5
40 60 100 100 100 100 100 100 90 93 100 100 100 100 100 100 100 100 100 100 100 100 100 100 100 100 100 100 100 100 100 78 87 6 5 11 7 12 20 28 16 15 16 33 45 11 12 22 36
1 73 100 100 100 100 100 100 71 100 100 100 100 100 100 100 100 100 100 100 100 100 100 100 100 100 100 100 100 100 100 94 43 37 11 95 69 32 91 37 7 6 6 10 22 56 64 6 6
6 51 100 100 100 100 100 100 63 100 100 100 100 100 100 100 100 100 100 100 100 100 100 100 100 100 100 100 97 90 100 100 100 84 54 99 99 100 100 97 62 24 5 15 82 69 14 38 47
20 47 100 100 100 100 100 100 65 50 100 100 100 100 100 100 100 100 100 100 100 100 100 100 100 100 100 100 98 100 100 100 100 100 100 60 78 100 63 79 92 93 96 100 100 100 100 31 5
70 86 100 100 100 100 100 100 98 41 100 100 100 100 100 100 100 100 71 98 100 100 100 100 100 100 100 100 98 100 100 100 100 100 100 100 72 97 100 95 100 100 100 100 100 100 100 100 92
76 99 100 100 100 100 100 100 100 85 65 100 100 100 100 100 100 100 100 100 100 100 100 100 100 100 100 100 98 100 100 100 100 100 100 97 99 93 100 100 100 100 100 100 100 100 100 100 100
74 68 100 100 100 100 100 100 100 100 97 97 100 100 51 100 100 100 100 100 100 100 100 100 100 100 100 100 100 100 100 91 100 100 100 100 100 100 100 100 100 100 100 100 100 100 100 100 100
47 86 100 100 100 100 100 100 100 100 100 25 100 100 93 95 100 100 100 100 100 100 100 100 100 100 100 100 100 100 100 100 100 100 100 100 100 100 100 100 100 100 100 100 100 100 100 100 100
37 79 100 100 100 100 100 100 100 100 89 48 58 98 100 99 100 100 100 100 100 100 100 100 100 100 100 100 100 100 100 100 100 100 100 100 100 100 100 100 100 100 100 100 100 100 100 100 100
97 94 100 100 100 100 100 100 100 100 100 86 57 100 100 100 99 100 100 100 100 100 100 100 100 100 100 100 100 100 100 100 100 70 93 100 100 100 100 100 100 100 100 100 100 100 100 100 100
100 99 100 100 100 100 100 100 100 100 100 85 99 23 11 100 100 100 100 100 100 100 100 100 100 100 100 100 100 100 100 100 100 98 86 100 100 100 100 100 100 100 100 100 100 100 100 100 100
81 98 100 100 100 100 100 100 100 100 100 100 55 85 5 5 54 100 100 100 100 100 100 100 100 100 100 100 96 100 100 100 100 100 100 100 100 100 100 100 100 100 100 100 100 100 100 100 100
85 92 100 100 100 100 100 100 100 99 100 99 21 67 87 9 5 5 99 100 100 91 100 100 100 100 100 100 100 100 100 100 100 100 100 100 100 100 100 100 100 100 100 100 100 100 84 73 76
100 24 100 100 100 100 100 100 100 100 100 99 17 5 5 5 0 0 0 94 100 100 96 100 100 100 100 100 100 100 100 100 100 100 100 100 100 100 100 100 100 100 98 100 89 85 78 89 76
96 78 100 100 100 100 100 100 100 100 100 100 100 97 41 17 1 0 1 2 64 100 100 100 100 100 100 100 100 100 100 100 100 100 100 100 100 100 100 100 100 100 100 100 100 99 100 100 99
94 22 96 100 100 100 100 100 100 100 100 100 100 99 8 62 53 26 1 0 4 96 88 100 100 100 100 100 100 80 95 100 100 100 100 100 100 100 100 100 100 100 100 100 100 62 61 100 100
50 97 70 97 100 100 100 100 100 100 100 100 100 87 65 82 100 20 5 0 0 27 17 6 82 100 100 100 100 99 69 100 40 98 100 100 100 100 100 100 100 100 100 100 100 100 100 100 98
5 5 5 11 83 100 98 100 100 100 100 100 100 100 44 8 5 3 0 4 0 0 0 0 0 0 41 100 100 100 100 100 100 100 100 100 100 100 100 88 97 76 71 79 91 85 87 63 63
5 5 5 23 64 40 100 100 100 100 89 43 5 0 0 0 0 0 2 5 5 5 4 1 0 0 0 0 1 23 67 90 100 100 100 100 100 100 100 100 100 100 99 96 98 100 98 100 100

GFSSGP_prec_cloud_075.txt.gz
Cloud_Cover
70 100 100 100 100 55 0 60 100 100 100 100 55 100 100 8 9 74 44 56 31 42 6 5 76 35 72 68 5 5 26 4 0 0 0 17 19 65 20 29 76 0 0 0 0 42 27 0 28
14 100 100 100 100 40 0 1 100 100 100 100 100 100 100 44 56 100 83 73 14 40 20 3 36 100 100 100 63 5 37 1 0 0 0 0 11 18 97 20 58 0 0 0 1 0 0 0 0
6 100 100 100 85 5 0 0 100 100 100 100 100 100 92 74 83 88 100 59 45 37 24 2 5 35 93 100 81 20 30 5 4 0 7 0 14 40 66 25 5 0 0 0 0 0 0 0 0
4 87 100 100 67 2 0 0 100 100 100 100 100 100 87 88 98 47 100 36 43 34 5 5 5 45 91 100 12 20 29 8 14 0 12 57 4 14 74 48 0 6 4 0 0 0 0 0 0
4 17 100 100 50 5 0 0 96 100 100 100 100 100 100 97 100 100 100 67 29 56 12 5 5 8 14 91 86 69 6 9 6 5 5 0 47 100 47 3 0 6 0 0 0 0 0 0 0
2 24 98 100 14 5 5 4 5 100 100 100 100 100 100 99 100 100 100 85 71 29 5 5 5 5 5 16 28 19 7 5 6 7 8 5 6 92 99 10 7 8 3 0 0 0 0 0 0
59 28 100 8 100 69 58 85 73 100 100 100 100 100 100 100 100 100 86 79 100 100 84 72 6 89 24 92 40 100 28 34 5 25 48 8 4 12 33 100 26 17 3 0 0 0 0 0 0
42 99 88 100 96 92 100 100 53 83 100 100 100 100 100 100 100 100 100 100 100 100 100 100 100 100 92 100 22 80 81 59 35 5 46 18 8 5 5 5 0 5 0 0 0 0 0 0 0
1 100 100 68 99 28 100 100 100 87 100 100 100 100 100 100 100 100 100 100 100 100 100 100 100 100 100 100 100 97 69 43 23 5 5 5 5 5 5 5 4 3 0 0 0 0 0 0 0
18 80 46 7 96 100 100 100 100 100 100 100 100 100 100 95 100 100 100 100 100 100 100 100 100 100 100 100 100 100 99 68 98 87 58 11 5 5 5 5 5 5 3 2 0 0 0 0 0
10 19 5 96 100 100 100 100 100 62 100 100 100 100 56 100 100 100 100 100 100 100 100 100 100 100 100 100 97 94 100 90 54 46 21 39 14 48 8 10 61 29 5 5 5 5 5 5 5
92 0 14 46 100 100 100 100 100 94 100 100 100 100 100 100 100 100 100 100 100 100 100 100 100 100 100 100 100 100 100 100 96 100 78 33 93 98 48 29 17 16 9 5 5 5 5 45 64
86 2 13 93 100 100 100 100 100 43 100 100 100 100 100 100 100 100 100 100 100 100 100 100 100 100 100 100 99 100 100 100 100 100 100 80 97 100 55 45 74 23 15 35 5 8 28 10 60
5 15 2 85 88 100 100 99 100 97 100 100 100 100 100 100 100 99 100 100 100 100 100 100 100 100 100 100 100 99 100 100 100 67 100 100 100 98 89 100 98 100 90 51 18 56 51 72 100
9 28 8 92 100 100 100 100 100 92 96 100 100 100 100 100 100 100 100 100 100 100 100 100 100 100 100 100 100 99 100 100 99 100 100 100 100 100 100 100 81 100 74 75 30 84 99 100 100
46 100 39 100 100 100 100 96 100 100 96 100 100 100 100 100 100 100 100 100 100 100 100 100 100 100 100 100 100 100 100 74 93 100 100 59 61 100 100 100 100 98 84 55 73 81 100 100 100
75 98 25 100 100 100 100 100 100 100 100 100 100 100 100 100 100 100 100 100 100 100 100 100 100 100 100 100 100 100 100 100 93 86 100 100 100 100 100 100 99 100 82 99 100 100 100 100 100
19 8 62 100 100 100 100 95 100 100 100 100 100 100 100 100 100 100 100 100 100 100 100 100 100 100 100 100 100 100 100 100 100 95 96 100 100 100 100 100 100 100 100 100 100 100 100 100 100
5 5 96 100 100 100 100 100 100 100 100 100 100 100 100 100 100 100 100 100 100 100 100 100 100 100 100 100 100 100 100 74 100 100 100 100 100 100 100 100 100 100 100 100 100 100 100 100 100
5 5 100 100 100 100 100 100 100 100 100 100 100 100 100 100 100 100 100 100 100 100 100 100 100 100 100 100 100 100 100 100 100 100 100 100 100 100 100 100 100 100 100 100 100 100 100 100 100
52 6 100 100 100 100 100 100 100 100 100 89 100 100 100 100 100 100 100 100 100 100 90 100 100 100 100 100 100 100 100 100 100 98 99 100 100 100 100 100 100 100 100 100 100 100 100 100 100
96 73 100 100 100 100 100 100 100 100 100 100 71 100 100 100 100 100 100 100 100 100 100 100 97 100 100 100 100 100 100 100 100 100 100 100 100 100 100 100 100 100 100 100 100 100 100 98 32
5 100 100 100 100 100 100 100 100 100 100 100 80 57 100 100 100 100 100 100 100 100 100 100 73 100 100 100 100 100 100 100 100 100 100 100 100 100 100 100 100 100 100 100 100 100 86 83 97
94 100 100 100 100 100 100 100 100 100 100 100 100 100 74 100 100 97 68 100 100 100 100 100 100 100 100 99 93 100 100 100 100 100 100 100 100 100 100 100 100 100 100 100 100 100 100 60 90
100 80 100 100 100 100 100 100 100 100 100 100 100 99 46 25 100 100 100 61 94 100 100 100 100 100 100 100 100 100 100 100 100 100 100 100 100 100 100 100 100 100 100 100 100 100 100 86 98
46 100 100 100 100 100 100 100 100 100 100 100 100 76 100 100 51 80 100 100 99 47 30 27 100 100 100 100 100 100 100 100 100 100 100 100 100 100 100 100 100 100 100 100 100 100 100 100 100
96 100 100 100 100 100 100 100 100 100 91 100 100 68 37 5 14 5 5 99 100 100 87 52 78 93 100 100 100 100 100 100 100 100 100 100 100 100 100 100 100 100 100 100 100 100 100 100 100
41 100 86 100 100 100 100 100 100 100 100 100 99 85 100 78 4 1 1 0 14 95 100 99 14 97 100 88 94 100 100 100 100 100 100 100 100 100 100 100 100 100 100 100 100 100 100 100 100
35 33 100 100 100 100 100 100 100 100 100 100 93 69 91 66 52 57 12 5 0 0 1 83 100 100 100 100 100 100 92 100 100 100 100 100 100 100 100 100 100 100 100 100 100 100 100 100 100
5 37 68 100 100 93 19 100 100 100 100 100 100 100 100 100 100 100 40 2 0 0 1 0 1 47 100 100 100 100 100 100 100 100 68 100 100 100 100 100 100 100 100 100 100 91 60 89 88

GFSSGP_prec_cloud_078.txt.gz
Cloud_Cover
0 0 3 70 75 87 27 3 5 0 100 83 100 100 50 95 7 8 44 100 15 85 5 5 5 5 2 11 5 5 21 15 4 18 25 36 35 9 47 14 39 4 1 0 71 100 99 4 0
0 0 7 98 98 90 5 1 0 24 90 100 100 100 97 98 63 81 100 78 35 41 12 5 5 5 6 6 5 26 23 34 5 5 22 6 24 26 50 89 1 5 2 55 100 67 4 0 0
7 0 27 92 100 70 5 1 0 96 88 100 100 100 100 72 63 96 29 94 67 35 9 5 5 5 3 2 6 66 100 100 45 5 5 5 5 100 46 94 3 5 7 21 15 0 0 0 0
0 0 11 74 100 5 1 0 0 52 41 100 100 100 92 89 100 88 100 48 40 75 29 5 5 5 5 4 7 39 59 100 56 5 5 19 78 44 41 32 2 5 17 23 5 0 0 0 0
2 1 39 55 100 4 5 10 0 5 5 99 100 100 100 100 100 95 100 87 46 62 14 5 5 10 7 5 12 5 5 95 23 6 5 7 96 100 100 9 8 5 2 21 0 0 0 0 0
18 0 59 100 80 12 49 67 0 5 5 80 100 100 100 100 100 100 100 100 98 56 11 5 23 5 52 5 8 5 5 62 60 5 89 36 23 30 40 5 4 0 0 0 0 0 0 0 0
38 50 15 8 5 26 100 93 74 71 47 6 100 100 100 100 100 100 100 99 100 88 67 21 43 7 50 22 21 10 5 5 5 5 16 24 98 7 5 5 4 5 5 0 0 0 0 0 0
12 42 0 0 5 5 90 100 100 100 95 6 100 100 100 100 100 100 100 100 100 100 100 51 48 88 83 81 17 93 35 6 5 5 7 16 33 29 5 5 5 20 3 3 5 1 0 0 0
2 20 7 2 15 5 92 100 100 100 100 14 98 100 100 100 100 100 100 100 100 100 100 100 100 100 100 100 100 100 100 100 92 19 53 99 5 5 5 5 5 5 5 5 5 5 3 0 0
33 58 2 0 0 0 100 100 100 100 100 98 49 100 100 100 75 100 100 100 100 100 100 100 100 100 100 100 100 100 100 100 100 99 13 7 5 5 5 5 10 5 5 5 9 5 4 0 5
6 29 0 0 0 5 100 100 100 100 100 7 48 100 100 100 100 100 100 100 100 100 100 100 100 100 100 100 100 100 99 100 100 67 31 25 18 26 52 22 18 5 5 5 5 5 5 5 5
21 0 4 0 0 2 93 100 100 100 80 9 100 100 100 100 100 100 100 100 100 100 100 100 100 100 100 100 100 100 100 100 100 100 66 95 98 70 24 47 13 10 13 5 6 18 9 7 6
2 0 2 1 3 20 96 100 100 100 98 96 100 100 100 100 100 72 100 100 100 100 100 100 100 100 100 100 100 100 100 100 100 100 100 100 100 98 100 88 26 21 42 10 77 100 97 75 42
4 0 0 8 5 11 94 100 100 100 100 100 82 100 100 100 100 100 76 100 100 100 100 100 100 100 100 100 100 100 100 100 100 83 68 100 76 76 100 100 88 84 20 5 5 21 30 100 99
5 30 62 23 4 11 95 100 100 100 100 93 43 100 100 100 100 100 100 100 100 100 100 100 100 100 100 100 100 100 100 59 99 54 31 90 100 100 100 100 99 83 58 98 98 100 99 100 84
74 49 98 5 5 83 100 98 100 100 100 67 38 100 100 100 100 100 98 100 100 100 100 100 100 100 100 100 100 100 100 100 100 99 100 81 80 51 100 100 100 94 100 90 100 100 100 93 91
90 78 52 45 97 100 100 100 100 100 99 54 48 100 100 100 100 100 100 100 100 100 100 100 100 100 100 100 100 100 100 100 100 97 94 50 80 98 100 95 90 98 97 99 100 100 100 100 100
95 98 100 67 100 100 100 100 100 100 81 99 100 100 100 100 100 100 100 100 100 100 100 100 100 100 100 100 99 100 100 100 100 100 85 100 100 95 95 100 100 100 99 100 100 100 100 100 100
100 65 100 41 100 100 100 100 100 100 100 100 100 100 100 100 100 100 100 100 100 100 100 100 100 100 100 100 100 100 100 100 100 100 100 86 82 99 100 100 100 100 100 100 100 100 93 99 100
100 71 78 19 100 100 100 100 100 100 100 100 100 100 100 100 100 100 100 100 100 100 100 100 100 100 100 100 100 100 100 100 100 100 100 100 100 100 100 100 100 100 100 100 100 100 100 100 100
79 2 46 80 100 100 100 100 100 100 98 100 100 100 100 100 100 100 100 100 100 100 100 100 100 100 100 100 100 100 100 100 100 100 100 100 97 100 100 100 100 100 100 100 100 100 100 100 100
19 3 90 100 100 100 100 100 100 100 100 94 100 100 100 100 100 100 100 100 100 100 100 100 100 100 100 100 100 100 100 100 100 100 100 100 100 100 97 100 100 100 100 100 100 100 100 100 84
99 99 100 100 100 100 100 100 100 100 100 100 100 100 100 100 100 100 100 100 100 100 100 100 100 100 100 100 100 100 100 100 100 100 100 100 100 100 100 100 100 100 100 100 100 100 100 100 100
54 100 100 100 100 100 100 100 100 100 100 100 100 100 100 100 100 100 100 100 100 100 100 100 100 100 100 100 100 100 100 100 100 100 100 100 100 100 100 100 100 100 100 100 100 100 100 100 100
36 100 100 100 100 100 100 100 100 100 100 100 100 100 100 100 100 100 100 100 100 100 99 100 64 100 100 100 100 100 100 100 100 100 100 100 100 100 100 100 100 100 100 100 100 100 100 100 100
96 100 100 100 100 100 100 100 100 100 100 100 100 100 100 100 100 100 100 100 100 100 100 100 100 89 100 100 100 100 100 100 100 100 100 100 100 100 100 100 100 100 100 100 100 100 97 100 100
100 100 100 100 100 100 100 100 100 100 100 100 100 100 100 100 100 100 100 100 100 100 100 100 100 100 100 100 98 100 100 100 100 100 100 100 100 100 100 100 100 100 100 100 100 100 100 100 100
100 100 100 100 100 100 100 100 100 100 99 99 100 100 66 95 100 100 100 100 99 100 100 100 100 100 100 100 100 92 98 100 100 100 100 100 100 100 100 100 100 100 100 100 100 100 100 100 100
100 100 100 100 100 100 100 100 100 100 100 100 100 92 82 40 83 100 100 100 100 29 96 100 100 100 100 100 100 100 100 100 100 100 100 100 100 100 100 100 100 100 100 100 100 100 100 100 100
98 87 90 100 100 100 100 100 70 84 100 100 100 100 100 6 5 8 98 100 100 100 91 12 18 96 100 100 100 100 100 100 100 100 100 100 100 100 100 100 100 100 100 100 100 100 100 100 100

GFSSGP_prec_cloud_081.txt.gz
Cloud_Cover
0 0 0 0 2 2 0 0 0 0 0 5 97 99 100 33 31 48 100 99 13 39 80 7 64 10 5 1 2 1 5 5 8 5 5 2 15 15 67 76 3 0 0 0 100 100 74 26 9
18 0 0 0 2 5 2 0 5 2 4 5 41 100 98 100 18 88 97 98 25 30 55 28 15 100 10 10 8 6 0 5 12 13 12 11 8 2 61 4 0 0 19 100 100 55 7 3 4
0 0 0 0 5 5 5 0 5 3 0 5 8 98 100 100 74 72 92 57 46 54 41 37 29 21 18 5 8 31 0 1 5 41 76 24 5 23 98 2 0 2 97 100 84 4 10 1 2
0 0 0 27 5 21 5 0 0 5 5 5 72 5 94 100 84 94 39 41 40 41 63 9 19 5 5 5 29 24 5 0 5 93 100 100 28 38 78 2 5 5 100 89 1 0 14 0 0
10 1 14 54 1 9 0 0 5 11 5 5 32 5 62 100 100 93 80 59 38 45 17 51 5 37 5 5 6 5 5 5 3 5 6 9 22 36 100 4 4 14 47 2 0 0 0 0 0
4 24 28 52 6 3 0 0 5 51 45 12 5 40 70 100 98 100 100 100 100 27 24 6 5 9 5 8 5 5 5 5 5 5 42 47 100 100 99 6 5 19 58 9 4 1 0 0 0
80 71 19 0 3 5 0 0 4 5 17 59 21 62 31 100 100 100 97 100 71 84 26 38 23 5 5 5 8 5 5 5 5 66 23 100 100 59 20 9 10 13 36 10 3 2 1 4 0
0 16 0 0 0 0 0 2 5 86 7 54 84 1 31 100 100 98 100 100 100 100 100 99 37 100 100 45 31 5 5 5 5 44 100 100 100 34 13 77 22 8 5 5 3 2 0 2 0
5 9 2 0 0 0 0 0 5 100 100 49 92 0 53 100 100 74 100 100 100 98 100 100 100 100 100 99 100 40 5 51 79 66 99 100 100 35 8 15 19 5 5 4 5 5 0 0 0
4 25 0 0 0 0 0 3 5 77 96 100 76 39 96 100 100 82 100 100 100 100 100 100 100 100 100 100 100 93 97 100 100 100 100 100 99 72 28 8 5 5 5 5 5 5 4 5 2
2 30 0 0 0 0 0 4 7 42 99 100 88 99 96 100 100 100 100 100 100 100 100 100 100 100 100 100 100 100 100 100 100 99 100 100 100 92 100 22 14 21 17 5 5 5 0 5 5
1 0 0 0 0 0 2 10 8 29 41 100 100 20 53 100 100 100 100 100 100 99 100 100 100 100 100 100 100 100 100 100 71 100 82 99 100 100 100 89 85 100 10 68 91 5 10 5 7
2 0 0 0 1 0 1 4 5 46 100 100 100 100 38 100 100 100 100 100 100 100 100 100 100 100 100 100 100 100 100 100 100 97 100 100 100 100 100 100 100 100 100 94 63 74 28 5 7
4 2 2 1 1 5 2 0 1 37 100 100 100 37 30 100 100 100 100 100 100 100 100 100 100 100 100 100 100 100 100 100 100 100 100 100 100 100 100 98 100 100 100 100 100 100 34 63 25
16 6 7 17 5 7 0 4 3 99 100 100 100 96 48 100 100 100 100 100 100 100 100 100 100 100 100 100 100 97 100 100 100 100 100 100 100 16 5 66 80 100 100 94 80 96 98 63 93
20 100 84 0 4 0 7 5 0 100 100 100 100 100 100 100 100 100 100 100 100 100 100 100 100 100 100 100 100 100 100 100 100 100 100 100 88 90 83 65 48 89 100 100 98 56 6 93 100
44 38 93 5 5 0 9 5 5 100 100 100 100 100 100 100 100 100 100 100 100 100 100 100 100 100 100 100 100 100 100 100 100 98 100 100 99 64 100 91 57 57 100 100 100 96 76 100 100
99 100 46 7 5 0 4 10 82 99 100 100 100 100 100 100 100 100 100 100 100 100 100 100 100 100 100 100 100 100 100 100 100 99 100 100 97 87 96 72 90 100 100 96 45 69 100 99 100
100 100 23 5 3 2 8 97 100 100 100 74 87 100 100 100 100 100 100 100 100 100 100 100 100 100 100 100 100 100 100 100 100 100 98 100 100 100 100 66 74 100 100 100 100 99 100 94 98
100 100 100 100 100 6 92 92 100 100 100 100 100 100 100 100 100 100 100 100 100 100 100 100 100 100 100 100 100 100 100 100 100 100 100 100 100 96 100 100 93 100 99 100 100 99 81 100 100
100 100 100 100 99 100 100 100 100 100 100 100 100 100 100 100 100 100 100 100 100 100 100 100 100 100 100 100 100 100 100 100 100 100 100 100 100 100 100 100 100 100 100 100 97 82 100 100 100
100 100 100 100 100 100 100 100 100 100 100 95 100 100 100 100 100 100 100 100 100 100 100 100 100 100 100 100 100 100 100 100 100 100 100 100 100 100 100 100 100 100 100 100 100 100 100 100 93
100 78 100 100 100 100 100 100 100 100 100 100 100 97 100 100 100 100 100 100 100 100 100 100 100 100 100 100 100 100 100 100 100 100 100 100 100 100 100 100 100 100 100 100 100 100 100 100 100
100 100 100 100 100 100 100 100 100 100 100 54 83 100 100 100 100 100 100 100 100 100 100 100 100 100 100 100 100 100 100 100 100 100 100 100 100 100 100 100 100 100 100 100 100 100 100 100 100
74 100 100 100 100 100 100 100 100 100 100 100 100 100 100 100 100 100 100 100 100 100 100 100 100 100 100 100 100 100 100 100 100 100 100 100 100 100 100 100 100 100 100 100 100 100 100 100 100
100 100 100 100 100 100 100 100 100 100 97 68 92 100 100 100 100 100 100 100 100 100 100 100 100 100 100 100 100 100 100 100 100 100 100 100 100 100 100 100 100 100 100 100 100 100 100 100 100
100 94 73 100 100 100 100 100 100 100 100 100 100 100 100 100 100 100 100 100 100 100 100 100 92 100 100 100 100 100 100 100 100 100 100 100 100 100 100 100 100 100 100 100 100 100 100 100 100
100 100 100 100 100 100 100 100 100 70 98 100 100 100 100 100 100 100 100 100 100 100 100 100 30 77 100 100 100 100 100 100 100 100 100 100 100 100 100 100 100 100 100 100 100 100 100 100 100
100 100 100 100 97 100 100 100 100 99 12 98 100 100 100 100 100 100 100 100 100 100 100 100 100 92 53 77 98 100 100 100 100 100 100 100 100 100 100 100 100 100 100 100 100 100 100 100 100
100 99 72 9 52 4 43 58 61 77 86 100 100 100 100 100 100 100 100 100 100 100 100 100 100 99 70 100 100 98 99 100 100 100 100 100 100 100 100 100 100 100 100 100 100 100 100 100 100

GFSSGP_prec_cloud_084.txt.gz
Cloud_Cover
8 0 0 0 0 0 0 3 5 4 0 0 6 5 44 53 62 65 15 62 88 52 100 55 21 31 10 6 49 10 5 1 0 0 5 14 5 28 90 19 3 6 3 78 100 91 100 100 84
67 19 1 29 2 2 0 4 38 0 0 1 1 5 52 6 90 93 45 5 100 100 100 100 29 43 97 5 70 21 5 34 0 2 0 31 4 48 81 1 0 0 100 100 100 93 75 38 0
6 28 15 2 5 0 4 21 5 2 0 0 5 4 77 6 100 72 96 78 83 100 98 100 98 100 95 19 90 67 5 5 0 0 5 1 2 84 84 4 4 50 100 100 57 4 2 7 4
2 0 14 3 5 4 5 25 98 0 0 0 5 5 5 5 91 87 100 74 98 88 99 85 96 31 96 86 16 99 7 5 4 0 2 5 82 100 100 5 30 97 99 62 5 3 0 0 0
0 1 4 5 5 5 71 15 5 0 0 1 0 5 5 5 86 86 100 100 96 43 79 31 95 5 5 69 28 15 94 8 5 5 4 53 41 100 20 6 71 100 36 15 12 7 2 0 0
10 1 3 5 5 5 13 43 4 0 0 2 2 1 21 5 12 100 97 100 91 67 59 64 6 13 5 12 11 17 83 48 5 5 38 81 52 100 100 74 36 99 67 9 5 5 8 8 0
5 12 1 0 1 5 28 5 4 0 0 3 5 2 2 5 55 98 100 100 100 100 99 100 44 5 5 5 15 61 65 91 5 5 93 45 77 100 100 100 98 100 97 8 5 5 4 2 1
16 29 5 2 0 0 16 5 0 0 0 0 5 7 15 6 31 100 100 100 100 100 100 100 100 40 37 26 5 18 100 28 9 36 100 100 100 100 100 100 99 100 17 5 5 5 5 5 4
5 44 5 0 0 0 0 1 0 0 0 4 34 10 5 0 82 77 98 100 100 100 100 93 100 100 100 100 98 98 64 86 88 83 84 100 90 35 17 5 64 25 7 6 11 5 5 5 5
12 5 5 0 1 3 1 5 2 2 0 0 59 17 4 13 60 54 99 100 100 100 100 100 100 100 100 100 100 100 100 70 100 98 70 95 23 48 63 77 81 40 83 21 5 5 5 5 4
5 5 5 5 3 3 0 3 5 5 4 0 27 52 1 2 5 78 100 100 100 100 100 100 100 100 100 100 100 100 100 100 100 100 85 95 100 100 100 100 100 100 100 42 5 5 5 5 5
4 4 3 5 36 59 1 22 6 5 5 11 8 100 5 5 16 63 97 32 100 100 100 100 100 100 100 100 100 100 100 100 100 100 100 100 100 100 99 100 34 74 100 23 14 10 8 48 21
2 0 0 3 5 5 3 1 16 4 0 0 2 37 4 5 87 100 100 100 100 100 100 100 100 100 100 100 100 100 100 100 100 100 100 100 100 100 100 14 99 100 99 100 100 100 84 37 10
1 5 5 5 5 5 5 3 27 0 0 4 44 8 33 5 100 100 100 100 100 100 100 100 100 100 100 100 100 100 100 100 100 84 100 100 100 99 100 96 91 100 78 99 73 53 91 100 100
5 4 0 1 3 5 0 0 0 0 0 5 64 100 98 100 92 100 100 100 100 100 100 100 100 100 100 100 100 100 100 94 100 100 100 100 100 100 89 99 100 75 77 100 100 100 100 100 100
13 7 44 0 2 2 5 0 0 0 5 58 57 72 100 100 51 100 100 100 100 100 100 100 100 100 100 100 100 100 100 100 100 100 100 100 100 100 100 100 94 81 69 97 99 100 100 100 100
100 6 4 3 5 2 22 0 0 4 5 55 24 100 100 100 96 100 100 100 100 100 100 100 100 100 100 100 100 100 100 100 100 100 100 100 100 100 100 100 89 100 80 5 47 100 100 100 63
100 95 68 34 16 6 7 0 5 4 6 60 62 97 100 98 79 100 100 100 100 100 100 100 100 100 100 100 100 100 100 100 100 100 100 100 100 100 100 100 99 100 73 90 46 90 100 91 98
79 80 94 100 94 87 5 0 5 55 56 97 98 99 88 90 96 100 100 100 100 100 100 100 100 100 100 100 100 100 100 100 100 100 100 100 100 100 100 100 99 100 100 90 64 100 70 6 8
100 99 100 77 93 78 11 5 5 60 99 98 100 100 100 100 100 100 100 100 100 100 100 100 100 100 100 100 100 100 100 100 100 100 100 100 100 100 100 100 100 100 100 100 100 96 96 56 51
100 100 100 93 100 84 16 33 54 61 58 100 100 90 89 100 100 100 100 100 100 100 100 100 100 100 100 100 100 100 100 100 100 100 100 100 100 100 100 100 100 100 100 100 100 66 82 69 68
100 100 100 100 100 95 35 91 99 8 100 100 66 98 100 100 100 100 100 100 100 100 100 100 100 100 100 100 100 100 100 100 100 100 100 100 100 100 100 100 100 100 100 100 100 100 100 95 100
100 100 100 100 100 100 100 100 100 100 92 99 85 100 100 100 100 100 100 100 100 100 100 100 100 100 100 100 100 100 100 100 100 100 100 100 100 100 100 100 100 100 100 100 100 100 100 100 100
100 100 100 100 100 100 100 100 100 100 100 100 100 100 100 100 100 100 100 100 100 100 100 100 100 100 100 100 100 100 100 100 100 100 100 100 100 100 100 100 100 100 100 100 100 100 100 100 100
100 100 100 100 100 100 100 100 100 100 100 100 100 100 96 100 100 100 100 100 100 100 100 100 100 100 100 100 100 100 100 100 100 100 100 100 100 100 100 100 100 100 100 100 100 100 100 100 100
99 95 100 100 100 100 100 100 100 100 100 100 100 78 100 100 100 100 100 100 100 100 100 100 100 100 100 100 100 100 100 100 100 100 100 100 100 100 100 100 100 100 100 100 100 100 100 100 100
100 100 100 100 100 100 100 100 100 100 100 75 89 96 100 100 100 100 100 100 100 100 100 100 100 100 100 100 100 100 100 100 100 100 100 100 100 100 100 100 100 100 100 100 100 100 100 100 100
100 100 100 100 100 100 99 97 100 100 100 99 95 100 100 100 100 100 100 100 100 100 100 100 100 100 100 100 100 100 100 100 100 100 100 100 100 100 100 100 100 100 100 100 100 100 100 100 100
100 100 100 92 100 100 77 100 5 9 15 70 100 98 100 100 100 100 100 100 100 100 100 100 100 100 100 100 100 100 100 100 100 100 100 100 100 100 100 100 100 100 100 100 100 100 100 100 100
100 99 13 3 8 92 100 33 77 8 17 5 32 57 100 100 100 100 100 100 100 100 100 100 100 100 100 100 100 100 100 100 100 100 100 100 100 100 100 100 100 100 100 100 100 100 100 100 100

GFSSGP_prec_cloud_090.txt.gz
Cloud_Cover
0 0 0 53 2 0 0 0 0 0 0 0 5 11 13 17 70 66 1 35 16 74 1 0 0 1 28 100 76 5 55 5 2 0 5 5 5 10 16 61 10 97 51 9 21 13 81 100 100
3 0 0 32 22 2 0 0 0 0 0 0 0 4 24 48 19 10 5 51 61 100 31 0 2 0 2 15 100 35 14 6 5 2 2 5 12 20 8 63 6 67 30 5 7 69 100 100 99
0 0 34 2 23 3 2 0 0 0 0 0 0 0 4 4 59 8 26 23 8 44 5 5 0 0 0 2 21 96 8 5 5 5 1 5 5 63 99 6 9 68 5 36 70 70 71 13 0
4 0 35 54 3 4 0 0 0 5 2 5 0 0 8 36 5 1 10 12 32 7 6 18 5 17 0 0 4 19 64 5 1 5 5 5 36 100 100 6 5 93 94 100 17 8 5 5 1
1 73 3 5 5 5 4 1 0 3 5 82 9 0 68 87 23 20 19 14 7 5 4 88 46 4 3 0 0 4 59 96 18 0 4 4 66 100 96 10 94 100 100 91 7 5 5 3 0
5 1 17 5 3 5 2 4 0 0 6 15 27 65 9 7 7 84 27 64 5 0 1 70 77 5 5 0 0 0 5 32 41 5 0 4 4 100 73 8 97 100 38 32 7 21 5 4 5
10 13 5 5 5 5 5 29 5 4 1 28 41 30 99 4 4 1 82 48 8 12 13 15 48 51 99 94 1 0 5 51 100 93 6 5 44 97 94 100 100 100 51 100 23 86 100 86 1
5 11 36 66 79 60 50 10 100 7 5 3 81 8 72 82 1 1 2 16 15 3 0 13 91 68 70 100 100 12 3 5 2 92 15 5 22 100 100 100 100 100 44 5 5 6 9 1 0
10 25 5 5 36 99 83 5 62 82 29 5 73 50 24 53 56 5 78 91 47 4 1 1 94 100 87 65 100 99 21 6 6 36 100 96 94 100 100 100 100 99 48 38 5 5 37 26 100
8 5 4 3 5 45 5 5 5 7 22 29 2 5 5 80 5 23 5 100 100 14 5 5 100 100 100 100 100 100 45 63 14 14 100 100 64 100 100 100 100 98 33 57 47 18 100 100 100
0 6 5 4 15 5 5 5 5 5 5 19 60 3 0 10 4 5 3 5 100 8 0 5 100 100 100 100 100 100 92 38 99 22 100 100 100 100 60 35 100 100 99 73 56 23 100 92 100
1 4 5 5 5 5 23 8 5 3 17 4 50 76 33 0 47 50 0 5 98 5 0 52 99 100 100 100 100 100 100 100 97 100 78 100 100 100 100 89 77 90 100 100 95 97 100 74 97
5 5 5 5 5 5 14 26 97 98 100 12 5 42 25 5 4 3 77 54 4 5 4 5 70 77 100 100 100 100 100 93 100 100 100 70 100 100 100 100 100 100 100 100 100 100 100 100 87
0 5 12 42 5 5 5 5 5 12 83 5 5 3 5 0 4 2 64 100 32 9 3 3 13 78 97 100 100 100 100 100 100 100 100 100 100 100 100 100 100 100 100 100 100 100 100 100 94
5 5 5 4 5 5 5 1 0 1 36 2 2 5 0 0 0 5 0 97 84 1 84 18 26 99 100 100 100 100 100 100 100 100 100 100 100 100 100 100 100 100 100 100 100 100 100 100 100
5 5 5 0 1 1 22 0 0 0 1 5 5 5 0 0 0 0 2 14 5 1 14 99 52 100 99 96 100 100 100 100 100 100 98 91 100 100 100 100 100 100 100 100 100 100 100 100 100
40 16 5 2 72 90 44 3 5 0 0 1 4 3 0 0 30 2 0 4 0 5 33 83 100 100 100 100 100 100 100 100 100 100 97 97 88 88 100 100 100 100 100 100 100 100 100 100 100
7 94 76 59 38 92 93 43 2 0 0 0 0 0 0 0 20 2 3 1 0 4 70 75 100 100 100 100 100 100 100 100 100 100 100 100 87 100 100 100 100 100 100 100 100 100 100 100 100
50 54 5 73 3 5 23 4 0 2 99 74 0 66 1 10 96 0 7 0 0 5 81 100 100 100 100 100 100 100 100 100 100 100 100 100 100 100 100 100 100 100 100 100 100 100 100 100 100
94 95 66 45 82 92 8 5 5 2 6 95 26 14 99 5 13 0 7 2 24 51 90 100 100 100 100 100 100 100 100 100 100 100 100 100 100 100 100 100 100 100 100 100 100 100 100 100 100
63 100 100 100 87 81 23 18 4 1 2 16 61 55 5 5 0 0 90 84 60 8 100 100 100 100 100 100 100 100 100 100 100 100 100 100 100 100 100 100 100 100 100 100 92 100 100 100 100
99 100 100 100 100 89 96 87 29 0 9 3 1 1 0 0 0 0 78 71 87 38 100 100 100 100 100 100 100 100 100 100 100 100 100 100 100 100 100 100 100 100 100 100 96 100 100 100 100
98 100 100 100 100 99 100 91 0 74 78 4 88 14 3 46 0 37 100 100 100 100 100 100 100 100 100 100 100 100 100 100 100 100 100 100 100 100 100 100 100 100 100 100 100 100 100 100 100
100 100 100 100 100 100 100 99 98 53 98 100 100 86 11 57 46 42 100 100 100 100 100 100 100 100 100 100 100 100 100 100 100 100 100 100 100 100 100 100 100 100 100 100 100 100 100 100 100
100 100 100 100 100 100 100 100 100 80 100 100 100 100 74 100 100 98 94 100 100 100 100 100 100 100 100 100 100 100 100 100 100 100 100 100 100 100 100 100 100 100 100 100 100 100 100 100 100
100 100 100 100 100 100 100 100 100 86 85 100 100 100 100 100 100 100 100 97 100 100 100 100 100 100 100 100 100 100 100 100 100 100 100 100 100 100 100 100 100 100 100 100 100 100 100 100 100
100 100 100 100 100 100 100 100 100 100 100 100 100 100 100 100 100 100 100 100 100 100 100 100 100 100 100 100 100 100 100 100 100 100 100 100 100 100 100 100 100 100 100 100 100 100 100 100 100
99 100 100 100 100 95 100 100 100 100 100 100 100 100 100 100 100 100 100 100 100 100 100 100 100 100 100 100 100 100 100 100 100 100 100 100 100 100 100 100 100 100 100 100 100 100 100 100 100
100 85 100 100 100 100 100 100 100 100 100 100 100 100 100 100 100 100 100 100 100 100 100 100 100 100 100 100 100 100 100 100 100 100 100 100 100 100 100 100 100 100 100 100 100 100 100 100 100
100 24 38 92 100 83 99 100 100 100 100 100 100 100 100 100 100 100 100 100 100 100 100 100 100 100 100 100 100 100 100 100 100 100 100 100 100 100 100 100 100 100 100 100 100 100 100 100 100

GFSSGP_prec_cloud_093.txt.gz
Cloud_Cover
0 0 0 0 1 0 11 0 7 0 0 0 0 0 2 2 2 2 0 0 5 5 26 1 0 0 4 6 96 50 8 4 0 0 0 4 5 11 15 6 0 8 32 17 68 3 100 100 50
0 0 0 5 26 19 2 4 5 30 0 0 0 0 4 0 4 0 0 1 5 4 94 8 0 0 0 0 6 12 5 34 4 0 0 0 5 21 33 5 5 5 9 12 15 13 100 100 8
0 0 0 0 4 17 4 6 5 0 0 0 0 0 2 0 0 0 0 2 5 2 0 24 4 3 0 0 0 0 5 11 5 2 66 0 4 20 96 5 5 2 0 0 5 40 100 55 0
4 0 5 11 0 0 0 39 5 5 4 0 0 0 0 0 0 0 0 0 4 5 5 32 5 5 4 0 2 3 0 5 5 5 0 0 0 1 98 5 5 5 0 0 0 57 6 5 5
0 0 0 0 52 37 3 5 5 5 68 25 3 0 0 0 0 0 0 0 5 9 6 3 5 5 5 4 0 1 0 1 8 42 8 3 0 5 85 0 5 20 63 1 0 5 5 5 5
11 3 4 0 0 0 2 5 5 5 78 92 73 16 0 0 0 0 2 2 2 4 42 3 5 5 5 7 48 2 0 0 5 5 98 95 64 82 98 6 19 96 99 1 0 1 2 54 83
5 5 4 0 0 5 4 5 9 8 5 6 48 78 13 0 57 1 7 5 5 3 15 6 20 5 5 5 54 76 0 0 3 5 51 100 100 100 100 41 100 100 84 5 5 6 3 2 23
76 20 2 1 2 2 5 4 0 5 38 20 5 20 67 3 4 34 42 41 36 15 7 23 7 0 0 56 69 77 5 0 0 5 10 28 100 100 100 100 96 100 12 6 5 5 5 5 8
3 14 5 5 5 2 6 2 5 0 0 4 93 45 36 53 5 1 21 27 100 78 56 16 62 40 4 47 83 64 36 5 5 5 5 100 97 100 100 100 100 100 60 40 8 22 5 56 99
2 4 5 1 0 0 2 0 0 4 4 3 52 85 16 5 14 24 4 4 33 84 100 96 53 39 30 21 71 100 100 21 16 25 7 42 98 100 100 100 93 100 44 8 28 73 6 77 73
0 3 0 0 0 0 0 0 0 0 3 27 11 31 5 5 20 6 4 0 14 100 57 84 91 82 2 5 99 100 100 80 51 88 38 97 77 100 100 100 100 100 97 62 49 27 99 100 73
0 0 0 0 0 0 0 0 0 0 0 4 5 97 7 11 5 5 35 100 4 17 5 22 71 45 26 18 100 100 100 97 80 99 100 100 100 100 100 100 100 100 94 40 61 88 100 100 100
0 0 0 2 0 0 0 0 0 0 0 1 1 4 31 2 5 57 24 98 5 2 1 5 57 5 7 3 100 100 100 100 100 15 66 100 100 100 100 100 100 100 100 98 100 100 100 100 100
0 0 0 0 0 0 0 0 0 3 5 0 5 0 1 3 0 1 53 52 5 3 24 80 44 80 18 20 100 100 100 100 100 100 73 100 100 100 100 100 89 100 100 100 100 100 100 100 100
0 0 0 0 0 0 0 0 0 0 5 5 2 3 2 0 5 5 11 100 99 99 82 85 98 25 8 1 98 100 100 100 100 100 100 74 90 100 100 100 100 100 100 100 100 100 100 100 93
0 1 1 0 0 0 6 0 0 0 0 5 5 5 0 0 5 4 5 100 16 84 100 100 100 99 54 8 90 100 100 100 100 100 100 84 100 100 100 64 100 98 98 100 100 100 100 100 100
5 5 4 1 0 4 44 7 0 0 0 0 13 5 4 5 5 4 5 3 5 4 42 96 66 39 43 100 98 100 100 100 100 100 100 100 100 100 100 100 100 96 100 100 100 100 100 94 100
1 5 0 0 4 3 5 4 5 5 5 1 0 0 0 0 0 0 5 5 3 2 0 4 43 5 5 43 87 74 100 100 100 87 100 100 100 100 100 100 100 100 100 100 100 96 100 100 100
5 6 15 61 72 98 3 0 0 0 0 0 0 0 0 0 0 2 3 4 0 8 7 4 0 2 34 8 100 100 100 100 100 100 100 100 100 87 100 100 100 100 100 100 100 100 100 100 100
6 54 26 6 79 88 13 7 0 0 0 0 0 1 0 0 0 0 0 4 2 7 5 0 0 2 98 24 100 100 100 100 100 100 100 100 100 100 100 100 100 100 100 100 100 100 100 100 100
5 43 68 70 86 87 82 66 2 0 0 0 51 4 30 0 0 0 12 9 19 15 34 27 1 5 66 48 100 100 100 100 100 100 100 100 100 100 100 100 100 100 100 100 100 100 100 100 100
100 34 93 100 100 75 69 48 0 0 0 0 41 34 5 67 52 7 6 10 96 25 65 53 44 95 89 100 100 100 100 100 100 100 100 100 100 100 100 100 100 100 100 100 100 100 100 100 100
37 84 100 100 100 100 100 75 5 0 0 0 52 100 100 100 100 0 26 48 100 94 99 100 75 99 100 100 100 100 100 100 100 100 100 100 100 100 100 100 100 100 100 100 100 100 100 100 100
100 100 100 100 90 100 100 87 5 46 3 5 97 100 100 100 100 21 88 100 100 100 56 100 100 100 100 100 100 100 100 100 100 100 100 100 100 100 100 100 100 100 100 100 100 100 100 100 100
100 100 100 100 100 100 100 100 86 59 96 100 87 79 96 86 81 52 88 100 100 100 100 97 79 100 100 100 100 100 100 100 100 100 100 100 100 100 100 100 100 100 100 100 100 100 100 100 100
84 100 100 100 100 100 100 100 100 100 73 100 94 100 100 100 88 95 100 100 100 100 100 99 89 100 100 100 100 100 100 100 100 100 100 100 100 100 100 100 100 100 100 100 100 100 100 100 100
99 100 100 100 100 100 100 100 100 100 100 100 100 100 100 100 100 100 100 100 100 100 100 74 100 100 100 100 100 100 100 100 100 100 100 100 100 100 100 100 100 100 100 100 100 100 100 100 100
100 100 100 100 100 100 100 100 100 100 100 100 100 100 100 100 100 100 100 100 100 100 100 100 100 100 100 100 100 100 100 100 100 100 100 100 100 100 100 100 100 100 100 100 100 100 100 100 100
100 100 100 100 100 100 100 100 100 100 100 100 100 100 100 100 100 100 100 100 100 100 100 100 100 100 100 100 100 100 100 100 100 100 100 100 100 100 100 100 100 100 100 100 100 100 100 100 100
6 86 82 100 87 100 100 100 100 100 100 100 100 100 100 100 100 100 100 100 100 100 100 100 100 100 100 100 100 100 100 100 100 100 100 100 100 100 100 100 100 100 100 100 100 100 100 100 100

GFSSGP_prec_cloud_096.txt.gz
Cloud_Cover
0 0 0 0 0 0 4 0 50 25 2 0 0 0 0 0 0 0 0 0 0 7 8 1 0 3 2 1 5 5 79 5 0 0 12 99 16 24 0 0 4 15 8 44 56 23 71 12 1
0 0 0 0 0 51 1 3 52 2 0 0 0 0 0 0 0 0 0 0 0 0 0 5 2 3 5 0 3 5 33 74 4 3 0 0 8 14 3 0 7 23 21 44 3 89 99 0 5
0 0 0 0 0 14 4 1 14 5 2 0 0 0 0 0 0 0 0 0 0 4 5 5 5 4 4 0 0 3 11 15 6 5 5 0 4 20 2 0 4 0 1 0 0 83 17 5 5
10 1 0 0 0 4 1 11 5 5 6 6 0 0 0 0 0 0 0 0 0 9 12 4 5 0 0 5 0 0 2 11 5 5 5 5 8 18 100 0 0 4 4 3 2 88 2 2 5
29 13 0 5 2 4 4 2 0 5 5 5 4 5 0 0 0 0 0 0 1 3 1 4 5 5 5 5 5 0 0 0 1 2 3 9 10 5 39 5 0 5 5 5 6 5 0 0 3
100 100 24 2 5 5 5 5 2 5 5 5 5 5 5 4 1 0 0 0 0 1 4 7 3 5 5 5 5 3 48 2 1 0 0 2 5 13 35 7 5 5 5 6 64 6 5 0 5
52 100 91 7 2 5 5 1 1 0 1 5 0 0 0 9 9 17 15 14 7 3 38 38 7 5 5 0 5 5 5 86 5 0 0 0 2 6 100 62 5 94 100 10 11 71 9 5 2
1 1 48 5 0 2 28 5 0 0 0 0 0 0 0 0 76 41 75 89 88 70 49 29 100 35 11 5 5 5 5 5 80 5 0 0 6 13 100 100 100 100 99 13 5 5 28 5 5
0 0 2 2 5 1 5 9 1 0 3 5 1 0 0 0 39 10 73 65 100 99 90 57 93 100 98 91 5 5 5 5 5 65 5 0 40 63 100 100 100 100 100 99 88 5 5 5 52
0 3 2 0 0 0 5 0 3 1 0 0 1 5 1 5 5 2 37 89 68 100 100 53 46 90 77 71 99 92 21 19 27 71 74 5 97 100 100 100 100 100 100 100 100 14 7 27 57
0 0 0 0 0 0 0 0 0 0 0 5 0 5 5 5 4 5 5 20 100 100 100 100 93 40 22 45 29 27 11 30 55 40 86 5 12 100 97 100 100 100 100 100 100 100 10 44 6
0 0 0 0 0 0 0 0 0 0 0 4 4 5 5 5 5 3 3 4 95 90 90 53 73 100 100 95 54 39 28 4 77 100 100 69 60 100 56 100 100 100 100 47 68 100 100 17 10
0 0 0 0 0 0 0 0 0 0 0 0 0 5 38 88 62 5 5 5 44 20 22 58 73 80 84 49 86 66 11 1 100 100 100 82 76 100 100 93 100 100 100 100 52 79 100 86 43
0 0 0 0 0 0 0 0 0 0 0 0 0 5 72 21 88 83 16 5 0 4 6 21 56 71 48 38 61 95 78 4 66 50 100 100 66 96 100 100 100 100 100 100 100 99 73 52 95
0 0 0 0 0 0 0 0 0 0 0 0 0 0 5 72 5 5 52 62 5 0 15 15 1 7 24 100 100 66 29 3 98 100 100 97 71 96 100 100 99 100 100 100 100 100 100 100 100
0 0 4 0 0 0 0 0 0 0 0 0 0 0 5 5 88 2 3 54 4 0 0 8 5 5 72 100 100 92 46 3 13 85 50 100 100 88 100 100 100 100 100 100 100 100 100 100 100
5 3 4 0 0 0 0 0 0 0 0 0 0 0 0 5 10 94 8 4 0 0 3 0 5 41 97 100 100 100 15 8 15 97 100 100 100 100 98 100 100 100 100 100 100 100 100 100 100
1 5 5 5 3 5 5 2 0 0 0 0 0 0 0 0 2 50 100 6 4 0 5 5 16 94 100 98 96 81 11 20 41 83 100 100 96 100 100 100 100 100 100 100 100 100 100 100 100
5 5 6 5 2 30 6 5 0 0 0 0 0 0 0 0 0 5 96 100 70 5 64 99 66 100 83 100 100 93 74 81 100 76 100 100 100 100 89 100 100 100 100 100 100 100 100 100 100
32 21 29 73 3 74 29 23 5 1 0 0 0 0 0 0 0 4 5 52 100 100 100 100 100 82 81 100 90 10 29 70 32 100 100 100 100 100 100 100 100 100 100 100 100 100 100 100 100
11 11 6 18 87 100 64 56 3 0 0 0 0 0 0 0 0 0 2 18 84 100 74 100 100 97 100 100 47 30 68 70 100 100 100 100 100 100 100 100 100 100 100 100 100 100 100 100 100
96 15 95 100 100 99 78 65 4 0 0 0 0 0 4 0 0 28 32 58 35 71 91 100 100 91 100 100 30 43 10 100 100 100 100 100 100 100 100 100 100 100 100 100 100 100 100 100 100
10 6 31 100 100 100 100 94 58 2 0 4 7 5 5 40 79 96 95 45 38 41 45 68 99 100 100 100 66 97 78 83 100 100 100 100 100 100 100 100 100 100 100 100 100 100 100 100 100
11 79 97 100 100 100 100 87 100 100 98 100 90 100 89 100 100 97 79 99 100 56 97 20 68 74 77 100 100 100 99 99 97 79 100 100 100 100 100 100 100 100 100 100 100 100 100 100 100
78 99 100 80 96 100 100 100 75 100 98 99 94 100 100 100 100 100 100 100 100 100 100 100 16 52 96 100 100 100 100 100 100 100 100 100 100 100 100 100 100 100 100 100 100 100 100 100 100
96 100 100 95 100 100 100 100 97 100 100 100 99 100 100 100 100 100 100 100 100 95 100 100 100 62 38 100 100 100 100 100 100 100 100 100 100 100 100 100 100 100 100 100 100 100 100 100 100
100 100 100 100 100 100 99 100 100 100 100 100 100 100 100 100 100 100 100 100 100 100 100 100 100 90 100 100 100 100 100 100 100 100 100 100 100 100 100 100 100 100 100 100 100 100 100 100 100
100 100 100 100 100 100 100 93 100 100 100 100 100 100 100 100 100 100 100 100 100 100 100 100 100 100 100 100 100 100 100 100 100 100 100 100 100 100 100 100 100 100 100 100 100 100 100 100 100
100 100 83 92 97 100 100 100 100 100 100 100 100 100 100 100 100 100 100 100 100 100 100 100 100 100 100 100 100 100 100 100 100 100 100 100 100 100 100 100 100 100 100 100 100 100 100 100 100
9 100 100 100 78 95 99 100 100 100 100 100 100 100 100 100 100 100 100 100 100 100 100 100 100 100 100 100 100 100 100 100 100 100 100 100 100 100 100 100 100 100 100 100 100 100 100 100 100

GFSSGP_prec_cloud_099.txt.gz
Cloud_Cover
5 0 0 0 0 0 1 0 0 0 0 0 0 0 0 0 0 0 0 0 0 17 4 1 0 0 0 0 1 2 0 0 0 0 64 100 10 7 0 0 1 0 11 6 28 67 49 24 0
28 5 0 0 0 0 0 0 0 0 0 0 0 0 0 0 0 0 0 0 0 14 2 0 0 0 4 8 13 0 5 0 1 5 14 51 20 45 1 0 7 7 18 18 5 10 1 0 0
5 67 21 5 0 0 0 0 0 0 0 0 0 0 0 0 0 0 0 0 10 20 4 0 0 0 2 3 14 8 1 5 2 17 14 0 12 27 0 0 0 0 2 0 0 98 0 0 0
100 70 10 99 76 0 0 0 0 0 0 0 0 0 0 0 0 0 0 0 0 6 0 0 1 0 4 0 0 4 1 0 5 5 26 4 4 6 0 0 11 0 3 0 0 0 0 0 0
100 100 100 55 82 39 1 0 0 0 0 0 0 0 0 0 0 0 6 2 7 18 1 6 2 2 2 5 2 4 1 6 0 0 5 66 51 21 45 1 19 0 1 5 5 5 5 1 0
75 87 100 100 83 76 5 3 2 0 0 0 0 0 0 0 8 5 21 21 4 32 20 29 0 4 3 5 11 6 4 1 0 0 2 5 6 57 100 31 60 0 0 1 6 9 25 5 5
98 65 99 100 100 99 5 5 7 6 0 0 0 0 0 0 1 70 27 16 30 46 91 40 12 0 1 5 5 14 5 4 5 5 5 1 1 3 0 49 31 55 2 8 26 32 5 28 25
99 99 100 100 62 22 18 88 7 66 13 0 0 0 0 0 1 100 99 97 88 66 65 100 92 56 100 100 28 5 5 5 5 5 5 4 2 0 0 5 12 100 100 5 5 22 100 49 5
5 5 8 30 75 100 90 100 91 99 97 6 0 0 0 0 0 0 72 70 100 100 70 44 34 43 76 100 90 81 86 38 5 5 5 5 4 2 28 76 7 99 60 90 49 67 96 89 71
5 0 0 0 1 5 41 5 3 1 42 68 3 0 0 0 0 0 0 12 96 100 100 46 38 98 86 62 84 100 99 44 73 45 5 5 5 5 12 74 94 100 50 50 99 98 100 100 100
0 0 0 0 0 0 2 1 0 0 0 0 4 3 0 0 0 0 0 0 6 7 93 100 49 35 54 64 60 100 100 89 78 27 18 6 31 25 48 33 100 100 94 46 59 100 100 100 100
0 0 0 0 0 0 0 0 0 0 0 0 0 0 0 0 0 0 0 0 4 9 9 99 78 63 50 85 87 33 63 63 38 27 20 53 31 95 100 99 100 100 95 100 99 78 100 98 100
0 0 0 0 0 0 0 0 0 0 0 0 0 0 0 4 5 4 4 5 2 0 15 100 82 50 71 100 100 100 93 79 83 23 13 63 96 75 96 100 90 33 100 85 100 100 100 96 66
0 0 0 0 0 0 0 0 0 0 0 0 0 0 0 0 15 5 5 5 5 5 0 37 100 61 86 100 100 100 100 81 10 60 15 66 13 96 86 99 100 87 100 98 98 100 90 89 93
0 0 0 0 0 0 0 0 0 0 0 0 0 0 0 0 0 7 15 5 5 5 5 24 43 94 100 100 93 100 100 22 82 89 39 53 39 87 99 100 100 99 100 100 69 100 100 100 99
0 0 1 0 0 0 0 0 0 0 0 0 0 0 0 0 0 5 5 8 8 5 2 9 5 43 100 100 100 100 100 96 84 99 54 24 40 3 18 100 96 100 99 100 100 100 67 100 100
0 3 2 0 0 0 0 0 0 0 0 0 0 0 0 0 0 2 55 47 70 7 5 8 5 8 13 24 95 71 13 26 100 85 16 14 55 9 5 99 100 100 96 100 100 100 100 100 100
0 5 5 5 0 0 3 0 1 1 0 0 0 0 0 0 0 0 5 100 96 36 41 44 5 5 67 8 54 57 37 85 94 100 51 5 9 6 52 70 89 100 100 100 100 89 100 100 100
3 5 6 4 2 25 5 5 87 15 2 0 0 0 0 0 0 0 0 6 100 95 17 100 100 100 100 100 100 98 96 48 91 100 74 86 8 100 100 100 100 100 100 100 100 100 100 100 100
5 21 44 5 5 86 5 26 10 0 0 0 0 0 0 0 0 0 0 0 5 95 27 96 100 100 100 100 100 94 62 99 22 24 94 92 78 99 91 100 99 99 100 100 100 100 100 100 100
5 31 16 80 36 100 96 52 0 3 0 0 0 0 0 0 0 0 0 27 66 73 94 29 100 100 100 100 100 100 100 100 78 76 74 27 100 100 96 91 100 100 100 100 100 100 100 100 100
83 5 23 97 100 100 100 71 6 88 6 0 0 0 0 0 5 26 92 100 100 100 100 100 100 100 100 100 100 100 100 100 73 99 70 99 100 100 100 100 96 100 100 100 100 100 100 100 100
5 19 85 100 100 100 62 84 13 100 100 100 39 11 17 86 100 25 72 100 100 100 100 99 100 100 100 100 100 100 100 100 100 100 54 100 100 100 100 100 100 100 100 100 100 100 100 100 100
17 19 87 94 96 100 100 50 9 100 100 100 100 94 100 100 100 100 97 76 100 100 100 100 100 100 100 100 100 100 100 100 100 100 94 100 77 96 100 100 100 100 100 100 100 100 100 100 100
25 100 74 100 100 100 100 100 84 100 100 100 100 100 100 100 100 100 100 100 100 100 100 100 100 100 100 100 99 100 100 100 100 100 100 100 97 95 100 100 100 100 100 100 100 100 100 100 100
100 100 100 100 100 100 100 100 100 100 100 100 100 100 100 100 100 100 100 100 100 100 100 98 100 100 76 95 99 100 100 100 100 100 100 100 100 100 100 100 100 100 100 100 100 100 100 100 100
100 82 99 100 100 100 100 100 100 100 100 100 100 100 100 100 100 100 100 100 100 100 100 100 100 100 97 100 100 100 100 100 100 100 100 100 100 90 100 100 100 100 100 100 100 100 100 100 100
11 74 94 96 100 92 100 100 100 100 100 100 100 100 100 100 100 100 100 100 100 100 100 100 100 100 100 100 100 100 100 100 100 100 100 100 100 100 100 100 100 100 100 100 100 100 100 100 100
91 19 86 83 73 100 100 100 100 100 100 100 100 100 100 100 100 100 100 100 100 100 100 79 100 99 100 100 100 100 100 100 100 100 100 100 100 100 100 100 100 100 100 100 100 100 100 100 100
98 5 17 88 96 91 88 100 100 100 100 100 100 100 100 100 100 100 100 100 100 100 100 100 100 100 100 100 100 100 100 100 100 100 100 100 100 100 100 100 100 100 100 100 100 100 100 100 100

GFSSGP_prec_cloud_102.txt.gz
Cloud_Cover
4 4 1 0 1 0 0 0 0 0 0 0 0 0 0 0 0 0 5 2 4 19 6 0 13 0 0 4 0 3 3 5 5 85 100 100 17 3 0 0 4 0 0 4 2 19 77 3 0
0 4 2 5 5 3 0 0 0 0 0 0 0 0 0 0 0 0 0 0 1 24 4 4 0 1 0 0 0 0 0 5 3 5 98 43 12 13 0 0 0 0 0 3 5 74 23 0 0
5 4 5 1 41 4 4 0 0 0 0 0 0 0 0 0 0 0 0 0 18 19 0 1 0 5 0 0 0 4 0 0 0 5 8 5 5 20 1 0 0 53 77 0 0 4 0 2 0
52 32 4 5 5 5 21 16 0 0 0 0 0 0 0 1 1 24 0 5 30 19 0 0 0 0 0 0 0 1 4 9 0 0 0 5 5 63 5 4 0 0 80 0 0 0 0 0 0
5 4 5 43 6 4 0 12 92 5 0 0 0 0 0 0 0 77 94 32 40 37 6 0 0 0 0 0 0 0 0 5 2 0 0 0 5 96 100 6 0 0 0 0 5 5 3 5 1
100 66 25 4 80 43 4 5 5 5 5 2 0 0 0 0 0 0 100 54 15 36 23 5 0 0 0 0 0 5 5 5 5 0 0 2 0 11 76 85 5 5 19 15 7 6 5 5 5
100 100 100 96 7 56 96 91 45 16 52 58 8 0 0 0 0 0 83 100 41 26 22 26 55 50 0 0 0 0 5 5 5 5 0 0 0 0 2 62 96 48 43 77 50 46 5 5 84
100 100 100 100 100 7 13 33 18 94 87 40 22 5 1 0 0 0 0 60 100 95 10 12 28 100 100 100 100 54 70 5 10 6 5 4 1 0 0 3 50 100 59 9 60 30 50 5 51
97 100 93 100 97 65 9 22 88 59 97 12 8 5 3 1 3 0 0 0 22 87 57 22 15 84 99 100 100 100 100 82 98 41 8 5 5 4 0 9 0 54 32 5 11 5 5 10 6
37 78 66 96 100 91 93 20 71 86 81 100 98 5 0 2 0 0 0 0 0 0 8 97 52 60 99 94 100 100 100 100 100 100 61 25 16 5 5 5 16 100 98 51 32 6 5 9 18
6 10 12 77 16 15 45 10 84 18 5 23 24 95 22 0 0 0 0 0 0 0 4 11 99 47 80 63 69 100 100 100 100 100 100 99 16 9 30 38 40 100 50 20 30 97 5 5 61
5 5 5 5 5 2 0 0 4 5 1 2 5 0 0 28 18 1 0 0 0 0 0 0 100 100 100 100 82 40 45 51 99 75 87 84 73 11 41 63 51 63 64 100 88 99 23 22 5
5 5 2 2 2 0 0 0 0 0 0 0 0 0 0 0 0 0 0 0 0 0 0 0 100 100 100 100 91 100 100 100 94 100 31 63 30 60 80 65 67 93 91 40 62 100 50 6 47
1 0 0 0 0 0 0 0 0 0 0 0 0 0 0 0 0 0 0 0 0 0 0 0 15 100 100 100 94 100 100 100 100 98 100 94 56 87 71 82 84 59 99 61 68 17 83 82 81
0 0 0 0 0 0 0 0 0 0 0 0 0 0 0 0 0 0 0 0 0 4 0 0 13 88 100 81 93 97 100 100 100 100 98 88 26 29 55 60 62 45 64 73 51 28 46 12 98
1 0 0 0 0 0 0 0 0 0 0 0 0 0 0 0 0 0 0 4 4 4 6 5 6 92 100 74 85 69 92 99 99 100 98 96 58 13 27 20 35 34 63 65 100 100 87 90 90
5 4 1 0 0 0 0 0 0 0 0 0 0 0 0 0 0 0 0 0 95 99 39 5 30 41 100 79 73 89 100 100 100 52 35 67 39 19 17 39 23 46 42 100 82 100 100 100 99
4 0 3 4 0 0 4 0 0 0 0 0 0 0 0 0 0 0 0 0 4 92 100 31 82 57 40 50 83 100 93 100 99 60 30 8 47 73 58 53 36 35 63 55 100 100 100 100 100
23 5 5 4 0 5 5 4 0 0 0 0 0 0 0 0 0 0 0 0 0 73 100 100 78 97 64 98 100 100 100 99 100 97 40 22 63 39 99 100 89 86 30 41 100 100 100 100 100
13 19 12 5 1 38 10 35 5 0 0 0 0 0 0 0 0 0 0 0 0 1 100 100 92 55 100 100 100 61 51 86 96 100 100 100 19 10 14 22 37 94 88 99 88 100 100 100 100
6 30 5 12 42 32 83 13 5 100 49 1 1 53 0 0 5 4 0 0 0 4 24 71 90 51 100 100 100 100 100 100 100 100 99 81 100 87 88 86 99 55 100 100 100 100 100 100 100
96 2 5 87 100 100 100 76 24 10 3 82 93 40 0 0 0 0 0 0 0 28 59 38 44 60 98 100 100 100 100 100 100 100 100 100 100 100 100 100 100 100 100 100 100 100 100 100 100
5 5 75 100 100 100 100 100 100 9 100 97 100 99 100 100 100 83 79 99 100 100 96 47 99 99 100 100 100 100 100 100 100 100 100 100 100 100 100 100 100 100 100 100 100 100 100 100 88
6 41 100 100 100 99 90 100 100 100 100 100 100 100 100 100 100 100 100 100 100 100 97 82 99 100 100 100 100 100 100 100 100 100 100 100 100 100 100 100 100 100 100 100 100 100 100 100 100
86 100 73 28 69 75 90 96 100 100 100 100 100 100 100 100 100 100 100 100 100 100 100 100 78 87 100 84 100 100 96 100 100 100 100 100 100 100 100 100 100 100 100 100 100 100 100 100 100
96 100 98 97 100 92 90 100 100 100 100 100 100 100 100 100 100 100 100 100 100 100 100 100 100 100 100 100 98 85 100 100 100 100 100 100 100 100 100 100 100 100 100 100 100 100 100 100 100
99 96 100 100 100 100 100 100 100 100 100 100 100 100 100 100 100 100 100 100 100 100 100 100 100 100 100 100 100 100 100 100 100 100 100 100 100 100 100 100 100 100 100 100 100 100 100 100 100
14 41 75 89 99 100 98 100 100 100 100 100 100 100 100 100 100 100 100 100 100 100 100 100 100 100 100 100 100 100 100 100 100 100 100 100 100 100 100 100 100 100 100 100 100 100 100 100 100
4 10 22 75 47 100 96 100 100 100 100 100 100 100 100 100 100 100 100 100 100 100 100 100 100 100 100 100 100 100 100 100 100 100 100 100 100 100 100 100 100 100 100 100 100 100 100 100 100
0 5 5 8 100 53 97 100 100 100 100 100 100 100 100 100 100 100 100 100 100 100 100 100 100 100 100 100 100 100 100 100 100 100 100 100 98 100 100 100 100 100 100 100 100 100 100 100 100

GFSSGP_prec_cloud_105.txt.gz
Cloud_Cover
5 5 3 0 2 5 6 0 0 0 0 0 0 0 0 0 0 0 0 1 22 8 48 6 0 2 4 5 25 42 6 5 1 87 99 100 84 16 3 5 34 100 34 9 8 12 0 45 51
3 5 1 3 5 53 28 2 2 0 0 0 0 0 0 0 0 0 0 3 38 57 60 25 0 0 0 3 0 2 6 5 0 31 100 100 71 13 0 4 1 0 0 9 8 90 0 0 0
3 1 4 0 0 1 36 5 5 14 0 0 0 0 0 0 0 22 0 60 50 64 47 0 2 0 0 0 0 1 0 0 7 0 91 0 20 20 5 4 0 4 17 99 9 0 0 0 0
73 5 5 5 0 4 3 15 0 16 52 1 0 0 0 0 0 1 97 73 68 71 40 0 0 0 0 0 0 0 3 0 0 0 0 2 9 69 5 5 1 5 88 54 4 0 0 0 0
80 53 14 6 5 5 5 5 5 5 5 49 29 2 0 0 0 0 95 100 100 61 31 12 0 2 0 0 0 0 0 0 1 0 0 0 0 0 4 3 3 37 71 79 17 18 5 3 0
36 50 20 19 9 12 5 5 5 3 5 5 6 41 5 0 0 0 17 100 100 22 12 4 0 0 1 0 0 0 0 0 0 0 1 0 0 0 0 0 0 16 99 48 74 19 5 5 10
97 100 100 91 9 32 52 51 9 4 1 5 6 5 8 5 1 0 0 34 100 96 10 5 8 0 0 0 0 0 0 0 0 0 5 0 0 0 0 0 0 0 5 41 6 6 41 42 37
72 91 99 57 84 98 69 91 10 0 0 8 53 5 5 5 29 2 0 0 0 76 99 8 55 93 5 1 4 18 7 0 0 5 5 5 5 2 0 0 0 42 6 3 37 86 7 91 92
100 80 99 63 38 59 68 98 100 100 95 13 5 91 88 13 1 5 4 0 0 0 10 95 70 83 68 65 28 97 99 69 100 96 94 15 25 6 5 0 0 0 4 5 4 49 100 47 6
87 57 90 94 67 47 54 97 78 92 70 41 94 46 1 49 46 25 6 5 0 0 0 0 50 76 26 6 100 97 94 100 100 100 100 100 94 72 50 8 3 0 0 8 71 26 11 97 6
10 5 6 29 9 8 92 100 97 100 100 96 5 5 4 5 5 71 7 5 5 5 0 0 4 100 79 96 36 100 100 100 100 100 100 100 88 99 56 50 36 7 4 52 78 32 25 42 83
72 28 6 7 6 10 5 5 5 32 98 43 60 68 8 5 1 2 30 92 100 75 7 0 1 99 100 100 96 54 93 100 100 96 100 100 95 86 100 94 56 33 12 5 100 17 8 25 100
96 20 5 14 31 53 5 5 5 11 1 0 0 0 2 0 2 5 2 0 12 96 11 13 2 13 100 100 95 100 100 100 98 78 66 100 75 84 51 75 81 58 42 32 55 38 96 87 5
0 1 3 5 15 37 6 33 5 5 3 0 0 0 0 0 0 0 0 0 0 4 5 28 1 0 37 100 100 83 100 100 100 96 82 82 100 100 100 82 55 81 88 98 99 59 86 20 79
0 0 0 0 0 0 2 5 5 3 0 0 3 0 0 0 0 0 0 0 0 0 0 5 5 2 28 100 100 63 97 100 100 100 100 96 90 100 100 81 100 97 30 94 100 100 99 70 100
0 0 0 0 0 0 0 0 0 0 0 0 0 0 0 0 0 0 0 0 0 0 0 0 0 0 8 64 100 97 37 100 100 100 100 100 74 96 96 58 88 95 56 39 67 73 100 96 99
0 0 0 0 0 0 0 0 0 0 0 0 0 0 0 0 0 0 0 0 0 0 0 0 0 2 5 56 100 93 87 70 90 99 100 100 71 65 98 57 44 74 73 52 50 60 46 91 100
4 1 2 2 4 0 0 0 0 0 0 0 0 0 0 0 0 0 0 0 0 0 0 28 3 0 8 100 100 100 95 67 100 100 84 100 100 70 44 89 100 100 100 100 98 89 81 100 91
46 7 12 5 4 1 3 0 0 0 0 0 0 0 0 0 0 0 0 0 0 0 0 4 83 5 70 100 100 100 100 100 84 100 100 99 100 74 44 29 100 100 100 100 100 100 98 54 100
9 15 19 5 1 5 2 4 0 0 0 0 0 0 0 0 0 0 0 0 0 0 0 2 100 5 42 100 100 90 75 37 9 89 100 97 96 72 97 65 100 100 100 67 41 10 39 49 67
5 40 5 5 26 5 19 5 0 0 3 3 0 0 34 100 84 36 0 0 0 0 0 0 100 86 12 100 68 61 86 100 100 99 100 100 100 95 65 67 68 76 49 46 21 46 92 50 57
95 4 5 54 99 71 40 64 3 3 5 9 45 9 55 100 98 80 76 7 0 0 0 2 99 32 93 100 98 100 97 100 100 86 100 100 100 100 100 100 67 65 68 99 67 73 96 100 100
5 5 46 100 100 100 35 96 0 4 8 100 100 98 85 100 90 100 100 100 98 100 92 1 73 100 89 70 98 100 100 100 100 100 93 100 100 27 78 100 100 100 100 100 100 99 98 100 100
5 83 70 100 100 87 11 57 59 43 100 100 100 100 100 98 100 83 100 100 100 100 100 100 99 99 100 99 100 100 100 100 100 100 100 100 100 100 100 100 100 100 100 100 100 100 100 100 100
75 74 59 42 23 5 48 93 91 100 100 100 100 100 100 100 100 100 100 100 100 100 100 100 100 100 100 100 100 100 100 100 100 100 100 100 100 100 100 100 100 100 100 100 97 100 100 100 100
89 66 74 95 71 78 76 78 100 100 100 100 100 100 100 100 100 100 100 100 100 100 100 100 100 100 100 100 100 100 100 100 100 100 100 100 100 100 100 100 100 100 100 100 100 100 100 100 100
80 86 100 100 96 99 100 83 94 100 100 100 100 100 100 100 100 100 100 100 100 100 100 100 100 100 100 100 100 100 100 100 100 100 100 100 100 100 100 100 100 100 78 100 100 100 100 100 100
25 68 30 58 87 96 61 100 100 100 100 100 100 100 100 100 100 100 100 100 100 100 100 100 100 100 100 100 100 100 100 100 100 100 100 100 100 100 100 100 100 100 100 100 100 100 100 100 100
48 12 10 68 73 100 85 100 100 100 100 100 100 100 100 100 100 100 100 100 100 100 100 100 100 100 100 100 100 100 100 100 100 100 100 100 100 100 100 100 100 100 100 100 100 100 100 100 100
5 5 2 6 96 99 87 48 100 100 100 100 100 100 100 100 100 100 100 100 100 100 100 100 100 100 100 100 100 100 100 100 100 100 100 100 100 100 79 100 100 92 100 100 100 100 100 100 100

GFSSGP_prec_cloud_108.txt.gz
Cloud_Cover
1 1 4 5 3 2 0 0 0 0 0 0 0 0 0 0 0 0 0 39 89 98 99 29 55 20 5 5 5 5 5 5 2 1 5 25 100 13 5 5 4 20 17 7 56 66 5 64 93
0 0 3 5 3 10 0 0 0 1 0 0 0 0 0 0 0 0 6 0 96 54 74 97 1 4 24 12 5 5 5 2 4 5 5 3 88 21 5 15 5 9 8 36 4 7 0 0 0
0 0 0 6 5 5 4 0 5 5 6 1 0 0 0 0 0 0 0 45 96 54 65 97 2 2 3 5 5 5 5 0 0 0 2 0 8 9 6 9 1 5 47 34 5 5 3 0 0
5 5 5 6 5 72 16 2 0 0 4 29 5 4 0 0 0 0 0 98 79 92 97 21 0 0 0 4 0 0 0 4 5 5 0 5 4 63 0 0 0 1 49 95 5 34 57 5 0
49 5 7 56 50 63 29 5 5 4 0 1 5 19 41 3 1 0 5 100 98 96 80 37 0 0 0 0 0 0 0 0 0 0 5 5 3 0 0 2 5 5 20 97 11 3 16 55 5
5 4 4 5 27 79 74 5 3 0 4 5 5 0 46 87 53 69 12 19 100 99 92 51 1 0 0 0 0 0 0 0 0 0 0 1 5 0 0 0 5 5 8 8 17 16 33 67 58
18 6 10 4 0 0 25 59 6 5 5 5 4 5 5 9 5 5 56 61 27 99 66 76 46 42 75 8 0 0 0 0 0 0 0 0 3 5 5 0 0 3 1 5 5 8 7 94 100
93 99 38 40 6 5 7 5 5 50 5 19 34 5 5 5 21 5 5 7 5 0 30 76 88 42 99 100 31 4 3 2 0 0 0 0 4 5 4 0 0 0 2 5 5 7 61 5 5
79 89 24 63 28 5 5 20 63 34 42 32 3 5 25 5 5 5 21 5 5 1 5 4 65 66 80 100 100 100 42 1 5 4 7 47 10 5 5 5 4 0 0 4 5 5 4 5 5
100 98 84 77 67 48 37 5 38 22 11 5 27 48 26 6 4 2 5 73 83 5 0 5 36 61 64 71 100 100 100 85 14 95 100 100 100 99 84 64 5 5 0 0 1 5 29 24 5
100 100 100 47 41 51 11 5 5 10 12 5 4 5 5 19 35 46 5 5 29 57 5 0 0 14 95 84 48 100 100 100 99 25 100 100 100 100 100 100 100 100 13 46 17 50 12 71 89
100 100 100 100 100 89 100 60 76 63 20 5 5 5 1 1 5 5 0 0 4 5 4 3 4 2 28 100 94 56 98 100 93 98 78 100 100 100 100 100 100 100 81 99 94 85 31 15 5
100 100 100 100 100 100 100 100 90 55 12 2 3 5 2 4 10 54 33 15 1 4 5 5 1 4 4 60 100 99 48 59 100 100 79 99 100 94 100 100 100 75 92 100 94 98 70 70 31
100 100 98 100 100 100 100 100 87 59 5 3 0 0 0 0 0 1 16 65 97 40 5 4 2 5 4 21 98 100 97 13 8 100 100 100 100 98 92 63 94 88 15 90 76 40 52 69 93
4 79 98 16 61 83 100 100 76 56 6 5 3 0 0 0 0 0 0 0 0 1 0 0 5 0 0 0 8 86 100 65 15 36 100 100 93 100 100 100 41 100 46 60 100 100 100 98 100
0 0 0 0 0 2 2 0 1 0 0 0 0 0 0 0 0 0 0 0 0 0 0 0 0 0 0 0 6 46 100 36 8 97 100 100 100 57 91 100 94 59 100 98 95 100 88 100 80
0 0 0 0 0 0 0 0 0 0 0 0 0 0 0 0 0 0 0 0 0 0 0 0 0 0 0 0 0 69 99 47 5 55 39 100 100 100 99 87 100 100 100 100 100 93 71 100 93
5 0 0 0 0 0 0 0 0 0 0 0 0 0 0 0 0 0 0 0 0 0 0 0 0 0 0 0 2 99 100 100 50 4 5 59 100 100 100 88 99 80 96 100 98 100 98 95 92
5 5 5 0 0 3 0 1 0 0 0 0 0 0 0 0 0 0 0 0 0 0 0 0 0 0 0 0 72 100 100 100 100 97 66 28 83 100 100 100 100 100 100 100 100 75 100 100 100
28 41 39 9 5 5 5 5 5 4 0 0 0 0 4 19 0 0 0 0 0 0 0 0 0 0 29 53 95 100 100 100 93 76 100 100 92 100 100 100 100 100 100 100 100 100 100 100 100
32 55 90 100 69 6 5 5 4 0 0 0 3 67 100 96 100 86 19 27 29 7 0 0 0 0 42 99 96 100 100 98 97 100 99 95 88 100 100 100 100 100 96 88 100 100 82 93 72
5 10 14 33 24 45 16 11 0 0 0 4 5 97 100 100 16 52 78 70 96 40 2 7 30 1 71 100 88 100 99 100 100 97 96 99 76 100 100 100 100 100 100 100 100 93 100 85 50
5 5 5 62 100 74 47 93 0 0 5 20 40 100 100 100 94 100 100 99 100 62 100 70 35 5 3 66 64 80 85 95 99 87 100 100 90 70 82 100 100 100 100 100 100 100 95 99 100
5 14 87 94 96 89 5 36 4 4 45 100 74 100 100 100 100 100 100 100 100 100 100 100 100 100 100 100 93 100 100 99 100 100 100 100 100 100 100 99 94 97 100 100 74 98 100 100 84
8 60 94 73 78 5 6 100 5 4 94 100 100 100 100 100 100 74 100 100 100 100 100 100 100 100 100 100 100 100 100 100 100 100 100 95 100 100 100 100 100 100 100 100 100 100 100 100 100
15 7 78 93 61 46 73 80 11 26 100 100 100 100 100 100 100 100 100 100 100 100 100 100 100 100 99 100 100 100 100 100 100 100 99 97 100 100 100 100 93 100 100 100 100 100 100 100 100
41 83 72 100 76 94 10 66 7 88 90 99 100 100 100 100 100 100 100 100 100 100 100 100 100 100 98 92 95 100 100 87 88 99 100 100 100 100 100 97 100 100 100 100 100 100 100 100 100
18 33 88 95 84 42 89 100 36 98 100 100 100 100 100 100 100 100 100 100 100 100 100 100 100 100 100 100 100 100 99 100 99 100 100 100 100 100 100 100 100 100 100 100 100 100 100 100 93
61 69 42 26 48 37 11 100 93 98 100 100 100 100 100 100 100 100 100 100 100 100 100 100 100 100 98 100 100 100 100 100 100 100 100 100 100 100 100 100 100 100 100 100 100 100 100 100 100
4 4 5 5 32 49 34 4 5 32 91 89 100 100 100 100 100 100 100 100 100 100 100 100 100 100 100 100 100 100 100 100 100 100 100 100 100 100 100 99 100 100 100 100 100 100 100 100 100

GFSSGP_prec_cloud_111.txt.gz
Cloud_Cover
0 3 3 2 0 0 0 0 0 0 0 0 0 0 0 0 0 3 33 1 2 100 83 100 21 3 5 9 6 5 3 3 2 5 5 5 98 19 1 0 0 7 8 47 5 2 6 31 82
0 0 0 0 0 5 0 0 0 0 0 0 0 0 0 0 0 0 12 0 0 80 93 99 0 0 1 2 3 5 5 4 2 5 5 4 2 15 12 3 0 1 5 5 5 5 5 5 6
0 0 0 0 0 0 9 1 0 0 0 0 1 0 0 0 0 0 0 2 11 100 100 90 27 0 0 2 5 15 88 5 5 0 1 5 5 76 18 1 0 0 6 19 2 1 0 0 4
0 0 1 0 0 2 0 16 12 5 1 0 0 1 5 0 0 0 0 36 34 100 100 100 0 0 0 0 0 5 72 75 5 5 0 0 4 5 5 0 3 3 0 6 6 3 0 0 0
0 0 1 5 0 1 0 0 5 52 27 10 4 2 0 0 0 2 0 9 57 68 100 96 0 0 0 0 0 0 4 5 10 87 41 9 5 0 4 5 14 14 9 5 11 5 0 0 1
5 5 4 2 5 5 5 3 3 5 12 14 47 5 5 1 0 3 5 4 53 84 64 100 36 0 0 0 0 0 0 5 5 68 100 98 98 46 4 1 10 99 93 5 47 18 5 4 1
54 5 5 4 0 4 2 4 1 6 58 85 30 5 5 6 18 5 7 26 5 14 74 98 100 74 0 0 0 0 0 2 1 0 1 4 14 26 5 5 5 9 17 5 6 52 100 100 40
100 99 49 5 5 7 5 5 25 2 0 3 13 79 17 5 66 27 5 5 5 3 5 5 96 100 100 86 0 2 20 20 5 1 0 0 0 0 0 0 0 0 17 18 12 5 63 99 100
100 100 100 100 100 34 9 29 20 38 3 0 4 65 62 94 80 13 48 26 10 5 2 3 19 86 88 100 100 5 70 94 87 20 29 27 0 0 1 5 4 0 0 4 5 4 5 5 70
100 100 100 99 100 95 100 100 23 12 5 3 0 0 0 30 93 77 64 50 10 5 5 5 3 2 10 23 100 96 4 4 100 94 71 52 32 12 65 77 76 6 4 0 0 9 5 6 5
18 33 6 6 52 74 88 96 85 68 5 5 5 4 3 0 0 1 3 5 5 5 5 5 5 5 5 22 16 100 52 86 77 100 100 100 97 95 100 100 100 100 94 63 38 52 29 6 10
5 5 5 5 5 5 5 28 62 92 5 0 5 5 5 5 2 0 0 2 4 15 90 89 59 5 5 5 26 44 100 75 17 7 93 100 100 100 100 100 100 100 100 100 100 88 38 59 38
46 38 7 13 5 5 10 8 5 5 5 2 2 5 5 5 5 2 0 2 4 0 2 2 5 5 4 4 31 60 20 57 48 54 37 79 99 100 100 100 100 100 100 100 100 92 100 100 76
70 51 30 41 84 89 95 96 84 11 5 49 18 25 13 5 5 35 45 4 0 0 4 5 5 5 2 0 0 30 46 50 20 57 49 37 54 100 100 100 100 100 100 85 100 100 100 57 91
100 100 44 5 5 62 100 100 100 78 72 52 60 86 89 84 10 5 5 5 0 0 0 0 0 5 9 5 5 1 66 39 81 31 17 96 42 54 100 100 100 100 100 100 100 99 83 76 81
16 56 57 95 23 33 6 6 5 10 76 41 5 5 4 4 4 32 22 5 5 0 0 0 0 0 0 35 97 66 42 71 98 74 16 6 87 59 85 98 100 100 100 100 100 100 100 100 90
0 0 0 0 2 1 0 0 0 0 1 32 19 4 0 0 0 0 0 0 0 0 0 0 0 0 0 0 0 0 8 100 71 55 0 35 43 80 100 78 100 100 95 100 100 100 100 100 100
4 5 0 0 0 0 0 0 0 0 0 0 0 0 0 0 0 0 0 0 0 0 0 0 0 0 0 0 0 0 0 81 100 53 5 24 23 91 100 100 100 100 100 100 99 100 100 100 100
100 100 100 5 0 0 0 0 0 0 0 0 0 0 0 0 0 0 0 0 0 0 0 0 0 0 0 0 0 0 0 100 100 38 37 19 53 43 40 57 100 100 100 100 100 96 99 97 100
100 100 100 12 5 4 5 5 5 5 5 5 5 5 5 5 0 0 3 4 23 0 1 1 0 0 0 0 0 0 55 100 100 100 61 93 55 10 5 39 51 100 100 100 100 100 98 82 100
100 100 100 70 32 13 77 94 100 77 49 21 5 5 1 71 11 74 35 73 11 36 78 20 2 0 0 0 0 0 0 50 100 99 44 48 97 81 5 10 5 51 99 100 100 100 100 100 100
100 100 100 98 26 17 7 5 17 7 4 4 5 9 40 100 60 100 96 86 100 99 100 96 12 1 0 0 0 0 5 19 2 8 74 77 88 96 100 98 36 80 84 100 100 100 100 100 100
17 6 6 40 98 67 4 6 0 0 0 3 1 75 100 99 99 100 100 92 100 100 100 100 18 91 50 82 0 2 79 54 3 46 97 100 100 100 100 100 100 32 100 100 100 100 100 100 100
5 10 97 100 58 75 9 5 0 2 0 0 21 100 100 100 98 100 100 99 100 100 100 100 100 100 61 97 24 78 100 100 100 100 100 100 100 99 100 100 100 100 100 100 100 100 100 100 100
16 39 42 76 90 31 7 6 0 0 0 30 74 100 100 100 100 100 100 97 98 100 100 100 100 100 100 95 88 100 100 100 100 100 100 100 86 100 100 100 100 100 100 100 100 100 100 100 100
11 5 15 78 81 75 11 8 5 1 9 83 60 100 100 100 100 100 100 100 100 98 100 100 100 100 100 100 100 100 100 100 100 100 100 100 89 89 100 100 100 100 100 100 100 100 100 100 100
77 84 16 27 60 86 4 23 13 5 12 17 97 98 100 100 100 100 100 100 100 100 100 100 100 100 100 100 100 100 100 100 100 100 94 99 100 100 100 100 100 100 100 100 100 100 100 100 100
27 10 56 77 75 23 6 74 7 2 43 3 21 99 82 100 100 100 100 100 100 100 100 100 100 100 100 75 100 100 100 100 100 100 100 100 100 100 100 100 100 100 100 100 100 100 100 100 100
64 20 6 5 12 25 1 1 0 3 0 0 2 75 99 100 100 100 100 100 100 100 100 100 100 100 100 92 100 100 100 100 100 99 87 100 100 100 100 100 100 100 100 100 100 100 100 100 100
0 3 6 6 3 71 44 1 0 0 0 0 0 40 63 100 100 100 100 100 100 100 100 100 100 100 100 100 100 100 100 99 100 100 100 99 100 100 100 100 100 100 100 100 99 100 100 100 100

GFSSGP_prec_cloud_114.txt.gz
Cloud_Cover
0 0 0 0 0 0 0 0 0 0 0 0 0 0 0 0 0 25 44 0 0 61 85 100 4 0 0 5 47 7 41 78 5 5 90 25 78 11 5 5 5 2 0 2 0 78 0 15 8
1 0 0 0 0 0 0 0 0 0 0 0 0 0 0 0 0 0 0 0 0 91 82 80 2 23 0 0 3 90 100 58 5 5 57 75 7 9 8 5 5 11 10 1 0 1 0 0 0
0 0 0 0 0 0 0 1 0 0 0 0 0 0 0 0 0 0 0 0 0 100 98 60 6 0 0 0 0 0 63 97 100 70 21 30 100 83 12 6 5 5 21 13 3 0 0 0 0
0 0 0 0 0 0 0 0 0 0 0 0 0 0 0 0 0 0 0 0 0 76 39 99 2 8 0 0 0 0 0 4 100 100 100 100 63 10 25 7 0 3 5 5 5 5 2 0 0
1 0 0 0 0 0 0 0 0 0 0 7 5 5 2 0 0 0 0 0 0 76 93 51 12 0 0 0 0 0 0 0 0 81 100 100 100 97 86 84 76 21 5 5 23 81 27 40 6
5 4 1 0 0 0 0 0 0 0 0 0 0 3 55 5 5 1 0 0 0 0 76 100 75 0 0 0 0 0 0 0 0 0 2 54 100 100 100 100 100 100 81 18 7 87 100 100 94
100 33 15 5 4 5 0 0 0 0 4 1 1 2 5 70 31 20 5 5 2 5 3 96 97 94 3 0 0 0 0 0 0 0 1 5 5 5 13 96 100 100 100 100 97 41 100 100 100
100 100 99 26 24 32 4 1 2 0 0 0 0 1 5 5 11 79 66 7 5 5 5 4 38 100 100 94 28 0 0 0 0 0 0 4 4 0 0 0 4 13 20 28 5 18 100 100 100
100 100 100 100 100 99 13 5 5 4 5 5 4 1 2 5 0 0 3 20 29 57 16 6 3 0 11 88 40 83 2 0 0 0 6 100 12 5 2 0 0 0 0 0 0 0 29 14 89
9 26 100 100 100 100 100 100 94 77 50 9 5 0 3 5 5 4 0 0 9 59 100 80 6 16 20 1 1 45 99 32 0 0 0 3 5 6 5 5 5 4 5 6 4 0 0 0 4
15 5 5 58 80 98 100 100 100 100 100 100 100 100 100 84 26 1 0 0 0 0 0 13 34 54 26 5 0 5 74 99 99 68 67 7 0 33 100 97 20 39 55 96 98 50 32 5 4
100 15 5 5 7 56 100 100 89 100 97 100 100 81 5 5 5 0 5 0 0 0 0 0 0 0 2 4 5 1 9 52 9 5 30 92 98 18 100 73 87 52 100 99 100 68 32 5 14
100 100 62 5 5 8 21 82 100 62 5 4 5 5 4 4 4 5 27 9 0 0 0 3 0 0 0 0 0 6 42 5 63 57 4 83 98 94 5 6 76 99 100 100 100 88 29 30 21
90 87 30 7 5 5 5 1 4 2 0 0 0 0 0 0 0 2 4 5 3 2 2 3 5 5 0 0 0 0 0 0 5 6 2 2 5 7 3 8 63 62 98 100 100 100 100 100 70
100 72 38 25 5 5 5 2 5 4 5 5 0 5 4 4 5 5 3 4 5 5 5 39 84 31 13 5 5 0 0 0 0 8 2 0 10 11 3 6 92 96 100 99 100 100 100 100 100
100 100 70 96 36 23 6 5 5 4 4 3 0 0 0 0 0 5 6 5 5 5 5 0 0 0 1 2 0 3 5 0 0 2 26 5 0 95 59 4 89 36 92 94 100 100 100 100 100
100 100 100 98 83 52 5 5 3 4 5 4 0 0 0 0 0 0 0 0 0 0 0 0 0 0 0 0 0 0 0 0 0 0 31 52 5 17 68 7 2 20 2 58 98 100 100 100 100
50 30 10 5 5 0 0 1 0 0 0 1 0 0 0 0 0 0 0 0 0 0 0 0 0 0 0 0 0 0 0 0 0 0 0 6 19 18 5 5 27 4 3 84 24 100 100 100 100
100 38 5 79 60 74 23 4 0 0 0 0 0 0 0 0 0 0 0 0 0 0 0 0 0 0 0 0 0 0 0 0 0 0 0 9 1 40 53 22 14 16 48 75 100 100 100 100 100
5 5 5 5 5 5 5 5 0 1 0 1 1 3 3 3 1 0 0 0 0 0 0 0 0 0 0 0 0 0 0 0 0 0 0 3 64 57 100 43 12 47 38 98 65 24 100 100 100
4 4 2 22 82 91 61 25 19 5 5 10 5 4 2 1 0 0 0 0 0 6 16 28 67 1 0 0 0 0 0 0 0 0 0 7 16 20 17 98 78 20 5 6 92 24 97 100 100
4 0 4 5 5 6 89 84 80 70 5 4 3 0 0 0 0 96 41 1 96 81 73 99 100 49 5 0 3 0 0 0 0 0 0 0 11 13 100 100 99 5 5 7 7 5 63 99 100
3 0 2 31 43 87 48 10 5 5 1 0 0 0 0 0 1 100 88 100 95 100 98 100 98 87 23 0 4 30 26 11 24 90 72 92 50 89 100 93 96 92 65 48 3 18 100 91 100
0 0 72 98 90 81 5 2 0 0 0 0 0 0 0 69 7 96 100 100 97 94 49 95 49 100 99 100 72 74 89 100 72 100 99 100 100 100 100 100 100 100 96 100 98 100 99 90 64
5 36 23 48 96 14 5 6 2 0 0 0 1 0 3 38 71 100 100 99 100 99 89 97 61 100 100 100 100 100 93 97 100 100 100 100 100 100 100 100 100 100 100 100 100 100 100 100 100
5 2 5 5 5 5 5 24 0 0 0 28 1 4 26 90 100 100 100 100 100 100 99 78 100 100 100 98 100 100 100 100 100 100 100 100 100 100 100 100 100 100 100 100 99 99 100 100 100
14 36 2 5 5 18 4 0 5 5 4 0 0 0 16 24 66 100 100 98 100 100 100 100 100 100 100 100 100 100 100 100 100 100 100 100 100 100 100 100 59 62 95 94 100 99 100 100 100
3 4 9 41 31 5 3 4 4 0 0 0 0 0 71 100 100 99 100 100 100 100 100 100 100 100 100 100 100 100 100 100 100 100 100 100 100 100 100 100 100 90 100 72 84 68 100 73 100
2 4 2 2 2 5 2 0 0 0 3 0 0 0 20 99 90 99 100 83 100 100 100 100 100 100 100 100 100 100 99 100 98 100 100 100 100 100 95 79 77 100 92 100 100 100 100 100 100
0 1 3 5 0 5 5 10 0 0 0 0 0 0 0 96 56 98 100 100 100 100 100 100 100 100 100 100 100 100 100 100 100 100 98 66 100 92 51 91 75 12 75 60 91 83 100 100 100

GFSSGP_prec_cloud_117.txt.gz
Cloud_Cover
0 0 0 0 0 0 0 0 0 0 0 0 0 0 0 0 0 1 46 1 0 78 99 100 5 4 0 5 5 8 4 36 87 31 80 100 100 92 14 50 5 5 5 5 0 3 28 0 0
0 0 0 0 0 0 0 0 0 0 0 0 0 0 0 0 0 0 0 0 0 84 41 100 33 6 0 0 0 0 0 14 80 8 5 68 66 99 100 96 63 27 5 6 5 5 5 0 0
5 0 0 0 0 0 0 1 0 0 0 0 0 0 0 0 0 0 0 0 0 95 93 8 7 0 1 4 0 0 0 5 10 88 54 14 73 5 85 100 84 88 38 5 4 5 6 33 4
4 5 0 0 0 0 0 0 0 0 0 0 0 0 0 0 0 0 0 0 0 58 92 70 0 0 0 6 4 0 0 0 0 1 6 100 100 100 100 94 100 84 30 64 36 14 5 5 5
4 5 0 0 0 0 0 0 0 0 0 0 0 0 0 0 0 0 0 0 0 88 49 100 2 7 0 0 0 0 0 0 0 0 0 0 5 86 100 96 100 100 95 88 79 30 32 5 5
5 4 10 0 0 5 0 0 0 0 0 0 0 0 0 0 0 0 0 3 1 8 73 100 80 1 0 0 0 0 0 0 0 0 0 0 0 4 69 100 100 93 100 100 100 100 100 100 82
100 91 96 6 5 5 0 0 0 0 0 0 0 0 2 0 0 0 0 0 4 5 5 100 100 90 81 0 0 0 0 0 0 0 0 0 0 0 0 1 8 63 94 100 100 100 100 100 100
100 100 100 100 96 100 18 5 5 4 0 0 0 1 3 0 0 0 0 2 5 5 5 58 7 91 100 94 36 0 0 0 0 0 0 0 0 0 0 0 2 1 4 5 5 32 67 99 100
95 94 100 100 100 100 97 70 19 7 5 5 3 0 5 5 4 0 0 0 1 1 0 0 4 31 9 71 35 28 4 0 0 0 0 0 0 0 0 2 5 5 5 1 0 0 0 1 3
97 99 97 100 79 100 100 100 100 100 96 34 17 4 2 5 10 5 5 4 0 2 2 3 3 0 0 0 20 26 18 83 71 14 0 0 0 0 0 3 5 4 3 5 5 30 4 5 1
100 100 100 25 42 21 89 100 100 100 100 100 100 100 100 100 100 100 53 78 93 96 83 66 6 1 0 0 0 2 12 13 7 98 7 0 0 0 0 0 4 2 3 10 5 13 5 5 2
100 98 59 8 93 100 75 98 100 100 100 100 100 100 100 99 99 100 100 100 100 82 41 4 3 0 2 0 0 0 4 6 9 64 62 21 13 30 8 0 0 5 6 39 100 92 29 5 60
85 36 20 5 5 41 46 40 14 6 6 12 21 39 97 100 89 45 99 97 78 67 40 4 2 4 5 5 5 5 0 0 0 0 2 38 40 31 99 95 3 4 7 64 26 26 28 52 6
99 100 75 83 92 56 56 88 97 68 21 0 0 8 25 82 86 92 8 4 3 1 0 0 0 5 5 5 5 4 0 0 0 0 0 0 2 1 12 52 10 0 4 12 8 25 46 72 78
90 15 5 5 7 5 5 5 5 5 5 4 0 0 0 0 0 3 0 0 0 0 0 0 0 0 0 0 3 5 1 5 5 0 0 0 2 6 2 1 5 14 5 8 36 69 30 34 55
100 72 12 5 16 5 17 6 22 54 26 5 1 0 0 0 0 0 0 0 0 0 0 0 0 0 0 0 0 0 0 0 2 5 4 3 1 0 10 3 5 29 11 6 23 34 69 69 100
100 88 83 85 14 25 5 5 5 5 5 5 1 1 5 1 0 0 0 0 0 0 0 0 0 0 0 0 0 0 0 0 0 0 0 0 2 5 2 1 1 38 71 60 14 26 13 74 99
35 37 55 43 12 20 18 23 5 1 5 5 2 0 0 0 0 0 0 0 0 0 0 0 0 0 0 0 0 0 0 0 0 0 0 0 0 1 25 4 7 11 7 24 14 3 23 43 98
5 5 23 34 8 5 5 5 6 2 2 0 0 0 0 0 0 0 0 0 0 0 0 0 0 0 3 15 0 0 0 0 0 0 0 0 0 3 14 36 19 8 6 3 17 50 74 74 44
3 2 0 0 5 3 5 3 5 5 5 2 4 5 5 5 3 1 0 0 0 0 0 0 14 24 71 77 42 0 0 0 0 0 0 0 0 0 8 7 7 62 98 59 72 96 88 71 92
2 4 0 1 2 0 0 0 0 0 4 12 59 23 3 2 0 0 0 0 0 0 3 16 44 50 60 78 40 0 0 0 0 0 0 0 0 0 0 0 3 8 21 6 75 99 98 100 100
0 0 0 3 2 5 0 3 0 0 0 0 0 0 0 0 0 2 52 0 0 0 0 0 6 84 98 86 95 10 0 0 0 6 56 55 42 28 41 13 49 100 100 82 84 34 40 24 83
0 0 0 4 6 34 3 11 0 0 0 0 0 0 0 0 0 1 1 0 0 0 5 0 1 100 100 82 100 100 100 53 41 70 49 92 47 77 100 50 77 100 98 100 100 100 100 66 38
0 0 30 100 95 59 5 5 0 0 0 0 0 0 0 0 0 0 2 0 18 46 56 0 2 59 56 100 99 100 100 96 100 78 100 100 99 100 80 91 100 100 100 100 100 100 100 100 100
0 26 58 59 83 9 5 5 5 0 0 0 0 2 2 0 0 0 60 10 78 100 100 100 82 98 28 100 99 100 100 100 100 100 100 100 100 85 100 67 100 100 100 100 100 100 100 100 100
4 2 5 0 24 5 5 22 0 0 0 0 0 1 0 0 0 0 10 53 68 84 97 80 99 100 100 99 100 100 100 100 100 100 100 100 100 100 100 100 100 100 100 100 100 100 100 100 100
5 5 2 5 5 28 5 1 0 0 0 0 0 0 0 0 46 62 0 2 65 7 53 46 76 100 100 100 100 100 100 100 100 100 100 100 100 100 100 100 100 100 100 100 100 100 100 100 97
0 2 5 17 6 5 4 2 2 0 0 0 0 0 0 0 0 16 0 3 30 63 45 97 100 97 100 100 100 100 100 100 100 100 100 100 100 100 100 100 100 100 100 100 100 100 100 100 100
1 4 2 1 3 5 5 3 0 0 0 0 0 0 0 0 0 0 26 53 37 86 91 100 100 100 100 100 99 96 100 100 100 100 100 100 100 100 100 100 100 100 100 100 100 100 90 95 72
0 0 1 5 0 0 4 4 0 0 0 0 0 0 0 0 0 0 0 0 0 1 12 6 0 0 3 5 5 5 5 7 57 89 92 100 100 95 100 100 100 100 100 100 100 41 7 29 78

GFSSGP_prec_cloud_120.txt.gz
Cloud_Cover
0 0 0 0 0 0 0 0 0 0 12 2 2 2 2 0 0 0 0 0 0 25 100 100 16 0 0 4 5 23 9 5 5 3 6 26 79 100 100 100 40 6 5 5 5 6 25 5 5
0 0 0 0 0 0 0 0 0 0 0 0 0 0 0 0 0 0 0 0 0 86 50 65 33 0 0 0 0 0 0 0 2 0 0 5 16 6 64 83 88 100 67 5 4 12 13 5 5
4 0 0 0 0 0 0 0 0 0 0 0 0 0 0 0 0 0 0 0 0 95 96 100 0 0 0 0 0 0 0 0 0 0 0 1 94 66 5 5 8 5 57 45 5 5 5 5 5
1 4 0 0 0 0 0 0 0 0 0 0 0 0 0 0 0 0 0 0 0 26 100 97 22 1 4 0 0 1 5 4 0 0 21 2 2 38 99 100 100 98 90 47 98 47 15 5 5
5 5 5 0 2 1 0 0 0 0 0 0 0 0 0 0 0 0 0 0 1 88 56 88 66 3 0 0 0 0 2 5 4 0 0 0 0 0 0 1 15 67 100 100 46 6 61 25 42
5 5 5 1 0 5 0 3 0 0 0 0 0 0 0 0 0 0 0 0 0 12 76 100 96 26 0 0 0 0 0 0 0 0 0 0 0 0 0 0 0 3 5 97 100 72 87 100 100
49 7 5 5 5 5 2 0 1 0 0 0 0 0 0 0 0 0 0 0 0 0 1 87 100 100 98 95 46 11 0 0 0 0 0 0 0 0 0 0 0 0 0 4 79 67 70 100 100
21 5 16 100 100 88 7 5 5 5 5 5 0 0 0 0 0 0 0 0 0 0 0 0 1 44 99 100 100 75 7 5 5 2 0 0 0 0 0 0 0 0 0 0 0 0 5 5 32
78 8 96 100 100 68 5 4 11 88 69 50 17 2 0 0 0 0 0 0 0 0 1 1 2 0 0 4 37 58 11 0 0 3 5 7 4 0 0 0 0 0 0 0 4 3 4 1 3
100 100 100 88 100 81 24 31 97 100 98 18 56 79 17 35 45 54 50 36 7 5 5 33 72 5 3 5 4 4 3 0 0 7 39 18 7 5 5 2 0 0 0 0 0 2 5 27 15
100 100 100 66 19 16 100 100 100 87 96 92 97 94 72 100 100 97 100 100 100 99 100 75 91 74 19 54 97 84 23 31 5 4 20 100 51 8 3 13 5 1 5 4 0 0 1 4 8
100 100 95 54 80 88 71 5 10 36 20 31 6 8 79 66 12 100 100 100 100 98 91 100 100 94 93 100 64 9 5 3 2 6 24 19 93 49 12 0 2 5 5 5 6 8 5 8 3
100 99 69 80 85 64 99 100 100 97 34 14 8 44 24 100 100 93 93 78 31 47 62 59 41 18 29 5 5 4 4 4 5 0 0 59 39 69 100 99 51 36 5 4 19 25 24 30 16
100 37 36 7 49 86 96 88 100 53 4 5 4 3 3 5 5 4 4 4 3 6 29 21 11 22 5 4 0 0 0 0 0 0 0 0 13 7 3 78 38 89 100 2 2 26 34 34 30
58 7 5 5 5 5 11 16 25 7 5 5 2 4 3 0 0 0 3 2 0 0 0 0 0 0 0 0 0 0 0 0 0 0 0 0 0 7 2 3 23 19 47 24 37 61 76 65 65
100 44 62 45 18 5 5 5 5 5 5 4 0 1 5 1 3 2 4 5 4 0 0 0 0 0 0 0 0 0 0 0 0 0 0 0 0 0 0 24 37 5 34 39 80 100 100 100 100
100 100 87 26 74 10 5 12 5 5 5 5 2 3 0 2 0 0 0 0 0 0 0 0 0 0 0 0 0 0 0 0 0 0 0 0 0 0 7 4 10 20 14 88 94 100 100 100 100
100 100 100 99 40 21 5 10 5 22 5 5 0 2 3 0 0 0 0 0 0 0 0 0 0 0 0 49 77 2 0 0 0 0 0 0 0 0 20 12 24 7 52 42 70 100 100 100 100
1 5 5 17 98 97 100 95 5 3 5 5 5 4 0 0 2 0 0 0 0 0 0 0 22 28 100 100 100 62 1 0 0 0 0 0 0 0 0 1 46 71 65 31 18 24 52 100 100
0 0 0 0 0 5 5 7 5 4 5 47 47 2 0 0 0 0 0 0 0 0 0 0 86 94 100 100 100 100 84 0 0 0 0 0 4 2 0 1 5 60 100 99 52 28 28 61 98
0 0 0 1 0 0 0 0 0 0 0 0 0 0 0 0 0 0 0 0 0 0 0 0 0 91 100 100 100 100 0 0 4 14 45 98 55 82 69 12 5 11 97 99 56 39 21 98 100
0 0 0 0 3 2 0 0 0 0 0 0 0 0 0 0 0 0 0 0 0 0 0 0 0 23 66 93 100 100 100 100 100 100 100 100 100 100 100 89 23 0 2 82 78 95 96 100 100
0 0 0 4 5 5 2 4 0 0 0 0 0 0 0 0 0 0 0 0 0 0 0 0 0 0 0 25 42 96 100 100 95 81 80 100 73 92 100 100 100 67 72 14 100 98 100 100 100
0 0 2 5 5 5 4 5 4 0 0 0 0 0 0 0 0 0 0 0 0 0 0 0 0 0 0 1 5 11 47 86 52 85 90 84 83 93 100 87 100 100 97 11 60 100 100 100 100
0 4 5 2 17 5 5 6 5 0 0 0 0 0 0 0 0 0 0 0 0 0 0 0 4 5 5 23 5 8 5 100 99 96 100 100 100 100 90 48 74 59 73 96 66 100 100 100 100
0 2 5 0 5 5 5 33 0 0 0 0 0 0 0 0 0 0 0 0 0 0 0 0 5 5 6 79 5 18 5 6 99 59 100 100 100 100 100 100 100 98 37 7 96 100 100 100 100
4 3 2 5 6 57 17 1 0 0 0 0 0 0 0 0 0 0 0 0 0 0 0 4 5 5 5 5 5 5 12 5 6 7 82 98 99 100 100 100 100 100 100 100 100 100 100 100 100
0 0 4 5 1 4 4 1 0 0 0 0 0 0 0 0 0 0 0 0 0 0 0 1 5 5 5 5 5 0 4 5 5 5 51 79 74 100 100 100 100 100 100 100 100 100 100 100 100
2 4 4 3 5 5 12 1 0 0 0 0 0 0 0 0 0 0 0 0 0 0 0 0 0 0 5 5 5 5 5 4 5 5 5 33 40 100 95 100 100 100 100 100 100 100 100 100 100
0 2 0 5 0 0 4 11 0 0 0 0 0 0 0 0 0 0 0 0 0 0 0 0 0 5 5 5 49 92 95 46 5 5 5 5 5 5 100 100 100 100 100 100 100 100 100 100 100

GFSSGP_prec_cloud_123.txt.gz
Cloud_Cover
0 0 0 0 0 0 0 0 0 0 0 0 0 5 6 44 67 56 4 0 0 47 95 100 0 0 0 0 0 0 0 0 2 5 4 3 29 20 7 98 66 14 40 15 5 37 20 5 10
0 0 0 0 0 0 0 0 0 0 0 0 0 0 2 0 0 0 0 0 0 72 27 99 7 0 0 0 0 0 0 0 0 0 0 0 4 1 0 6 69 98 100 99 83 61 9 5 8
0 0 0 0 0 0 0 0 0 0 0 0 0 0 0 0 0 0 0 0 1 86 88 100 25 0 0 1 0 0 0 0 0 0 0 0 0 0 0 0 5 4 12 100 100 56 100 22 5
0 0 0 0 0 0 0 0 0 0 0 0 0 0 0 0 0 0 0 0 14 16 74 89 87 0 1 5 1 0 0 0 0 0 5 5 1 0 5 0 0 5 5 5 6 84 98 80 61
0 0 0 0 0 0 0 0 0 0 0 0 0 0 0 0 0 0 0 0 4 26 92 89 97 10 0 0 2 0 0 0 0 0 0 0 0 0 0 0 0 2 3 3 4 5 10 77 100
0 0 0 0 5 3 0 0 0 0 0 0 0 0 0 0 0 0 0 0 0 16 0 64 100 93 44 0 3 0 0 0 0 0 0 0 0 0 0 0 0 0 0 0 0 0 7 12 49
0 0 3 5 5 5 5 4 0 0 0 0 0 0 0 0 0 0 0 0 0 0 0 0 0 7 98 100 100 91 5 1 0 0 0 0 0 0 0 0 0 0 0 0 0 0 0 10 76
6 1 7 90 22 5 5 5 0 0 0 0 0 0 0 0 5 0 0 1 5 4 0 0 0 0 0 4 3 98 78 0 0 0 0 0 0 0 0 0 0 0 0 0 0 0 0 0 9
10 12 53 100 91 5 5 5 5 5 5 5 5 5 5 5 5 5 5 4 4 5 5 4 5 5 5 5 5 4 14 4 0 0 0 0 0 0 0 0 0 0 0 0 0 0 0 0 1
96 88 100 100 5 5 5 5 5 68 82 14 5 1 5 5 8 42 42 31 5 5 5 5 5 6 5 5 5 7 5 5 13 5 10 3 13 11 1 0 0 0 0 0 0 0 0 0 8
100 100 97 100 84 5 22 31 33 36 79 83 66 51 63 87 80 50 6 5 6 8 5 7 71 100 95 18 40 50 100 40 9 23 88 58 22 88 90 30 10 2 0 0 0 2 8 10 24
100 100 100 77 59 35 5 45 72 37 87 100 100 66 91 100 100 43 6 5 5 5 48 5 3 3 5 63 18 5 37 57 70 40 4 2 1 15 2 32 4 29 3 0 8 5 12 30 23
100 100 100 62 98 95 21 7 5 16 11 77 82 85 99 99 52 9 30 20 21 5 4 44 11 5 5 3 4 2 2 4 5 5 3 3 3 4 38 31 0 76 100 50 3 26 35 46 43
100 100 91 35 35 54 5 7 20 18 6 32 50 88 94 86 81 68 7 5 1 0 0 3 2 0 0 0 0 0 0 0 0 1 1 0 1 2 10 12 36 9 35 100 100 74 32 46 53
100 100 100 84 82 73 37 8 5 12 81 98 37 68 40 26 94 19 5 0 0 0 0 0 0 0 0 0 0 0 0 0 0 0 0 0 0 0 0 0 34 9 1 19 94 64 88 90 99
100 100 96 94 100 100 86 11 7 5 5 5 4 12 6 5 5 5 5 0 0 0 0 0 0 0 0 0 0 0 0 0 0 0 0 0 0 0 0 0 15 10 32 53 82 94 100 100 100
100 100 100 57 8 31 75 48 28 18 5 5 5 5 2 1 0 3 0 0 0 0 0 0 0 0 4 35 55 1 0 0 0 0 0 0 0 0 3 32 38 27 45 80 93 58 100 53 87
81 98 100 100 70 9 12 12 6 5 27 9 5 5 4 5 5 2 2 0 0 0 0 0 0 4 36 99 100 22 3 2 0 0 0 0 0 0 0 0 0 10 66 93 100 99 15 51 17
2 0 5 12 22 8 10 33 5 5 5 18 5 5 5 4 5 1 0 0 0 0 0 0 0 82 100 100 100 100 100 63 0 0 2 85 100 100 100 100 92 13 3 2 100 100 98 78 91
0 0 0 0 0 6 7 73 18 5 20 29 0 2 4 5 0 0 0 0 0 0 0 0 0 40 75 78 100 100 100 41 88 92 100 100 100 82 49 62 100 100 56 4 2 85 100 71 63
0 0 0 0 0 0 0 0 0 0 0 0 0 0 0 0 0 0 0 0 0 0 0 0 0 1 38 42 92 100 100 90 86 77 99 100 91 71 22 68 100 100 100 100 100 100 100 100 73
0 0 0 0 2 1 0 0 0 0 0 0 0 0 0 0 0 0 0 0 0 0 0 0 0 0 0 21 58 95 97 78 79 23 25 65 3 12 1 29 100 100 100 100 97 100 100 100 100
0 0 0 1 5 5 3 12 0 0 0 0 0 0 0 0 0 0 0 0 0 0 0 0 0 0 0 0 0 14 63 29 0 0 0 83 16 5 75 23 100 100 100 100 100 78 100 100 80
0 0 1 5 5 4 4 5 1 0 0 0 0 0 0 0 0 0 0 0 0 0 0 0 0 0 0 0 0 0 0 0 3 0 5 56 86 42 44 99 62 100 100 100 100 84 50 86 46
0 1 1 1 5 0 5 24 5 0 0 0 0 0 0 0 0 0 0 0 0 0 0 0 0 0 0 0 0 0 0 5 1 0 0 2 47 99 99 100 100 88 100 100 100 100 96 53 59
0 0 2 0 0 5 5 37 0 0 0 0 0 0 0 0 0 0 0 0 0 0 0 0 0 0 0 0 0 0 0 4 0 5 5 5 5 7 17 100 100 100 100 100 100 100 90 64 51
3 3 2 5 70 61 14 1 0 0 0 0 0 0 0 0 0 0 0 0 0 0 0 0 0 0 0 4 3 5 5 27 5 5 5 5 5 5 5 50 67 100 100 100 100 100 100 95 100
0 0 4 5 0 1 1 0 1 0 0 0 0 0 0 0 0 0 0 0 0 0 0 0 0 0 0 0 0 1 2 0 2 3 5 5 5 4 5 10 94 100 100 100 100 100 100 100 100
3 4 2 4 5 5 4 0 0 0 0 0 0 0 0 0 0 0 0 0 0 0 0 0 0 0 0 0 0 0 0 0 0 0 0 0 2 5 4 4 5 87 100 99 73 100 100 100 100
5 8 5 5 1 4 4 11 0 0 0 0 0 0 0 0 0 0 0 0 0 0 0 0 0 0 0 0 0 0 1 0 0 0 0 0 0 0 0 0 3 5 91 100 100 100 100 100 100